[[{"header":{"parameterUnit":"m.s-1","parameterCategory":1,"la1":31.0,"la2":29.5877,"lo1":-88.7671,"lo2":-86.6584,"dy":0.0162,"dx":0.0185,"nx":115,"ny":88,"refTime":"2026-04-03T12:00:00:Z","depth":0,"parameterNumber":2,"parameterNumberName":"U-component_of_WINDS"},"data":[0.0,0.0,0.0,0.0,0.0,0.0,0.0,0.0,0.0,0.0,0.0,0.0,0.0,0.0,0.0,0.0,0.0,0.0,0.0,0.0,0.0,0.0,0.0,0.0,0.0,0.0,0.0,0.0,0.0,0.0,0.0,0.0,0.0,0.0,0.0,0.0,0.0,0.0,0.0,0.0,0.0,0.0,0.0,0.0,0.0,0.0,0.0,0.0,0.0,0.0,0.0,0.0,0.0,0.0,0.0,0.0,0.0,0.0,0.0,0.0,0.0,0.0,0.0,0.0,0.0,0.0,0.0,0.0,0.0,0.0,0.0,0.0,0.0,0.0,0.0,0.0,0.0,0.0,0.0,0.0,0.0,0.0,0.0,0.0,0.0,0.0,0.0,0.0,0.0,0.0,0.0,0.0,0.0,0.0,0.0,0.0,0.0,0.0,0.0,0.0,0.0,0.0,0.0,0.0,0.0,0.0,0.0,0.0,0.0,0.0,0.0,0.0,0.0,0.0,0.0,0.0,0.0,0.0,0.0,0.0,0.0,0.0,0.0,0.0,0.0,0.0,0.0,0.0,0.0,0.0,0.0,0.0,0.0,0.0,0.0,0.0,0.0,0.0,0.0,0.0,0.0,0.0,0.0,0.0,0.0,0.0,0.0,0.0,0.0,0.0,0.0,0.0,0.0,0.0,0.0,0.0,0.0,0.0,0.0,0.0,0.0,0.0,0.0,0.0,0.0,0.0,0.0,0.0,0.0,0.0,0.0,0.0,0.0,0.0,0.0,0.0,0.0,0.0,0.0,0.0,0.0,0.0,0.0,0.0,0.0,0.0,0.0,0.0,0.0,0.0,0.0,0.0,0.0,0.0,0.0,0.0,0.0,0.0,0.0,0.0,0.0,0.0,0.0,0.0,0.0,0.0,0.0,0.0,0.0,0.0,0.0,0.0,0.0,0.0,0.0,0.0,0.0,0.0,0.0,0.0,0.0,0.0,0.0,0.0,0.0,0.0,0.0,0.0,0.0,0.0,0.0,0.0,0.0,0.0,0.0,0.0,0.0,0.0,0.0,0.0,0.0,0.0,0.0,0.0,0.0,0.0,0.0,0.0,0.0,0.0,0.0,0.0,0.0,0.0,0.0,0.0,0.0,0.0,0.0,0.0,0.0,0.0,0.0,0.0,0.0,0.0,0.0,0.0,0.0,0.0,0.0,0.0,0.0,0.0,0.0,0.0,0.0,0.0,0.0,0.0,0.0,0.0,0.0,0.0,0.0,0.0,0.0,0.0,0.0,0.0,0.0,0.0,0.0,0.0,0.0,0.0,0.0,0.0,0.0,0.0,0.0,0.0,0.0,0.0,0.0,0.0,0.0,0.0,0.0,0.0,0.0,0.0,0.0,0.0,0.0,0.0,0.0,0.0,0.0,0.0,0.0,0.0,0.0,0.0,0.0,0.0,0.0,0.0,0.0,0.0,0.0,0.0,0.0,0.0,0.0,0.0,0.0,0.0,0.0,0.0,0.0,0.0,0.0,0.0,0.0,0.0,0.0,0.0,0.0,0.0,0.0,0.0,0.0,0.0,0.0,0.0,0.0,0.0,0.0,0.0,0.0,0.0,0.0,0.0,0.0,0.0,0.0,0.0,0.0,0.0,0.0,0.0,0.0,0.0,0.0,0.0,0.0,0.0,0.0,0.0,0.0,0.0,0.0,0.0,0.0,0.0,0.0,0.0,0.0,0.0,0.0,0.0,0.0,0.0,0.0,0.0,0.0,0.0,0.0,0.0,0.0,0.0,0.0,0.0,0.0,0.0,0.0,0.0,0.0,0.0,0.0,0.0,0.0,0.0,0.0,0.0,0.0,0.0,0.0,0.0,0.0,0.0,0.0,0.0,0.0,0.0,0.0,0.0,0.0,0.0,0.0,0.0,0.0,0.0,0.0,0.0,0.0,0.0,0.0,0.0,0.0,0.0,0.0,0.0,0.0,0.0,0.0,0.0,0.0,0.0,0.0,0.0,0.0,0.0,0.0,0.0,0.0,0.0,0.0,0.0,0.0,0.0,0.0,0.0,0.0,0.0,0.0,0.0,0.0,0.0,0.0,0.0,0.0,0.0,0.0,0.0,0.0,0.0,0.0,0.0,0.0,0.0,0.0,0.0,0.0,0.0,0.0,0.0,0.0,0.0,0.0,0.0,0.0,0.0,0.0,0.0,0.0,0.0,0.0,0.0,0.0,0.0,0.0,0.0,0.0,0.0,0.0,0.0,0.0,0.0,0.0,0.0,0.0,0.0,0.0,0.0,0.0,0.0,0.0,0.0,0.0,0.0,0.0,0.0,0.0,0.0,0.0,0.0,0.0,0.0,0.0,0.0,0.0,0.0,0.0,0.0,0.0,0.0,0.0,0.0,0.0,0.0,0.0,0.0,0.0,0.0,0.0,0.0,0.0,0.0,0.0,0.0,0.0,0.0,0.0,0.0,0.0,0.0,0.0,0.0,0.0,0.0,0.0,0.0,0.0,0.0,0.0,0.0,0.0,0.0,0.0,0.0,0.0,0.0,0.0,0.0,0.0,0.0,0.0,0.0,0.0,0.0,0.0,0.0,0.0,0.0,0.0,0.0,0.0,0.0,0.0,0.0,0.0,0.0,0.0,0.0,0.0,0.0,0.0,0.0,0.0,0.0,0.0,0.0,0.0,0.0,0.0,0.0,0.0,0.0,0.0,0.0,0.0,0.0,0.0,0.0,0.0,0.0,0.0,0.0,0.0,0.0,0.0,0.0,0.0,0.0,0.0,0.0,0.0,0.0,0.0,0.0,0.0,0.0,0.0,0.0,0.0,0.0,0.0,0.0,0.0,0.0,0.0,0.0,0.0,0.0,0.0,0.0,0.0,0.0,0.0,0.0,0.0,0.0,0.0,0.0,0.0,0.0,0.0,0.0,0.0,0.0,0.0,0.0,0.0,0.0,0.0,0.0,0.0,0.0,0.0,0.0,0.0,0.0,0.0,0.0,0.0,0.0,0.0,0.0,0.0,0.0,0.0,0.0,0.0,0.0,0.0,0.0,0.0,0.0,0.0,0.0,0.0,0.0,0.0,0.0,0.0,0.0,0.0,0.0,0.0,0.0,0.0,0.0,0.0,0.0,0.0,0.0,0.0,0.0,0.0,0.0,0.0,0.0,0.0,0.0,0.0,0.0,0.0,0.0,0.0,0.0,0.0,0.0,0.0,0.0,0.0,0.0,0.0,0.0,0.0,0.0,0.0,0.0,0.0,0.0,0.0,0.0,0.0,0.0,0.0,0.0,0.0,0.0,0.0,0.0,0.0,0.0,0.0,0.0,0.0,0.0,0.0,0.0,0.0,0.0,0.0,0.0,0.0,0.0,0.0,0.0,0.0,0.0,0.0,0.0,0.0,0.0,0.0,0.0,0.0,0.0,0.0,0.0,0.0,0.0,0.0,0.0,0.0,0.0,0.0,0.0,0.0,0.0,0.0,0.0,0.0,0.0,0.0,0.0,0.0,0.0,0.0,0.0,0.0,0.0,0.0,0.0,0.0,0.0,0.0,0.0,0.0,0.0,0.0,0.0,0.0,0.0,0.0,0.0,0.0,0.0,0.0,0.0,0.0,0.0,0.0,0.0,0.0,0.0,0.0,0.0,0.0,0.0,0.0,0.0,0.0,0.0,0.0,0.0,0.0,0.0,0.0,0.0,0.0,0.0,0.0,0.0,0.0,0.0,0.0,0.0,0.0,0.0,0.0,0.0,0.0,0.0,0.0,0.0,0.0,0.0,0.0,0.0,0.0,0.0,0.0,0.0,0.0,0.0,0.0,0.0,0.0,0.0,0.0,0.0,0.0,0.0,0.0,0.0,0.0,0.0,0.0,0.0,0.0,0.0,0.0,0.0,0.0,0.0,0.0,0.0,0.0,0.0,0.0,0.0,0.0,0.0,0.0,0.0,0.0,0.0,0.0,0.0,0.0,0.0,0.0,0.0,0.0,0.0,0.0,0.0,0.0,0.0,0.0,0.0,0.0,0.0,0.0,0.0,0.0,0.0,0.0,0.0,0.0,0.0,0.0,0.0,0.0,0.0,0.0,0.0,0.0,0.0,0.0,0.0,0.0,0.0,0.0,0.0,0.0,0.0,0.0,0.0,0.0,0.0,0.0,0.0,0.0,0.0,0.0,0.0,0.0,0.0,0.0,0.0,0.0,0.0,0.0,0.0,0.0,0.0,0.0,0.0,0.0,0.0,0.0,0.0,0.0,0.0,0.0,0.0,0.0,0.0,0.0,0.0,1.5961,0.0,0.0,0.0,0.0,0.0,0.0,0.0,0.0,0.0,0.0,0.0,0.0,0.0,0.0,0.0,0.0,0.0,0.0,0.0,0.0,0.0,0.0,0.0,0.0,0.0,0.0,0.0,0.0,0.0,0.0,0.0,0.0,0.0,0.0,0.0,0.0,0.0,0.0,0.0,0.0,0.0,0.0,0.0,0.0,0.0,0.0,0.0,0.0,0.0,0.0,0.0,0.0,0.0,0.0,0.0,0.0,0.0,0.0,0.0,0.0,0.0,0.0,0.0,0.0,0.0,0.0,0.0,0.0,0.0,0.0,0.0,0.0,0.0,0.0,0.0,0.0,0.0,0.0,0.0,0.0,0.0,0.0,0.0,0.0,0.0,0.0,0.0,0.0,0.0,0.0,0.0,0.0,0.0,0.0,0.0,0.0,0.0,0.0,0.0,0.0,0.0,0.0,0.0,0.0,0.0,0.0,0.0,0.0,0.0,0.0,1.6316,1.6302,1.6367,1.6015,1.5198,0.0,0.0,0.0,0.0,0.0,0.0,0.0,0.0,0.0,0.0,0.0,0.0,0.0,0.0,0.0,0.0,0.0,0.0,0.0,0.0,0.0,0.0,0.0,0.0,0.0,0.0,0.0,0.0,0.0,0.0,0.0,0.0,0.0,0.0,0.0,0.0,0.0,0.0,0.0,0.0,0.0,0.0,0.0,0.0,0.0,0.0,0.0,0.0,0.0,0.0,0.0,0.0,0.0,0.0,0.0,0.0,0.0,0.0,0.0,0.0,0.0,0.0,0.0,0.0,0.0,0.0,0.0,0.0,0.0,0.0,0.0,0.0,0.0,0.0,0.0,0.0,0.0,0.0,0.0,0.0,0.0,0.0,0.0,0.0,0.0,0.0,0.0,0.0,0.0,0.0,0.0,0.0,0.0,0.0,0.0,0.0,0.0,0.0,0.0,0.0,0.0,0.0,0.0,0.0,0.0,0.0,0.0,0.0,0.0,0.0,0.0,0.0,1.6026,1.5618,1.472,0.0,0.0,0.0,0.0,0.0,0.0,0.0,0.0,0.0,0.0,0.0,0.0,0.0,0.0,0.0,0.0,0.0,0.0,0.0,0.0,0.0,0.0,0.0,0.0,0.0,0.0,0.0,0.0,0.0,0.0,0.0,0.0,0.0,0.0,0.0,0.0,0.0,0.0,0.0,0.0,0.0,0.0,0.0,0.0,0.0,0.0,0.0,0.0,0.0,0.0,0.0,0.0,0.0,0.0,0.0,0.0,0.0,0.0,0.0,0.0,0.0,0.0,0.0,0.0,0.0,0.0,0.0,0.0,0.0,0.0,0.0,0.0,0.0,0.0,0.0,0.0,0.0,0.0,0.0,0.0,0.0,0.0,0.0,0.0,0.0,0.0,0.0,0.0,0.0,0.0,0.0,0.0,0.0,0.0,0.0,0.0,0.0,0.0,0.0,0.0,0.0,0.0,0.0,0.0,0.0,0.0,0.0,0.0,0.0,0.0,1.6437,1.6437,1.6452,0.0,1.5002,0.0,0.0,0.0,0.0,0.0,0.0,0.0,0.0,0.0,0.0,0.0,0.0,0.0,0.0,0.0,0.0,0.0,0.0,0.0,0.0,0.0,0.0,0.0,0.0,0.0,0.0,0.0,0.0,0.0,0.0,0.0,0.0,0.0,0.0,0.0,0.0,0.0,0.0,0.0,0.0,0.0,0.0,0.0,0.0,0.0,0.0,0.0,0.0,0.0,0.0,0.0,0.0,0.0,0.0,0.0,0.0,0.0,0.0,0.0,0.0,0.0,0.0,0.0,0.0,0.0,0.0,0.0,0.0,0.0,0.0,0.0,0.0,0.0,0.0,0.0,0.0,0.0,0.0,0.0,0.0,0.0,0.0,0.0,0.0,0.0,0.0,0.0,0.0,0.0,0.0,0.0,0.0,0.0,0.0,0.0,0.0,0.0,0.0,0.0,0.0,0.0,0.0,0.0,0.0,0.0,0.0,0.0,0.0,0.0,0.0,1.6375,1.662,1.6123,1.5555,0.0,0.0,0.0,0.0,0.0,0.0,0.0,0.0,0.0,0.0,0.0,0.0,0.0,0.0,0.0,0.0,0.0,0.0,0.0,0.0,0.0,0.0,0.0,0.0,0.0,0.0,0.0,0.0,0.0,0.0,0.0,0.0,0.0,0.0,0.0,0.0,0.0,0.0,0.0,0.0,0.0,0.0,0.0,0.0,0.0,0.0,0.0,0.0,0.0,0.0,0.0,0.0,0.0,0.0,0.0,0.0,0.0,0.0,0.0,0.0,0.0,0.0,0.0,0.0,0.0,0.0,0.0,0.0,0.0,0.0,0.0,0.0,0.0,0.0,0.0,0.0,0.0,0.0,0.0,0.0,0.0,0.0,0.0,0.0,0.0,0.0,0.0,0.0,0.0,0.0,0.0,0.0,0.0,0.0,0.0,0.0,0.0,0.0,0.0,0.0,0.0,0.0,0.0,0.0,0.0,0.0,0.0,0.0,0.0,0.0,1.5654,1.6261,1.6484,1.5805,1.5142,1.4629,0.0,0.0,0.0,0.0,0.0,0.0,0.0,0.0,0.0,0.0,0.0,0.0,0.0,0.0,0.0,0.0,0.0,0.0,0.0,0.0,0.0,0.0,0.0,0.0,0.0,0.0,0.0,0.0,0.0,0.0,0.0,0.0,0.0,0.0,0.0,0.0,0.0,0.0,0.0,0.0,0.0,0.0,0.0,0.0,0.0,0.0,0.0,0.0,0.0,0.0,0.0,0.0,0.0,0.0,0.0,0.0,0.0,0.0,0.0,0.0,0.0,0.0,0.0,0.0,0.0,0.0,0.0,0.0,0.0,0.0,0.0,0.0,0.0,0.0,0.0,0.0,0.0,0.0,0.0,0.0,0.0,0.0,0.0,0.0,0.0,0.0,0.0,0.0,0.0,0.0,0.0,0.0,0.0,0.0,0.0,0.0,0.0,0.0,0.0,0.0,0.0,0.0,0.0,0.0,0.0,0.0,0.0,0.0,0.0,1.5635,1.6105,1.6105,1.5659,1.5005,0.0,0.0,0.0,0.0,0.0,0.0,0.0,0.0,0.0,0.0,0.0,0.0,0.0,0.0,0.0,0.0,0.0,0.0,0.0,0.0,0.0,0.0,0.0,0.0,0.0,0.0,0.0,0.0,0.0,0.0,0.0,0.0,0.0,0.0,0.0,0.0,0.0,0.0,0.0,0.0,0.0,0.0,0.0,0.0,0.0,0.0,0.0,0.0,0.0,0.0,0.0,0.0,0.0,0.0,0.0,0.0,0.0,0.0,0.0,0.0,0.0,0.0,0.0,0.0,0.0,0.0,0.0,0.0,0.0,0.0,0.0,0.0,0.0,0.0,0.0,0.0,0.0,0.0,0.0,0.0,0.0,0.0,0.0,0.0,0.0,0.0,0.0,0.0,0.0,0.0,0.0,0.0,0.0,0.0,0.0,0.0,0.0,0.0,0.0,0.0,0.0,0.0,0.0,0.0,0.0,0.0,0.0,0.0,0.0,1.4043,1.5073,1.5659,1.5625,1.5249,1.4732,0.0,0.0,0.0,0.0,0.0,0.0,0.0,0.0,0.0,0.0,0.0,0.0,0.0,0.0,0.0,0.0,0.0,0.0,0.0,0.0,0.0,0.0,0.0,0.0,0.0,0.0,0.0,0.0,0.0,0.0,0.0,0.0,0.0,0.0,0.0,0.0,0.0,0.0,0.0,0.0,0.0,0.0,0.0,0.0,0.0,0.0,0.0,0.0,0.0,0.0,0.0,0.0,0.0,0.0,0.0,0.0,0.0,0.0,0.0,0.0,0.0,0.0,0.0,0.0,0.0,0.0,0.0,0.0,0.0,0.0,0.0,0.0,0.0,0.0,0.0,0.0,0.0,0.0,0.0,0.0,0.0,0.0,0.0,0.0,0.0,0.0,0.0,0.0,0.0,0.0,0.0,0.0,0.0,0.0,0.0,0.0,0.0,0.0,0.0,0.0,0.0,0.0,0.0,0.0,0.0,0.0,0.0,0.0,0.0,1.4375,0.0,1.5918,0.0,1.5215,1.4713,0.0,0.0,0.0,0.0,0.0,0.0,0.0,0.0,0.0,0.0,0.0,0.0,0.0,0.0,0.0,0.0,0.0,0.0,0.0,0.0,0.0,0.0,0.0,0.0,0.0,0.0,0.0,0.0,0.0,0.0,0.0,0.0,0.0,0.0,0.0,0.0,0.0,0.0,0.0,0.0,0.0,0.0,0.0,0.0,0.0,0.0,0.0,0.0,0.0,0.0,0.0,0.0,0.0,0.0,0.0,0.0,0.0,0.0,0.0,0.0,0.0,0.0,0.0,0.0,0.0,0.0,0.0,0.0,0.0,0.0,0.0,0.0,0.0,0.0,0.0,0.0,0.0,0.0,0.0,0.0,0.0,0.0,0.0,0.0,0.0,0.0,0.0,0.0,0.0,0.0,0.0,0.0,0.0,0.0,0.0,0.0,0.0,0.0,0.0,0.0,0.0,0.0,0.0,0.0,0.0,0.0,0.0,0.0,1.5625,1.6065,1.6891,1.6891,1.6124,1.5605,1.4966,0.0,0.0,0.0,0.0,0.0,0.0,0.0,0.0,0.0,0.0,0.0,0.0,0.0,0.0,0.0,0.0,0.0,0.0,0.0,0.0,0.0,0.0,0.0,0.0,0.0,0.0,0.0,0.0,0.0,0.0,0.0,0.0,0.0,0.0,0.0,0.0,0.0,0.0,0.0,0.0,0.0,0.0,0.0,0.0,0.0,0.0,0.0,0.0,0.0,0.0,0.0,0.0,0.0,0.0,0.0,0.0,0.0,0.0,0.0,0.0,0.0,0.0,0.0,0.0,0.0,0.0,0.0,0.0,0.0,0.0,0.0,0.0,0.0,0.0,0.0,0.0,0.0,0.0,0.0,0.0,0.0,0.0,0.0,0.0,0.0,0.0,0.0,0.0,0.0,0.0,0.0,0.0,0.0,0.0,0.0,0.0,0.0,0.0,0.0,0.0,0.0,0.0,0.0,0.0,0.0,0.0,0.0,0.0,0.0,1.6124,1.6641,1.666,1.6105,1.5366,1.4707,0.0,0.0,0.0,0.0,0.0,0.0,0.0,0.0,0.0,0.0,0.0,0.0,0.0,0.0,0.0,0.0,0.0,0.0,0.0,0.0,0.0,0.0,0.0,0.0,0.0,0.0,0.0,0.0,0.0,0.0,0.0,0.0,0.0,0.0,0.0,0.0,0.0,0.0,0.0,0.0,0.0,0.0,0.0,0.0,0.0,0.0,0.0,0.0,0.0,0.0,0.0,0.0,0.0,0.0,0.0,0.0,0.0,0.0,0.0,0.0,0.0,0.0,0.0,0.0,0.0,0.0,0.0,0.0,0.0,0.0,0.0,0.0,0.0,0.0,0.0,0.0,0.0,0.0,0.0,0.0,0.0,0.0,0.0,0.0,0.0,0.0,0.0,0.0,0.0,0.0,0.0,0.0,0.0,0.0,0.0,0.0,0.0,0.0,0.0,0.0,0.0,0.0,0.0,0.0,0.0,0.0,0.0,0.0,0.0,1.839,1.8477,1.8177,1.7519,1.6539,1.5625,1.4863,0.0,0.0,0.0,0.0,0.0,0.0,0.0,0.0,0.0,0.0,0.0,0.0,0.0,0.0,0.0,0.0,0.0,0.0,0.0,0.0,0.0,0.0,0.0,0.0,0.0,0.0,0.0,0.0,0.0,0.0,0.0,0.0,0.0,0.0,0.0,0.0,0.0,0.0,0.0,0.0,0.0,0.0,0.0,0.0,0.0,0.0,0.0,0.0,0.0,0.0,0.0,0.0,0.0,0.0,0.0,0.0,0.0,0.0,0.0,0.0,0.0,0.0,0.0,0.0,0.0,0.0,0.0,0.0,0.0,0.0,0.0,0.0,0.0,0.0,0.0,0.0,0.0,0.0,0.0,0.0,0.0,0.0,0.0,0.0,0.0,0.0,0.0,0.0,0.0,0.0,0.0,0.0,0.0,0.0,0.0,0.0,0.0,0.0,0.0,0.0,0.0,0.0,0.0,0.0,0.0,0.0,0.0,0.0,2.2295,2.2014,2.1254,2.006,1.881,1.7519,0.0,0.0,0.0,0.0,0.0,0.0,0.0,0.0,0.0,0.0,0.0,0.0,0.0,0.0,0.0,0.0,0.0,0.0,0.0,0.0,0.0,0.0,0.0,0.0,0.0,0.0,0.0,0.0,0.0,0.0,0.0,0.0,0.0,0.0,0.0,0.0,0.0,0.0,0.0,0.0,0.0,0.0,0.0,0.0,0.0,0.0,0.0,0.0,0.0,0.0,0.0,0.0,0.0,0.0,0.0,0.0,0.0,0.0,0.0,0.0,0.0,0.0,0.0,0.0,0.0,0.0,0.0,0.0,0.0,0.0,0.0,0.0,0.0,0.0,0.0,0.0,0.0,0.0,0.0,0.0,0.0,0.0,0.0,0.0,0.0,0.0,0.0,0.0,0.0,0.0,0.0,0.0,0.0,0.0,0.0,0.0,0.0,0.0,0.0,0.0,0.0,0.0,0.0,0.0,0.0,0.0,0.0,0.0,0.0,2.2826,2.4937,2.4703,2.2059,2.0624,1.904,0.0,0.0,0.0,0.0,0.0,0.0,0.0,0.0,0.0,0.0,0.0,0.0,0.0,0.0,0.0,0.0,0.0,0.0,0.0,0.0,0.0,0.0,0.0,0.0,0.0,0.0,0.0,0.0,0.0,0.0,0.0,0.0,0.0,0.0,0.0,0.0,0.0,0.0,0.0,0.0,0.0,0.0,0.0,0.0,0.0,0.0,0.0,0.0,0.0,0.0,0.0,0.0,0.0,0.0,0.0,0.0,0.0,0.0,0.0,0.0,0.0,0.0,0.0,0.0,0.0,0.0,0.0,0.0,0.0,0.0,0.0,0.0,0.0,0.0,0.0,0.0,0.0,0.0,0.0,0.0,0.0,0.0,0.0,0.0,0.0,0.0,0.0,0.0,0.0,0.0,0.0,0.0,0.0,0.0,0.0,0.0,0.0,0.0,0.0,0.0,0.0,0.0,0.0,0.0,0.0,0.0,0.0,0.0,2.0847,2.3532,2.6614,2.7064,2.4802,2.3098,2.1114,0.0,0.0,0.0,0.0,0.0,0.0,0.0,0.0,0.0,0.0,0.0,0.0,0.0,0.0,0.0,0.0,0.0,0.0,0.0,0.0,0.0,0.0,0.0,0.0,0.0,0.0,0.0,0.0,0.0,0.0,0.0,0.0,0.0,0.0,0.0,0.0,0.0,0.0,0.0,0.0,0.0,0.0,0.0,0.0,0.0,0.0,0.0,0.0,0.0,0.0,0.0,0.0,0.0,0.0,0.0,0.0,0.0,0.0,0.0,0.0,0.0,0.0,0.0,0.0,0.0,0.0,0.0,0.0,0.0,0.0,0.0,0.0,0.0,0.0,0.0,0.0,0.0,0.0,0.0,0.0,0.0,0.0,0.0,0.0,0.0,0.0,0.0,0.0,0.0,0.0,0.0,0.0,0.0,0.0,0.0,0.0,0.0,0.0,0.0,0.0,0.0,0.0,0.0,0.0,0.0,0.0,0.0,0.0,2.1137,2.4149,2.7227,2.8402,2.7456,2.5661,2.3496,0.0,0.0,0.0,0.0,0.0,0.0,0.0,0.0,0.0,0.0,0.0,0.0,0.0,0.0,0.0,0.0,0.0,0.0,0.0,0.0,0.0,0.0,0.0,0.0,0.0,0.0,0.0,0.0,0.0,0.0,0.0,0.0,0.0,0.0,0.0,0.0,0.0,0.0,0.0,0.0,0.0,0.0,0.0,0.0,0.0,0.0,0.0,0.0,0.0,0.0,0.0,0.0,0.0,0.0,0.0,0.0,0.0,0.0,0.0,0.0,0.0,0.0,0.0,0.0,0.0,0.0,0.0,0.0,0.0,0.0,0.0,0.0,0.0,0.0,0.0,0.0,0.0,0.0,0.0,0.0,0.0,0.0,0.0,0.0,0.0,0.0,0.0,0.0,0.0,0.0,0.0,0.0,0.0,0.0,0.0,0.0,0.0,0.0,0.0,0.0,0.0,0.0,0.0,0.0,0.0,0.0,0.0,0.0,2.1418,2.4005,2.656,2.7604,2.7056,2.7014,2.543,0.0,0.0,0.0,0.0,0.0,0.0,0.0,0.0,0.0,0.0,0.0,0.0,0.0,0.0,0.0,0.0,0.0,0.0,0.0,0.0,0.0,0.0,0.0,0.0,0.0,0.0,0.0,0.0,0.0,0.0,0.0,0.0,0.0,0.0,0.0,0.0,0.0,0.0,0.0,0.0,0.0,0.0,0.0,0.0,0.0,0.0,0.0,0.0,1.6434,0.0,0.0,0.0,0.0,0.0,0.0,0.0,0.0,0.0,0.0,0.0,0.0,0.0,0.0,0.0,0.0,0.0,0.0,0.0,0.0,0.0,0.0,0.0,0.0,0.0,0.0,0.0,0.0,0.0,0.0,0.0,0.0,0.0,0.0,0.0,0.0,0.0,0.0,0.0,0.0,0.0,0.0,0.0,0.0,0.0,0.0,0.0,0.0,0.0,0.0,0.0,0.0,0.0,0.0,0.0,0.0,0.0,0.0,0.0,2.103,2.3276,2.5359,2.636,2.6235,2.6568,2.5396,0.0,0.0,0.0,0.0,0.0,0.0,0.0,0.0,0.0,0.0,0.0,0.0,0.0,0.0,0.0,0.0,0.0,0.0,0.0,0.0,0.0,0.0,0.0,0.0,0.0,0.0,0.0,0.0,0.0,0.0,0.0,0.0,0.0,0.0,0.0,0.0,0.0,0.0,0.0,0.0,0.0,0.0,0.0,0.0,0.0,0.0,0.0,0.0,0.0,0.0,0.0,0.0,0.0,0.0,0.0,0.0,0.0,0.0,0.0,0.0,0.0,0.0,0.0,0.0,0.0,0.0,0.0,0.0,0.0,0.0,0.0,0.0,0.0,0.0,0.0,0.0,0.0,0.0,0.0,0.0,0.0,0.0,0.0,0.0,0.0,0.0,0.0,0.0,0.0,0.0,0.0,0.0,0.0,0.0,0.0,0.0,0.0,0.0,0.0,0.0,0.0,0.0,0.0,0.0,0.0,0.0,0.0,1.8745,2.0487,2.2391,2.403,2.4933,2.5071,2.506,2.4141,2.2129,0.0,0.0,0.0,0.0,0.0,0.0,0.0,0.0,0.0,0.0,0.0,0.0,0.0,0.0,0.0,0.0,0.0,0.0,0.0,0.0,0.0,0.0,0.0,0.0,0.0,0.0,0.0,0.0,0.0,0.0,0.0,0.0,0.0,0.0,0.0,0.0,0.0,0.0,1.5459,1.6469,0.0,0.0,0.0,0.0,0.0,0.0,0.0,0.0,1.7684,0.0,0.0,0.0,0.0,0.0,0.0,0.0,0.0,0.0,0.0,0.0,0.0,0.0,0.0,0.0,0.0,0.0,0.0,0.0,0.0,0.0,0.0,0.0,0.0,0.0,0.0,0.0,0.0,0.0,0.0,0.0,0.0,0.0,0.0,0.0,0.0,0.0,0.0,0.0,0.0,0.0,0.0,0.0,0.0,0.0,0.0,0.0,0.0,0.0,0.0,0.0,0.0,0.0,0.0,0.0,0.0,1.7165,1.8997,2.0644,2.2131,2.3203,2.3542,2.3087,2.2849,2.1816,1.9866,0.0,0.0,0.0,0.0,0.0,0.0,0.0,0.0,0.0,0.0,0.0,0.0,0.0,0.0,0.0,0.0,0.0,0.0,0.0,0.0,0.0,0.0,0.0,0.0,0.0,0.0,0.0,0.0,0.0,0.0,0.0,0.0,0.0,0.0,0.0,0.0,0.0,0.0,0.0,1.7854,1.8574,0.0,0.0,0.0,0.0,0.0,0.0,0.0,0.0,1.8403,0.0,0.0,0.0,0.0,0.0,0.0,0.0,0.0,0.0,0.0,0.0,0.0,0.0,0.0,0.0,0.0,0.0,0.0,0.0,0.0,0.0,0.0,0.0,0.0,0.0,0.0,0.0,0.0,0.0,0.0,0.0,0.0,0.0,0.0,0.0,0.0,0.0,0.0,0.0,0.0,0.0,0.0,0.0,0.0,0.0,0.0,0.0,0.0,0.0,0.0,0.0,0.0,0.0,0.0,0.0,1.7172,1.9123,2.0672,2.1806,2.2433,2.2369,2.1625,2.0572,1.9165,0.0,0.0,0.0,0.0,0.0,0.0,0.0,0.0,0.0,0.0,0.0,0.0,0.0,0.0,0.0,0.0,0.0,0.0,0.0,0.0,0.0,0.0,0.0,0.0,0.0,0.0,0.0,0.0,0.0,0.0,0.0,0.0,0.0,0.0,0.0,0.0,0.0,0.0,0.0,0.0,1.8968,1.9902,1.9688,0.0,0.0,0.0,0.0,0.0,0.0,1.9563,1.9084,0.0,0.0,0.0,0.0,0.0,0.0,0.0,0.0,0.0,0.0,0.0,0.0,0.0,0.0,0.0,0.0,0.0,0.0,0.0,0.0,0.0,0.0,0.0,0.0,0.0,0.0,0.0,0.0,0.0,0.0,0.0,0.0,0.0,0.0,0.0,0.0,0.0,0.0,0.0,0.0,0.0,0.0,0.0,0.0,0.0,0.0,0.0,0.0,0.0,0.0,0.0,0.0,0.0,0.0,0.0,1.722,1.9279,2.0722,2.1555,2.1863,2.1537,2.0632,1.8903,1.7228,0.0,0.0,0.0,0.0,0.0,0.0,0.0,0.0,0.0,0.0,0.0,0.0,0.0,0.0,0.0,0.0,0.0,0.0,0.0,0.0,0.0,0.0,0.0,0.0,0.0,0.0,0.0,0.0,0.0,0.0,0.0,0.0,0.0,0.0,0.0,0.0,0.0,0.0,0.0,0.0,0.0,2.101,2.1379,2.0817,0.0,0.0,0.0,0.0,2.0345,2.0344,0.0,0.0,0.0,0.0,0.0,0.0,0.0,0.0,0.0,0.0,0.0,0.0,0.0,0.0,0.0,0.0,0.0,0.0,0.0,0.0,0.0,0.0,0.0,0.0,0.0,0.0,0.0,0.0,0.0,0.0,0.0,0.0,0.0,0.0,0.0,0.0,0.0,0.0,0.0,0.0,0.0,0.0,0.0,0.0,0.0,0.0,0.0,0.0,0.0,0.0,0.0,0.0,0.0,0.0,0.0,0.0,1.7488,1.9602,2.0953,2.1555,2.1863,2.1443,2.0277,1.8783,1.724,0.0,0.0,0.0,0.0,0.0,0.0,0.0,0.0,0.0,0.0,0.0,0.0,0.0,0.0,0.0,0.0,0.0,0.0,0.0,0.0,0.0,0.0,0.0,0.0,0.0,0.0,0.0,0.0,0.0,0.0,0.0,0.0,0.0,0.0,0.0,0.0,0.0,0.0,0.0,0.0,0.0,2.187,2.2214,2.201,2.1929,0.0,0.0,2.0906,2.1725,2.1427,0.0,0.0,0.0,0.0,0.0,0.0,0.0,0.0,0.0,0.0,0.0,0.0,0.0,0.0,0.0,0.0,0.0,0.0,0.0,0.0,0.0,0.0,0.0,0.0,0.0,0.0,0.0,0.0,0.0,0.0,0.0,0.0,0.0,0.0,0.0,0.0,0.0,0.0,0.0,0.0,0.0,0.0,0.0,0.0,0.0,0.0,0.0,0.0,0.0,0.0,0.0,0.0,0.0,0.0,0.0,1.503,1.7354,1.9693,2.1154,2.1614,2.2024,2.159,2.0224,1.877,1.7069,0.0,0.0,0.0,0.0,0.0,0.0,0.0,0.0,0.0,0.0,0.0,0.0,0.0,0.0,0.0,0.0,0.0,0.0,0.0,0.0,0.0,0.0,0.0,0.0,0.0,0.0,0.0,0.0,0.0,0.0,0.0,0.0,0.0,0.0,0.0,0.0,0.0,0.0,0.0,0.0,0.0,0.0,2.3027,2.2666,0.0,0.0,0.0,2.1611,2.2427,0.0,0.0,0.0,0.0,0.0,0.0,0.0,0.0,0.0,0.0,0.0,0.0,0.0,0.0,0.0,0.0,0.0,0.0,0.0,0.0,0.0,0.0,0.0,0.0,0.0,0.0,0.0,0.0,0.0,0.0,0.0,0.0,0.0,0.0,0.0,0.0,0.0,0.0,0.0,0.0,0.0,0.0,0.0,0.0,0.0,0.0,0.0,0.0,0.0,0.0,0.0,0.0,0.0,0.0,0.0,0.0,0.0,1.73,1.98,2.1283,2.1689,2.2151,2.1758,2.045,1.9092,0.0,0.0,0.0,0.0,0.0,0.0,0.0,0.0,0.0,0.0,0.0,0.0,0.0,0.0,0.0,0.0,0.0,0.0,0.0,0.0,0.0,0.0,0.0,0.0,0.0,0.0,0.0,0.9997,0.0,0.0,0.0,0.0,0.0,0.0,0.0,0.0,0.0,0.0,0.0,0.0,0.0,0.0,2.1664,2.3479,2.3307,2.335,0.0,0.0,2.2452,2.2906,2.2206,2.1252,0.0,0.0,0.0,0.0,0.0,0.0,0.0,0.0,0.0,0.0,0.0,0.0,0.0,0.0,0.0,0.0,0.0,0.0,0.0,0.0,0.0,0.0,0.0,0.0,0.0,0.0,0.0,0.0,0.0,0.0,0.0,0.0,0.0,0.0,0.0,0.0,0.0,0.0,0.0,0.0,0.0,0.0,0.0,0.0,0.0,0.0,0.0,0.0,0.0,0.0,0.0,0.0,0.0,0.0,0.0,1.7568,1.9893,2.139,2.197,2.2258,2.1944,2.1069,1.9893,1.8279,0.0,0.0,0.0,0.0,0.0,0.0,0.0,0.0,0.0,0.0,0.0,0.0,0.0,0.0,0.0,0.0,0.0,0.0,0.0,0.0,0.0,0.0,0.0,0.0,0.0,0.0,0.0,0.0,0.0,0.0,0.0,0.0,0.0,0.0,0.0,0.0,0.0,0.0,0.0,0.0,0.0,2.1831,2.3414,2.4215,2.4614,0.0,0.0,2.3521,2.3306,2.2492,2.1494,2.0358,0.0,0.0,0.0,0.0,0.0,0.0,0.0,0.0,0.0,0.0,0.0,0.0,0.0,0.0,0.0,0.0,0.0,0.0,0.0,0.0,0.0,0.0,0.0,0.0,0.0,0.0,0.0,0.0,0.0,0.0,0.0,0.0,0.0,0.0,0.0,0.0,0.0,0.0,0.0,0.0,0.0,0.0,0.0,0.0,0.0,0.0,0.0,0.0,0.0,0.0,0.0,0.0,0.0,1.5628,1.7608,2.0298,2.1764,2.2024,2.2479,2.2305,2.1435,2.0632,1.9122,0.0,0.0,0.0,0.0,0.0,0.0,0.0,0.0,0.0,0.0,0.0,0.0,0.0,0.0,0.0,0.0,0.0,0.0,0.0,0.0,0.0,0.0,0.0,0.0,0.0,0.0,0.0,0.0,1.052,1.039,1.0416,0.0,0.0,0.0,0.0,0.0,0.0,0.0,0.0,0.0,0.0,2.1015,2.2628,2.3414,0.0,0.0,2.411,2.3496,2.3157,2.2013,2.0745,1.9589,1.8484,0.0,0.0,0.0,0.0,0.0,0.0,0.0,0.0,0.0,0.0,0.0,0.0,0.0,0.0,0.0,0.0,0.0,0.0,0.0,0.0,0.0,0.0,0.0,0.0,0.0,0.0,0.0,0.0,0.0,0.0,0.0,0.0,0.0,0.0,0.0,0.0,0.0,0.0,0.0,0.0,0.0,0.0,0.0,0.0,0.0,0.0,0.0,0.0,0.0,0.0,0.0,0.0,1.5434,1.7305,2.0046,2.1555,2.1859,2.2417,2.2418,2.1743,2.1234,1.9896,0.0,0.0,0.0,0.0,0.0,0.0,0.0,0.0,0.0,0.0,0.0,0.0,0.0,0.0,0.0,0.0,0.0,0.0,0.0,0.0,0.0,0.0,0.0,0.0,0.0,0.0,0.0,0.0,1.0559,1.0205,0.9797,0.0,0.0,0.0,0.0,0.0,0.0,0.0,0.0,0.0,0.0,2.0527,2.2074,2.3041,2.38,2.448,2.4204,2.3685,2.2857,2.1591,2.0295,1.9068,0.0,0.0,0.0,0.0,0.0,0.0,0.0,0.0,0.0,0.0,0.0,0.0,0.0,0.0,0.0,0.0,0.0,0.0,0.0,0.0,0.0,0.0,0.0,0.0,0.0,0.0,0.0,0.0,0.0,0.0,0.8555,0.0,0.0,0.0,0.0,0.0,0.0,0.0,0.0,0.0,0.0,0.0,0.0,0.0,0.0,0.0,0.0,0.0,0.0,0.0,0.0,0.0,0.0,1.4534,1.6711,1.903,2.0625,2.1483,2.2023,2.224,2.1991,2.1729,2.0592,1.8505,0.0,0.0,0.0,0.0,0.0,0.0,0.0,0.0,0.0,0.0,0.0,0.0,0.0,0.0,0.0,0.0,0.0,0.0,0.0,0.0,0.0,0.0,0.0,0.0,0.0,0.0,1.1224,1.0791,1.0162,0.0,0.0,0.0,0.0,0.0,0.0,0.0,0.0,0.0,0.0,1.8649,2.0498,2.1891,2.3389,2.4235,2.404,2.4416,2.4142,2.2392,2.1294,2.0295,0.0,0.0,0.0,0.0,0.0,0.0,0.0,0.0,0.0,0.0,0.0,0.0,0.0,0.0,0.0,0.0,0.0,0.0,0.0,0.0,0.0,0.0,0.0,0.0,0.0,0.0,0.0,0.9887,0.9775,0.0,0.0,0.0,0.0,0.0,0.0,0.0,0.0,0.0,0.0,0.0,1.424,1.4819,0.0,0.0,0.0,0.0,0.0,0.0,0.0,0.0,0.0,0.0,0.0,0.0,1.4676,1.671,1.9109,2.0597,2.1099,2.1888,2.2162,2.195,2.1892,2.0539,1.7715,0.0,0.0,0.0,0.0,0.0,0.0,0.0,0.0,0.0,0.0,0.0,0.0,0.0,0.0,0.0,0.0,0.0,0.0,0.0,0.0,0.0,0.0,0.0,0.0,0.0,1.0812,0.0,0.0,0.0,0.0,0.0,0.0,0.0,0.0,0.0,0.0,0.0,1.4952,1.6805,1.8686,2.024,2.1276,2.2718,2.3584,0.0,0.0,0.0,0.0,0.0,0.0,0.0,0.0,0.0,0.0,0.0,0.0,0.0,0.0,1.8206,1.7516,1.7124,1.6953,1.6964,0.0,0.0,0.0,0.0,0.0,0.0,0.0,0.0,0.0,0.0,0.0,0.0,0.0,0.0,1.0804,0.0,0.9927,0.0,0.0,0.0,0.0,0.0,0.0,0.0,0.0,1.4957,1.5828,1.6236,1.6949,1.7194,0.0,1.7194,1.6069,0.0,0.0,0.0,0.0,0.0,0.0,0.0,0.0,1.4684,1.6705,1.8993,2.0363,2.0872,2.1565,2.1838,2.1678,2.1352,2.0021,1.7632,1.5744,1.3877,0.0,0.0,0.0,0.0,0.0,0.0,0.0,0.0,0.0,0.0,0.0,0.0,0.0,0.0,0.0,0.0,0.0,0.0,0.0,0.0,0.0,0.0,0.0,1.0736,0.0,0.0,0.0,0.0,0.0,0.0,0.0,0.0,0.0,1.278,1.4034,1.5591,1.726,1.8839,2.0147,2.1122,0.0,0.0,0.0,0.0,0.0,0.0,0.0,2.0361,1.9773,1.9613,1.9682,1.999,2.016,2.0521,2.1157,0.0,0.0,2.0112,1.967,1.9426,1.9397,1.9084,1.8864,1.9027,1.9081,1.9235,0.0,0.0,0.0,0.0,0.0,0.0,0.0,0.0,1.1633,1.152,0.0,1.0683,0.0,0.0,0.0,0.0,0.0,1.1645,0.0,0.0,1.6186,1.741,1.8396,1.8796,1.9044,1.9076,1.8988,1.8544,1.7649,1.4966,0.0,0.0,0.0,0.0,0.0,0.0,1.4557,1.6682,1.856,1.9922,2.0752,2.1071,2.1255,2.1319,2.0245,1.9269,1.8336,1.6745,1.5076,1.3433,1.2011,0.0,0.0,0.0,0.0,0.0,0.0,0.0,0.0,0.0,0.0,0.0,0.0,0.0,0.0,0.0,0.0,0.0,0.0,0.0,0.0,1.0918,0.0,0.0,0.0,0.0,0.0,0.0,0.0,0.0,0.0,0.0,1.3893,1.5008,1.6395,1.7822,0.0,0.0,0.0,0.0,2.2934,2.2934,2.3647,2.3701,2.2258,2.2031,2.1844,2.1283,0.0,0.0,2.2813,2.296,2.3054,2.334,2.3166,2.2893,2.2579,2.2003,2.1574,2.1574,2.1293,2.1136,2.1136,2.107,2.1217,1.3996,0.0,0.0,0.0,0.0,1.2814,1.3324,1.3899,1.3607,1.3446,1.3362,1.2455,0.0,0.0,0.0,0.0,0.0,0.0,1.3757,1.4967,1.6382,1.7192,1.7529,1.8202,1.8438,1.8227,1.8227,1.7894,1.7253,1.651,1.5261,1.3495,0.0,0.0,0.0,0.0,1.5028,1.6948,1.8657,1.9823,2.0437,2.0934,2.1355,2.1645,2.0722,2.0036,1.9592,1.791,1.6314,1.4848,1.3372,0.0,0.0,0.0,0.0,0.0,0.0,0.0,0.0,0.0,0.0,0.0,0.0,0.0,0.0,0.0,0.0,0.0,0.0,0.0,1.2305,1.27,1.2713,0.0,0.0,0.0,0.0,0.0,0.0,0.0,0.0,0.0,1.673,1.6915,1.7475,0.0,0.0,2.0775,2.1756,2.284,2.3549,2.3549,0.0,0.0,0.0,2.3113,2.3228,2.3033,2.3629,2.4222,2.4676,2.4756,2.485,2.5144,2.4957,2.4783,2.4874,2.3616,2.2612,2.2505,2.2245,2.2091,2.2345,2.2385,2.2525,1.576,1.3975,1.3927,1.4052,1.432,1.4765,1.5252,1.5738,1.5441,1.5252,1.5111,1.4166,1.34,1.2776,1.2402,0.0,0.0,0.0,1.4484,1.5309,1.6167,1.6624,1.6677,1.6994,1.7033,1.687,1.6781,1.6668,1.6542,1.6882,1.6561,1.5499,0.0,0.0,1.3695,1.432,1.5508,1.7168,1.8608,1.962,2.0218,2.0719,2.1116,2.1333,2.0626,2.0128,1.9873,1.8329,1.6946,1.5804,1.4258,1.2642,0.0,0.0,0.0,0.0,0.0,0.0,0.0,0.0,0.0,0.0,0.0,0.7827,0.8358,0.0,0.0,0.0,1.088,1.2256,1.3761,1.4247,0.0,0.0,0.0,0.0,0.0,0.0,0.0,1.627,1.7702,1.8798,1.917,1.9305,1.9439,1.976,2.0695,2.1683,2.2599,0.0,2.4115,2.4115,2.4716,2.485,2.3959,2.4182,2.4462,2.4462,2.5021,2.5518,2.5812,2.5865,2.5919,2.6039,2.5931,2.5745,2.5957,2.486,2.395,2.3915,2.3781,2.3754,2.4071,2.4031,2.4062,1.6543,1.5792,1.5985,1.5884,1.5722,1.642,1.6861,1.7049,1.6852,1.6654,1.6456,1.5631,1.4903,1.4304,1.3716,0.0,1.4091,1.4651,1.5198,1.5663,1.5722,1.5775,1.578,1.5374,1.5172,1.5121,1.4896,1.5095,1.5706,1.6348,1.6855,1.7206,1.5659,1.4855,1.4809,1.5104,1.5912,1.7227,1.8426,1.9358,2.0144,2.0492,2.07,2.07,2.0192,1.9793,1.9479,1.8258,1.7165,1.6347,1.4859,1.34,1.2063,0.0,0.0,0.0,0.0,0.0,0.0,0.0,0.0,0.0,0.0,0.0,0.0,0.0,0.0,0.0,1.2199,0.0,1.5053,1.5698,0.0,0.0,0.0,1.4763,1.5591,1.6179,1.7086,1.8464,0.0,0.0,2.1109,0.0,2.1937,2.1416,2.2044,2.2886,2.3817,2.4382,2.4719,2.4759,2.5504,2.5797,2.4986,2.5239,2.5585,2.5598,2.5864,2.6105,2.6293,2.636,2.6373,2.6373,2.6212,2.6038,2.6024,2.5718,2.5546,2.5518,2.5464,2.5545,2.577,2.5636,2.5504,1.6111,1.5262,1.5219,1.552,1.5995,1.6173,1.6487,1.6781,1.6593,1.6478,1.6397,1.5879,1.531,1.4733,1.4115,1.4104,1.4494,1.492,1.4917,1.4619,1.5043,1.4881,1.4175,1.423,1.4053,1.3712,1.3608,1.3698,1.4097,1.4998,1.5639,1.6021,1.6191,1.6389,1.6565,1.6085,1.6145,1.6838,1.779,1.9003,2.048,2.0631,2.07,2.07,2.0192,1.976,1.9503,1.8589,1.7636,1.6646,1.5656,1.4425,1.2894,1.1545,0.0,0.0,0.0,0.0,0.0,0.0,0.0,0.0,0.0,0.9442,1.0171,0.0,1.1471,0.0,1.3802,1.5428,1.6565,1.7569,0.0,0.0,1.7528,1.7609,1.8009,1.8438,1.8973,1.969,2.0842,2.1617,2.1764,2.2733,2.338,2.3447,2.3634,2.4102,2.497,2.5398,2.5732,2.5959,2.6493,2.6827,2.6347,2.6413,2.6453,2.6507,2.6386,2.6359,2.6386,2.64,2.64,2.6386,2.6346,2.6293,2.6279,2.6226,2.6186,2.6146,2.5825,2.5598,2.5931,2.5931,2.5971,1.5222,1.4508,1.4422,1.4592,1.5034,1.5313,1.5584,1.5796,1.5706,1.5576,1.5487,1.5171,1.484,1.4511,1.4212,1.4152,1.4382,1.4622,1.4418,1.3915,1.3843,1.3404,1.2691,1.2397,1.205,1.1691,1.1556,1.171,1.2128,1.3169,1.4008,1.4611,1.5577,1.5987,1.5766,1.5631,1.5671,1.5903,1.7251,1.8654,2.0098,2.0214,2.0155,2.0037,1.9625,1.9236,1.8836,1.8356,1.7691,1.6911,1.6103,1.5052,1.3713,1.2602,1.1448,0.0,0.0,0.0,0.0,0.0,0.0,0.0,0.0,0.0,0.0,0.0,1.3282,1.4194,1.5575,1.6885,1.8018,1.9431,2.0174,1.991,1.9883,2.0003,2.0254,2.0351,2.0646,2.1323,2.2218,2.2873,2.314,2.3848,2.4516,2.4967,2.4863,2.501,2.5585,2.5998,2.6252,2.6386,2.6894,2.7309,2.7201,2.7094,2.6974,2.68,2.668,2.6547,2.6413,2.64,2.64,2.64,2.64,2.64,2.64,2.64,2.64,2.6346,2.6132,2.5985,2.6158,2.6185,2.6252,1.4101,1.3512,1.3399,1.3363,1.3365,1.3957,1.4363,1.4533,1.4533,1.4411,1.4279,1.407,1.3942,1.3927,1.3923,1.3894,1.3872,1.3872,1.3616,1.3167,1.2482,1.19,1.1424,1.0611,1.0106,0.9796,0.9601,0.9772,1.0261,1.1411,1.233,1.3126,1.4336,1.4527,1.3813,1.4319,1.4665,1.48,1.6608,1.8107,1.932,1.9401,1.9288,1.9073,1.8733,1.8325,1.7793,1.7638,1.7416,1.702,1.6284,1.5439,1.4449,1.3652,1.2762,0.0,1.1677,0.0,0.0,0.0,0.0,0.0,0.0,0.0,0.0,1.4099,1.5093,1.6421,1.7285,1.822,1.9322,2.0963,2.1892,2.1718,2.1731,2.1851,2.2111,2.197,2.2117,2.292,2.3509,2.4035,2.4466,2.493,2.5344,2.5797,2.5718,2.5705,2.5998,2.6212,2.6306,2.6386,2.6881,2.7403,2.7657,2.7509,2.7241,2.7001,2.6854,2.6734,2.6493,2.6413,2.64,2.64,2.64,2.64,2.64,2.64,2.64,2.6386,2.636,2.6346,2.6373,2.636,2.64,1.2732,1.1947,1.18,1.1743,1.1758,1.1767,1.2475,1.3631,1.3631,1.3611,1.3576,1.3349,1.3219,1.3122,1.2887,1.2747,1.2668,1.2706,1.2345,1.1738,1.176,1.1384,1.0631,1.0535,1.0259,0.9802,0.9595,0.9666,0.9988,1.0718,1.1395,1.211,1.303,1.3104,1.2437,0.0,0.0,0.0,1.5062,1.6548,1.8517,1.8352,1.8269,1.8365,1.767,0.0,1.6566,1.6483,1.6437,1.6449,1.6105,0.0,0.0,0.0,0.0,0.0,0.0,0.0,0.0,0.0,0.0,0.0,1.5873,1.5654,1.4847,1.5449,1.6393,1.7477,1.8185,1.9015,2.0074,2.1135,2.1855,2.2157,2.2353,2.264,2.299,2.302,2.3166,2.3589,2.3915,2.4249,2.4586,2.5053,2.5558,2.5957,2.6158,2.6239,2.6279,2.6198,2.6185,2.6412,2.6948,2.7496,2.8018,2.7831,2.7562,2.7495,2.7108,2.6827,2.6707,2.652,2.64,2.64,2.64,2.64,2.64,2.64,2.64,2.64,2.64,2.64,2.64,2.64,2.64,1.1943,0.0,1.1434,1.1374,0.0,1.121,1.1595,1.2264,1.2264,1.2228,1.216,1.2051,1.1911,1.1745,1.1482,1.1286,1.1152,1.11,1.0884,1.0593,1.0848,1.0764,1.0389,1.0544,1.0367,1.0014,0.9715,0.9661,0.9722,1.0016,1.0371,1.0761,1.122,1.129,1.0944,1.1039,1.1713,1.2947,1.3893,1.5298,1.7126,1.7001,1.696,1.7186,0.0,0.0,0.0,0.0,0.0,0.0,0.0,0.0,0.0,0.0,0.0,1.3543,1.3734,1.4008,1.437,1.5004,1.5771,1.6815,1.7493,1.7616,1.6919,1.737,1.801,1.8832,1.9562,2.0269,2.0952,2.1915,2.2622,2.2849,2.3274,2.369,2.4014,2.3997,2.4102,2.4342,2.4409,2.4532,2.501,2.5266,2.5692,2.6079,2.6198,2.6239,2.6346,2.6305,2.6319,2.6734,2.7081,2.7456,2.7844,2.7816,2.7562,2.7308,2.6974,2.6747,2.6627,2.648,2.64,2.64,2.64,2.64,2.64,2.64,2.64,2.64,2.64,2.64,2.64,2.64,2.64,1.1499,1.1499,1.1499,1.1444,1.1346,1.1308,1.1253,1.1161,0.0,0.0,0.0,1.0927,1.0786,1.0582,1.0307,1.0123,0.9976,0.9742,0.9709,0.9807,1.0068,1.0248,1.0389,1.0566,1.0465,1.0226,0.9916,0.9699,0.9584,0.9579,0.9633,0.9769,0.9807,0.985,0.9867,1.0078,1.0668,1.1634,1.2746,1.4083,1.5616,1.5439,1.5507,1.577,1.5316,1.4821,1.4342,1.4642,1.491,1.5077,1.474,1.443,1.4224,1.4178,1.4102,1.3991,1.4653,1.5311,1.5903,1.6317,1.6825,1.7517,1.8306,1.8741,1.8768,1.8964,1.9277,1.978,2.0381,2.0894,2.1363,2.2312,2.3104,2.3317,2.3907,2.4403,2.4814,2.4765,2.4765,2.5077,2.489,2.493,2.5491,2.5531,2.5732,2.6213,2.6238,2.6172,2.6386,2.6466,2.6667,2.7242,2.7336,2.7416,2.7615,2.7642,2.7428,2.7054,2.6894,2.6694,2.6533,2.6413,2.64,2.64,2.64,2.64,2.64,2.64,2.64,2.64,2.64,2.64,2.64,2.64,2.64,1.1499,1.1499,1.1499,1.1488,1.1472,1.1472,1.1466,1.1434,1.1194,1.1096,1.1069,1.0965,1.0786,1.0582,1.0307,1.004,0.9813,0.9617,0.9628,0.0,0.9981,1.0166,1.0394,1.0606,1.0585,1.0362,1.0199,1.0063,0.996,0.9905,0.9954,0.9981,1.009,1.0095,0.9964,1.0015,1.0125,1.0313,1.1202,1.2494,1.3993,1.3726,1.3783,1.4181,1.3666,1.318,1.284,1.2899,1.3102,1.3573,1.3549,1.3501,1.3453,1.3553,1.3786,1.4126,1.4533,1.5381,1.6861,1.6931,1.7216,1.7886,1.8578,1.897,1.9038,1.9083,1.9187,1.9371,1.9186,1.9415,2.0441,2.1066,2.1848,2.2877,2.3447,2.4047,2.4765,2.4865,2.5003,2.5361,2.5197,2.5275,2.577,2.5678,2.5772,2.6239,2.636,2.644,2.668,2.676,2.7014,2.7442,2.7415,2.7456,2.7575,2.751,2.7281,2.7269,2.6947,2.6734,2.6707,2.652,2.64,2.64,2.64,2.64,2.64,2.64,2.64,2.64,2.64,2.64,2.64,2.64,2.64,1.1499,1.1499,1.1499,1.1499,1.1499,1.1499,1.1499,1.1494,1.1384,1.1253,1.1237,1.1134,1.0982,1.0742,1.0544,1.0264,0.9986,0.9786,0.9693,0.9807,1.0036,1.0215,1.04,1.0628,1.0641,1.0574,1.0454,1.0408,1.0307,1.0248,1.0221,1.0215,1.0215,1.0144,1.003,1.0019,1.0019,1.0014,1.0641,1.153,1.2695,1.2663,1.2886,1.3332,1.3054,1.2892,1.2719,1.2637,1.2824,1.3212,1.3071,1.3012,1.3091,1.3261,1.3482,1.3747,1.4441,1.5379,1.6674,1.7201,1.7626,1.7936,1.8444,1.8675,1.8482,1.902,1.9264,1.9016,1.8468,1.8509,1.9332,2.0279,2.1229,2.208,2.3303,2.4226,2.4644,2.4972,2.5204,2.5371,2.5338,2.5478,2.5944,2.5972,2.6052,2.636,2.6507,2.6734,2.7014,2.7201,2.7375,2.7615,2.7496,2.7335,2.7469,2.7215,2.6987,2.6867,2.668,2.66,2.6587,2.6453,2.6413,2.64,2.64,2.64,2.64,2.64,2.64,2.64,2.64,2.64,2.64,2.64,2.64,1.1581,1.1536,1.1581,1.1581,1.1536,1.1581,1.157,1.1498,1.1543,1.1472,1.1363,1.133,1.1156,1.0949,1.0732,1.052,1.0307,1.0068,0.9937,1.0014,1.0172,1.0307,1.0478,1.0639,1.0695,1.0684,1.0639,1.0637,1.0585,1.0509,1.0449,1.0416,1.0302,1.0193,1.0106,1.0101,1.0062,1.0101,1.0414,1.0894,1.1572,1.1766,1.2083,1.2605,1.265,1.2655,1.2714,1.2585,1.2584,1.2816,1.2611,1.2499,1.2596,1.2793,1.2955,1.3161,1.3909,1.4875,1.6022,1.7161,1.775,1.7664,1.8154,1.8207,1.7713,1.8222,1.8663,1.8339,1.7753,1.7638,1.8355,1.9561,2.0581,2.1174,2.271,2.3724,2.4056,2.4489,2.4889,2.5061,2.5257,2.5502,2.5895,2.6147,2.6319,2.6493,2.6747,2.7028,2.7321,2.7562,2.7696,2.7722,2.755,2.7336,2.7282,2.6947,2.6667,2.6413,2.6413,2.6413,2.6413,2.64,2.64,2.64,2.64,2.64,2.64,2.64,2.64,2.64,2.64,2.64,2.64,2.64,2.64,1.1781,1.1786,1.1775,1.1786,1.1775,1.1781,1.1716,1.1578,1.1618,1.1547,1.1472,1.1363,1.121,1.1079,1.0949,1.0819,1.0636,1.0443,1.0394,1.0506,1.0405,1.0473,1.0599,1.0683,1.0695,1.0701,1.0684,1.0674,1.0704,1.0699,1.0645,1.0582,1.0468,1.0362,1.0351,1.0346,1.0351,1.0351,1.0391,1.052,1.0697,1.0746,1.1073,1.1796,1.1853,1.1919,1.2223,1.1974,1.1852,1.1765,1.1773,1.1723,1.1794,1.1875,1.2026,1.2245,1.2651,1.3484,1.5037,1.6561,1.7269,1.6993,1.7608,1.76,1.6641,1.6214,1.6441,1.703,1.6726,1.6783,1.7654,1.8633,1.9494,2.0069,2.1022,2.186,2.2498,2.293,2.3491,2.4495,2.4775,2.5212,2.57,2.6016,2.6266,2.6734,2.7041,2.7308,2.7562,2.7696,2.7829,2.7965,2.7684,2.7362,2.7282,2.6841,2.6573,2.6453,2.6413,2.6453,2.6493,2.6466,2.6413,2.656,2.6466,2.648,2.6453,2.64,2.644,2.652,2.6493,2.6426,2.64,2.644,2.6466,1.1819,1.1819,1.1819,1.1819,1.1819,1.1819,1.1748,1.1594,1.1589,1.1569,1.1504,1.1444,1.1395,1.1352,1.1259,1.1166,1.1047,1.0954,1.0895,1.0878,1.0829,1.0835,1.0884,1.0927,1.0916,1.0809,1.0846,1.0766,1.0706,1.0695,1.0677,1.0604,1.0549,1.0495,1.0429,1.0424,1.0424,1.0424,1.0424,1.0535,1.0844,1.111,1.1403,1.1709,1.2174,1.2507,1.2583,1.2447,1.2294,1.2233,1.2189,1.2182,1.2233,1.2332,1.2427,1.2654,1.3212,1.4042,1.5237,1.6241,1.6735,1.655,1.6966,1.6811,1.591,1.5346,1.5388,1.5991,1.6088,1.6251,1.6743,1.8014,1.8903,1.903,1.959,2.0146,2.0445,2.1066,2.1832,2.2803,2.3989,2.4957,2.5558,2.6148,2.6614,2.7028,2.7335,2.7575,2.7696,2.7884,2.8045,2.8098,2.7817,2.7603,2.751,2.7229,2.6974,2.6894,2.6907,2.6907,2.6921,2.6907,2.6948,2.6934,2.6921,2.6921,2.6974,2.6907,2.6907,2.6921,2.6934,2.6948,2.6948,2.6948,2.6948,1.1917,1.1917,1.1917,1.1917,1.1917,1.1917,1.1846,1.1737,1.1732,1.1667,1.1603,1.1603,1.1597,1.1547,1.1532,1.1444,1.1368,1.133,1.127,1.115,1.1118,1.1101,1.1107,1.1101,1.1058,1.0934,1.0933,1.0814,1.0706,1.0695,1.0652,1.0617,1.0648,1.0563,1.0492,1.0481,1.0481,1.0528,1.0563,1.0807,1.1132,1.166,1.1953,1.1925,1.2475,1.2882,1.3003,1.2854,1.2793,1.2786,1.2684,1.2678,1.2786,1.2793,1.2847,1.3022,1.3516,1.4211,1.4985,1.5779,1.6201,1.6179,1.6376,1.6155,1.534,1.4716,1.4614,1.507,1.5723,1.6154,1.6254,1.7424,1.8052,1.7832,1.8166,1.8491,1.8946,1.9667,2.0707,2.1912,2.3672,2.4984,2.5862,2.6609,2.7161,2.7362,2.7629,2.7857,2.7843,2.8045,2.8179,2.8179,2.7991,2.7844,2.7696,2.7415,2.7336,2.7309,2.7255,2.7255,2.7322,2.7349,2.7336,2.7202,2.7336,2.7336,2.7202,2.7242,2.7309,2.7309,2.7309,2.7309,2.7229,2.7282,2.7296,1.2203,1.215,1.2203,1.214,1.2156,1.2192,1.208,1.1949,1.196,1.19,1.1792,1.1792,1.1797,1.1775,1.1614,1.1499,1.1477,1.1384,1.133,1.1303,1.1161,1.1112,1.1107,1.1107,1.1107,1.1085,1.0998,1.0884,1.0717,1.0706,1.0695,1.069,1.069,1.0684,1.0668,1.0663,1.0674,1.0735,1.1067,1.1374,1.1499,1.2245,1.249,1.2325,1.2327,1.2621,1.2936,1.3003,1.2996,1.2996,1.2989,1.2989,1.2996,1.2996,1.3009,1.3016,1.3056,1.3353,1.3999,1.5124,1.5715,1.5532,1.5802,1.5654,1.4826,1.4153,1.3972,1.4322,1.5605,1.6311,1.6257,1.6793,1.7011,1.6671,1.6627,1.7205,1.8367,1.9169,2.052,2.224,2.4007,2.5508,2.6967,2.7454,2.7575,2.7696,2.7965,2.8138,2.8125,2.8165,2.8179,2.8192,2.8138,2.8058,2.7791,2.7643,2.7443,2.7429,2.7496,2.7376,2.7416,2.7469,2.7483,2.7468,2.7642,2.7615,2.7416,2.7336,2.7389,2.7416,2.7443,2.7429,2.7523,2.7376,2.7444,1.2219,1.2219,1.2219,1.2219,1.2219,1.2219,1.2102,1.1993,1.1987,1.1928,1.1835,1.1819,1.1819,1.1813,1.1726,1.1645,1.1569,1.1525,1.1465,1.1439,1.139,1.133,1.1374,1.1374,1.133,1.121,1.1166,1.1085,1.0982,1.0971,1.0971,1.0954,1.0847,1.0851,1.084,1.0733,1.082,1.1153,1.132,1.1653,1.2152,1.2526,1.2806,1.3001,1.2995,1.3077,1.3241,1.3288,1.3241,1.3241,1.3241,1.3247,1.3241,1.3241,1.3241,1.3282,1.3241,1.3466,1.3967,1.4665,1.5057,1.4994,1.5077,1.5014,1.4479,1.3972,1.3837,1.4429,1.5118,1.5666,1.5895,1.6438,1.6615,1.5952,1.5722,1.6097,1.7159,1.8434,2.0086,2.2076,2.4282,2.6271,2.7188,2.7642,2.7696,2.7722,2.7991,2.8152,2.8192,2.8192,2.8192,2.8192,2.8179,2.8152,2.8072,2.7965,2.7884,2.7884,2.7884,2.7884,2.7911,2.803,2.8083,2.7924,2.8045,2.8083,2.7924,2.7777,2.7777,2.7777,2.7791,2.7737,2.7871,2.7792,2.7943,1.2205,1.2219,1.2219,1.2219,1.2219,1.2219,1.217,1.2047,1.2047,1.2004,1.1944,1.1933,1.1933,1.1933,1.1933,1.1868,1.1703,1.1627,1.159,1.1514,1.1521,1.1499,1.1499,1.1499,1.1455,1.1335,1.1286,1.1253,1.1118,1.1107,1.1107,1.1096,1.1014,1.0976,1.0965,1.1021,1.123,1.1524,1.1783,1.2219,1.2756,1.2884,1.3065,1.3355,1.3397,1.3376,1.3336,1.3329,1.3329,1.3336,1.3376,1.3397,1.3397,1.3397,1.3424,1.3464,1.3471,1.3624,1.3958,1.425,1.441,1.441,1.4418,1.4342,1.4147,1.3913,1.3988,1.4371,1.4664,1.4945,1.5148,1.5712,1.5933,1.5345,1.5204,1.5557,1.6557,1.8182,2.0351,2.2912,2.5083,2.6726,2.7634,2.7801,2.7898,2.7884,2.8072,2.8179,2.8192,2.8192,2.8192,2.8192,2.8192,2.8179,2.8138,2.8085,2.8072,2.8072,2.8072,2.8152,2.8259,2.843,2.8497,2.8366,2.8366,2.8444,2.8417,2.8286,2.8205,2.815,2.8112,2.8018,2.8182,2.8307,2.8364,1.2329,1.2225,1.2219,1.2219,1.2219,1.2219,1.2214,1.2209,1.2209,1.2192,1.2176,1.215,1.2181,1.2198,1.2129,1.2138,1.1955,1.177,1.1616,1.1583,1.1581,1.1526,1.1515,1.1521,1.1504,1.1477,1.133,1.1226,1.1139,1.1139,1.1139,1.1166,1.1204,1.123,1.1187,1.1595,1.181,1.1995,1.2537,1.2952,1.3024,1.3248,1.3396,1.3417,1.3417,1.3363,1.322,1.3248,1.322,1.3234,1.3342,1.3403,1.3437,1.3437,1.3485,1.3565,1.3585,1.3653,1.3797,1.3846,1.3875,1.3875,1.386,1.3889,1.3937,1.3996,1.4084,1.4176,1.4271,1.4374,1.4421,1.4695,1.4931,1.4974,1.5026,1.5676,1.6897,1.8392,2.0805,2.4309,2.6176,2.7122,2.7883,2.8138,2.8125,2.8125,2.8165,2.8192,2.8192,2.8192,2.8192,2.8192,2.8192,2.8192,2.8192,2.8179,2.8179,2.8179,2.8165,2.8192,2.8259,2.8377,2.8417,2.8353,2.8511,2.8631,2.8281,2.8108,2.7836,2.7796,2.7952,2.7865,2.7862,2.7888,2.8399,1.2329,1.2225,1.2219,1.2219,1.2219,1.2219,1.2219,1.2219,1.2219,1.2219,1.2219,1.2219,1.2219,1.2219,1.2219,1.2198,1.2148,1.1949,1.1841,1.1764,1.1721,1.1656,1.159,1.158,1.1536,1.151,1.1466,1.1428,1.139,1.1384,1.1522,1.1775,1.1783,1.1917,1.2172,1.2262,1.2429,1.2766,1.2985,1.3219,1.3394,1.3597,1.3612,1.3524,1.3518,1.3532,1.3485,1.339,1.3383,1.3471,1.349,1.36,1.3639,1.3702,1.3687,1.372,1.3734,1.3741,1.3788,1.3808,1.3815,1.3808,1.3808,1.3856,1.398,1.4055,1.4173,1.4211,1.4278,1.4333,1.4441,1.4516,1.4595,1.4634,1.5167,1.5805,1.7087,1.9425,2.2378,2.4992,2.63,2.719,2.7897,2.8163,2.8119,2.819,2.8177,2.8177,2.8205,2.8259,2.8192,2.8192,2.8192,2.8272,2.8326,2.8366,2.8366,2.8312,2.8259,2.8192,2.8259,2.8326,2.8353,2.8404,2.8604,2.8525,2.8175,2.7731,2.7349,2.6868,2.6576,2.67,2.6964,2.7277,2.7534,1.253,1.2373,1.2368,1.2401,1.2433,1.2439,1.2384,1.2314,1.2308,1.2259,1.2236,1.2219,1.2219,1.2219,1.2219,1.2219,1.2161,1.2091,1.202,1.1938,1.1846,1.1775,1.1654,1.1605,1.1574,1.1521,1.1499,1.1499,1.1499,1.1677,1.1899,1.2142,1.2261,1.244,1.2791,1.2886,1.3096,1.3357,1.3484,1.3627,1.3732,1.3781,1.3754,1.368,1.3666,1.3736,1.3777,1.3695,1.3641,1.3605,1.3632,1.3714,1.3788,1.3795,1.3822,1.3919,1.3939,1.3966,1.4025,1.4072,1.4079,1.4113,1.4133,1.4173,1.4299,1.4319,1.4373,1.4441,1.4468,1.4502,1.4584,1.4658,1.4679,1.4685,1.5192,1.611,1.7398,1.9804,2.2257,2.4203,2.5461,2.637,2.7131,2.7645,2.7787,2.7915,2.8129,2.8342,2.8428,2.8497,2.85,2.847,2.8551,2.8564,2.8511,2.8511,2.8497,2.846,2.8366,2.8259,2.8219,2.8286,2.8326,2.8406,2.8524,2.8241,2.793,2.6921,2.63,2.5786,2.5153,2.509,2.5236,2.5786,2.6146,1.2797,1.27,1.2689,1.2727,1.2819,1.283,1.2705,1.2509,1.2472,1.239,1.2274,1.2225,1.2219,1.2219,1.2219,1.2219,1.2219,1.2161,1.2198,1.2138,1.2058,1.1995,1.2048,1.1943,1.1883,1.1788,1.1727,1.1716,1.1827,1.214,1.2277,1.2479,1.2817,1.2976,1.3147,1.3458,1.3596,1.3709,1.3924,1.4075,1.4048,1.3953,1.3829,1.3822,1.3856,1.3973,1.4075,1.4139,1.398,1.3707,1.3835,1.3923,1.3876,1.3849,1.3971,1.4143,1.4159,1.4258,1.4448,1.443,1.4529,1.4586,1.4593,1.4694,1.4626,1.4606,1.4613,1.464,1.4647,1.4719,1.4767,1.4855,1.4936,1.5023,1.5267,1.6193,1.7932,1.941,2.1013,2.2718,2.3953,2.4904,2.5727,2.6309,2.6847,2.7415,2.7838,2.8291,2.8781,2.8841,2.8948,2.8921,2.8828,2.8845,2.8751,2.8751,2.8708,2.8612,2.8376,2.8014,2.7853,2.785,2.7882,2.8007,2.799,2.778,2.72,2.6085,2.5094,2.4324,2.382,2.3457,2.3644,2.4307,2.4916,1.2683,1.2537,1.2531,1.2645,1.2743,1.2754,1.2727,1.2651,1.258,1.2477,1.2367,1.2258,1.2247,1.2225,1.2236,1.2219,1.2247,1.2236,1.2219,1.2261,1.2541,1.2772,1.2957,1.2925,1.279,1.2748,1.2691,1.2806,1.2851,1.2924,1.3156,1.3525,1.3508,1.3739,1.4046,1.4087,1.4129,1.4122,1.4183,1.4183,1.4116,1.4163,1.4122,1.4034,1.4217,1.434,1.4407,1.4509,1.4482,1.4319,1.4376,1.4457,1.4424,1.4424,1.4424,1.4509,1.4543,1.4577,1.4606,1.4633,1.466,1.4681,1.4721,1.4694,1.4694,1.4701,1.4694,1.4694,1.4694,1.4762,1.4896,1.4964,1.5072,1.5248,1.543,1.5967,1.7156,1.8103,1.9354,2.107,2.215,2.3072,2.3975,2.4873,2.5669,2.6506,2.7354,2.8124,2.8671,2.8833,2.8785,2.8911,2.8918,2.8975,2.8961,2.8975,2.8918,2.8791,2.8317,2.7582,2.7258,2.691,2.694,2.6945,2.6788,2.6572,2.5811,2.4821,2.3928,2.2846,2.204,2.1566,2.2391,2.3094,2.3724,1.2819,1.2759,1.2759,1.2825,1.2928,1.2982,1.295,1.2868,1.2791,1.2732,1.264,1.28,1.281,1.2858,1.3106,1.3052,1.2858,1.2808,1.2641,1.2475,1.2774,1.3004,1.3173,1.325,1.3242,1.3044,1.3233,1.3266,1.3312,1.3501,1.3736,1.3938,1.4153,1.4306,1.4413,1.4441,1.4387,1.4387,1.4387,1.4367,1.4367,1.4434,1.4441,1.4387,1.4536,1.4631,1.4706,1.4848,1.4828,1.4626,1.464,1.4694,1.4694,1.4694,1.4694,1.4694,1.4694,1.4714,1.4828,1.4841,1.4869,1.4916,1.493,1.4964,1.5011,1.4978,1.4985,1.508,1.5073,1.512,1.5221,1.5255,1.5459,1.5835,1.5884,1.6248,1.6998,1.7844,1.8878,2.0103,2.1117,2.1949,2.2855,2.3925,2.5136,2.6277,2.7204,2.7972,2.8561,2.851,2.8294,2.8123,2.8092,2.7921,2.7845,2.7845,2.7687,2.7694,2.6758,2.6246,2.5968,2.5511,2.5405,2.5307,2.5364,2.515,2.4288,2.3367,2.2227,2.1195,2.029,2.0162,2.1023,2.1785,2.2379,1.3114,1.3104,1.3104,1.3118,1.3154,1.3325,1.3211,1.3102,1.3102,1.3071,1.3051,1.3433,1.3534,1.3749,1.3992,1.4149,1.3697,1.3436,1.3257,1.3128,1.3245,1.3376,1.3193,1.3401,1.3363,1.314,1.3282,1.3554,1.3782,1.4086,1.4172,1.4382,1.4625,1.4681,1.4658,1.4577,1.4536,1.4536,1.4536,1.4539,1.4638,1.4633,1.462,1.4626,1.4719,1.4835,1.4964,1.5079,1.5045,1.4755,1.4741,1.4814,1.4808,1.4794,1.4801,1.4814,1.4835,1.4882,1.5056,1.5137,1.5224,1.5353,1.5341,1.5343,1.5411,1.5384,1.5432,1.5657,1.5677,1.5808,1.6007,1.6001,1.6354,1.6809,1.6859,1.7179,1.7512,1.8175,1.8951,1.9677,2.0624,2.1534,2.2532,2.3776,2.5252,2.6504,2.7214,2.7529,2.7753,2.7516,2.7079,2.6518,2.6554,2.6614,2.6568,2.6568,2.6352,2.6045,2.464,2.3938,2.3825,2.3563,2.348,2.3473,2.3645,2.3426,2.2822,2.1739,2.0732,2.01,1.9584,1.943,1.961,2.0334,2.0992,1.3015,1.2928,1.2928,1.2999,1.3102,1.3134,1.3169,1.312,1.3049,1.3223,1.3359,1.3447,1.3669,1.4055,1.4287,1.4116,1.4042,1.3706,1.3542,1.406,1.4323,1.4292,1.3958,1.3822,1.378,1.3936,1.4266,1.4588,1.4891,1.4991,1.5241,1.52,1.5033,1.5065,1.4997,1.4794,1.4647,1.4647,1.4647,1.4667,1.4708,1.4735,1.4741,1.4755,1.4889,1.5004,1.5153,1.5167,1.5147,1.5106,1.5092,1.5086,1.5072,1.5072,1.5079,1.5092,1.5092,1.5293,1.5648,1.5762,1.595,1.6281,1.6122,1.5807,1.5955,1.5616,1.5732,1.6084,1.6263,1.6727,1.7604,1.8027,1.8112,1.819,1.866,1.9208,1.9306,1.8801,1.885,1.9215,1.9919,2.0588,2.1656,2.3395,2.4953,2.6515,2.7027,2.7196,2.6857,2.6495,2.5685,2.4951,2.4767,2.4789,2.4835,2.48,2.457,2.425,2.2974,2.1996,2.1894,2.1764,2.1766,2.1872,2.2045,2.1697,2.1234,2.0893,2.0059,1.9483,1.9064,1.9205,1.9385,1.9616,2.0085,1.3082,1.3022,1.2912,1.2928,1.3038,1.3346,1.3469,1.3526,1.3723,1.3929,1.411,1.4283,1.4607,1.4856,1.5105,1.5118,1.4738,1.4236,1.4267,1.4626,1.4791,1.4712,1.4731,1.4366,1.4253,1.4387,1.4891,1.5273,1.5451,1.5546,1.556,1.5587,1.5418,1.5303,1.5201,1.5031,1.4923,1.4855,1.4848,1.4875,1.4936,1.5025,1.5059,1.5107,1.5242,1.533,1.5398,1.5404,1.5398,1.5398,1.5391,1.5357,1.5303,1.5296,1.5323,1.5384,1.5398,1.5636,1.6057,1.681,1.7291,1.7284,1.7236,1.7049,1.6674,1.6097,1.598,1.6621,1.7396,1.8364,2.0056,2.0084,2.0081,2.0077,2.0397,2.0843,2.0977,2.038,1.9915,2.0325,2.1065,2.1669,2.2594,2.3702,2.4804,2.6457,2.6258,2.6293,2.5688,2.5139,2.4075,2.3365,2.31,2.295,2.3007,2.2877,2.2663,2.2248,2.1489,2.0765,2.049,2.028,2.0087,2.0348,2.064,2.0193,1.9763,1.9485,1.9499,1.9017,1.8856,1.9089,1.9368,1.9636,2.031,1.3113,1.3086,1.2982,1.2989,1.3156,1.3705,1.3942,1.4089,1.4545,1.468,1.4914,1.5443,1.5468,1.5812,1.6134,1.6086,1.5615,1.5284,1.5201,1.5321,1.517,1.5182,1.5283,1.5125,1.4793,1.4482,1.5042,1.5473,1.5634,1.5654,1.5715,1.5668,1.5676,1.556,1.535,1.5255,1.5208,1.5133,1.512,1.5153,1.5242,1.5357,1.5418,1.5485,1.5512,1.5526,1.5539,1.5546,1.5566,1.5587,1.5587,1.5581,1.5513,1.5459,1.5541,1.5718,1.5746,1.6111,1.6825,1.78,1.8472,1.8232,1.8448,1.8383,1.7636,1.6942,1.6868,1.789,1.9077,2.1071,2.3072,2.3023,2.2531,2.2329,2.2264,2.2607,2.292,2.2705,2.2886,2.2587,2.2827,2.3234,2.3653,2.442,2.5377,2.6034,2.5722,2.5243,2.4567,2.3687,2.2526,2.1602,2.1233,2.1092,2.1083,2.1196,2.0986,2.0844,2.0126,1.9846,1.9446,1.9381,1.9342,1.9154,1.9187,1.9051,1.9115,1.9197,1.9058,1.8605,1.8709,1.9111,1.9397,1.9721,2.0402,1.3303,1.3159,1.3138,1.3439,1.3848,1.4025,1.4273,1.4538,1.4721,1.4906,1.522,1.5357,1.5677,1.5971,1.6107,1.5924,1.5721,1.5714,1.5907,1.5961,1.5877,1.6068,1.5891,1.5973,1.574,1.5396,1.5485,1.5622,1.5837,1.5934,1.6001,1.5981,1.59,1.5833,1.5723,1.5635,1.554,1.5472,1.5411,1.5479,1.5513,1.5567,1.5622,1.5724,1.5738,1.5731,1.5711,1.5649,1.5587,1.5587,1.5587,1.5689,1.5821,1.5766,1.5884,1.6188,1.6451,1.6901,1.7739,1.8464,1.8968,1.9096,1.9275,1.9092,1.8631,1.8149,1.8576,2.0094,2.2112,2.4146,2.4962,2.5473,2.5335,2.5025,2.508,2.5461,2.5752,2.6084,2.6157,2.5674,2.5276,2.4795,2.5099,2.5115,2.5356,2.5421,2.4789,2.4058,2.3141,2.212,2.087,2.0058,1.9315,1.9217,1.9175,1.9384,1.9409,1.9618,1.9305,1.9344,1.9001,1.8872,1.8761,1.8899,1.8996,1.9143,1.9159,1.9086,1.9078,1.8972,1.9102,1.9183,1.955,1.9867,2.0279,1.4221,1.4209,1.4145,1.4219,1.4527,1.4834,1.506,1.5246,1.5424,1.5662,1.574,1.5768,1.5834,1.6083,1.6133,1.6014,1.6028,1.6162,1.633,1.6408,1.6525,1.6617,1.6484,1.6671,1.6467,1.6192,1.6093,1.5991,1.6123,1.6239,1.6286,1.6293,1.6225,1.6164,1.6069,1.594,1.5832,1.5778,1.5641,1.56,1.5607,1.5703,1.5875,1.6181,1.6293,1.6405,1.665,1.6699,1.6706,1.6706,1.6706,1.6742,1.6707,1.6553,1.6398,1.6734,1.7362,1.8092,1.8996,1.9853,2.0738,2.0565,2.0797,2.1051,2.0931,2.0933,2.1361,2.3385,2.4856,2.7079,2.8629,2.8528,2.8154,2.7714,2.7771,2.7916,2.8211,2.8958,2.8953,2.858,2.7838,2.7157,2.6435,2.6245,2.5588,2.4848,2.3988,2.2987,2.1895,2.0954,1.9936,1.9542,1.9037,1.9021,1.8923,1.8915,1.8915,1.8915,1.8907,1.8899,1.8907,1.8899,1.8972,1.9143,1.9224,1.9265,1.9183,1.9118,1.9224,1.9314,1.9298,1.9331,1.9698,2.0087,2.0434,1.5112,1.5124,1.5014,1.5068,1.5229,1.559,1.5834,1.5936,1.6201,1.6337,1.6334,1.6212,1.6151,1.6171,1.6198,1.6259,1.6395,1.6415,1.652,1.6709,1.675,1.687,1.6944,1.6965,1.6824,1.661,1.6651,1.6588,1.6344,1.6429,1.6497,1.6483,1.6503,1.6476,1.6327,1.6218,1.6083,1.5954,1.5845,1.5722,1.5771,1.5894,1.6243,1.6949,1.7211,1.7642,1.8122,1.8698,1.8797,1.8797,1.8764,1.8582,1.8309,1.7737,1.7404,1.7652,1.8736,1.9469,2.024,2.1465,2.218,2.2009,2.283,2.3085,2.34,2.3639,2.48,2.6887,2.8011,2.9086,3.0646,3.0969,3.0392,3.0007,2.9833,3.0007,3.018,3.069,3.1408,3.0984,3.0243,2.9293,2.8323,2.6606,2.5819,2.4267,2.3351,2.2314,2.1306,2.0618,1.9834,1.952,1.9257,1.9257,1.9175,1.9151,1.9142,1.9118,1.9094,1.9069,1.9143,1.9167,1.9232,1.9265,1.9256,1.9264,1.9175,1.9175,1.9257,1.9322,1.9289,1.9445,1.9635,1.9989,2.0318,1.5161,1.5258,1.5293,1.5502,1.5916,1.6066,1.6263,1.6572,1.6583,1.6567,1.649,1.6354,1.6347,1.6415,1.6442,1.6544,1.6588,1.6621,1.6689,1.6904,1.6931,1.6937,1.6978,1.6978,1.691,1.6815,1.689,1.6768,1.6598,1.6551,1.6544,1.6558,1.6571,1.6524,1.6537,1.6469,1.6402,1.6279,1.6225,1.6144,1.6092,1.6134,1.6446,1.7253,1.8194,1.9224,1.9931,2.0759,2.1446,2.1535,2.1624,2.1281,2.0481,1.9585,1.9251,1.9367,1.9867,2.0482,2.1177,2.2556,2.3483,2.3548,2.3775,2.3966,2.5012,2.5917,2.6883,2.7622,2.9022,3.0403,3.1674,3.1926,3.1634,3.1513,3.1327,3.144,3.1592,3.1728,3.251,3.2623,3.1725,3.0714,2.9737,2.7726,2.5884,2.4228,2.2699,2.1715,2.0873,2.0281,1.9898,1.9633,1.9509,1.9501,1.9329,1.9321,1.9338,1.933,1.9289,1.9257,1.9265,1.9273,1.9289,1.9322,1.9313,1.9321,1.9289,1.9273,1.9306,1.9337,1.9435,1.9467,1.9525,1.985,2.0242,1.6113,1.6288,1.6236,1.6394,1.661,1.661,1.6682,1.6824,1.6736,1.6662,1.6581,1.6446,1.6469,1.6524,1.6517,1.6547,1.6669,1.6702,1.6784,1.6951,1.6978,1.6978,1.6978,1.6978,1.6924,1.691,1.6931,1.6931,1.6802,1.6775,1.6781,1.6775,1.6781,1.6795,1.6768,1.6693,1.6574,1.6473,1.6402,1.6431,1.6606,1.6679,1.7218,1.8598,1.9643,2.0736,2.1894,2.2786,2.3405,2.3405,2.3415,2.3188,2.2351,2.1413,2.0738,2.1846,2.2392,2.2701,2.2891,2.4312,2.4992,2.5389,2.5594,2.6499,2.7791,2.8535,2.9143,3.0064,3.0702,3.1587,3.2419,3.2799,3.2752,3.2631,3.2509,3.2548,3.2637,3.2812,3.3097,3.3187,3.3113,3.2079,3.0814,2.8906,2.6898,2.5001,2.3278,2.1896,2.1069,2.0381,2.0081,1.9867,1.9802,1.9753,1.9532,1.9427,1.9362,1.9379,1.9338,1.9314,1.933,1.9346,1.9387,1.9354,1.9386,1.9362,1.9354,1.9428,1.9467,1.954,1.9613,1.9654,1.9703,1.9859,2.0172,1.679,1.6978,1.6978,1.6978,1.6978,1.6978,1.6978,1.6965,1.6863,1.6757,1.6723,1.6686,1.6625,1.6598,1.6632,1.6727,1.6757,1.6757,1.6876,1.6951,1.6978,1.6978,1.6978,1.6978,1.6978,1.6978,1.6971,1.6992,1.7026,1.7019,1.7012,1.7039,1.7073,1.7087,1.7053,1.6951,1.6784,1.6648,1.6592,1.6752,1.7183,1.7725,1.8896,2.0325,2.1736,2.2978,2.4255,2.5429,2.5872,2.5933,2.6054,2.59,2.5152,2.3972,2.3381,2.4085,2.4683,2.5109,2.5367,2.6212,2.6933,2.7225,2.7666,2.8437,2.9872,3.0703,3.1003,3.1416,3.1908,3.2499,3.3153,3.3404,3.3353,3.3303,3.3343,3.3457,3.3534,3.3487,3.3543,3.3649,3.351,3.3191,3.1782,2.993,2.7996,2.5964,2.4084,2.2208,2.1232,2.0421,2.0255,2.0076,2.0006,1.9949,1.9776,1.9622,1.9516,1.9427,1.9428,1.9444,1.9501,1.9475,1.9508,1.9508,1.9484,1.9451,1.9427,1.9557,1.967,1.9646,1.967,1.9849,1.9946,2.0052,2.0112,1.6842,1.6978,1.6978,1.6978,1.6978,1.6978,1.6978,1.6978,1.6965,1.6951,1.6937,1.6931,1.6836,1.6788,1.6842,1.691,1.6951,1.6958,1.6965,1.6971,1.6978,1.6978,1.6978,1.6978,1.6978,1.6985,1.7005,1.708,1.7161,1.7209,1.7188,1.7188,1.7277,1.7351,1.7317,1.7182,1.6973,1.6858,1.6842,1.7165,1.7945,1.8955,2.0505,2.2168,2.4726,2.6941,2.7512,2.8424,2.9007,2.8945,2.8871,2.8564,2.7525,2.6429,2.587,2.6087,2.6429,2.6971,2.7606,2.7785,2.7956,2.8524,2.91,2.969,3.0579,3.1089,3.1476,3.187,3.2351,3.2882,3.3322,3.3601,3.3561,3.3521,3.3534,3.3654,3.3721,3.3868,3.3886,3.4086,3.3699,3.294,3.1679,2.9644,2.8045,2.6016,2.3705,2.1821,2.1157,2.0523,2.045,2.032,2.0158,2.0128,2.0071,1.9941,1.9727,1.9654,1.9605,1.9646,1.9703,1.9711,1.9711,1.963,1.9597,1.9573,1.954,1.9557,1.9581,1.9622,1.9727,1.9955,2.0125,2.0223,2.0206,1.6924,1.6978,1.6978,1.6978,1.6978,1.6978,1.6978,1.6978,1.6978,1.6978,1.6978,1.6971,1.6951,1.6924,1.6937,1.6978,1.6978,1.6978,1.6978,1.6978,1.6978,1.6978,1.6978,1.6978,1.6978,1.6998,1.7053,1.7121,1.7188,1.7351,1.7406,1.748,1.746,1.7412,1.7378,1.7385,1.721,1.7182,1.7213,1.7454,1.8313,1.9143,2.0651,2.2789,2.4598,2.6627,2.7744,2.9161,2.9723,2.9984,3.0008,2.9662,2.9197,2.8076,2.7671,2.7708,2.788,2.8279,2.9141,2.9422,2.98,2.9762,3.0129,3.0437,3.0815,3.1083,3.1592,3.2085,3.2641,3.3097,3.3357,3.3521,3.3507,3.3467,3.3574,3.3774,3.3884,3.4057,3.3932,3.3924,3.2968,3.201,3.055,2.8996,2.7542,2.5975,2.361,2.1643,2.106,2.0669,2.0604,2.0531,2.0377,2.0275,2.0209,2.0095,1.9922,1.9873,1.9833,1.9857,1.989,1.999,1.9965,1.9817,1.9735,1.9735,1.967,1.9524,1.9557,1.9735,1.9922,2.0125,2.0263,2.0418,2.0393,1.7005,1.7039,1.7051,1.6978,1.6978,1.6978,1.6978,1.6978,1.6978,1.6978,1.6978,1.6978,1.6978,1.6978,1.6978,1.6978,1.6978,1.6978,1.6978,1.6978,1.6978,1.6978,1.6978,1.6978,1.6978,1.7012,1.7121,1.7202,1.729,1.7473,1.7575,1.765,1.7616,1.7582,1.7568,1.7548,1.7514,1.7412,1.7527,1.7697,1.8503,1.9489,2.0633,2.2979,2.5021,2.6767,2.8167,2.9424,3.0223,3.0274,3.0211,3.0095,2.9632,2.9219,2.8946,2.9015,2.9089,2.9118,2.9852,3.0327,3.0721,3.0485,3.062,3.079,3.0972,3.1264,3.2033,3.2449,3.2843,3.3237,3.3614,3.3788,3.3881,3.3935,3.4028,3.4189,3.4166,3.4183,3.3951,3.3732,3.248,3.1036,2.8956,2.7373,2.5599,2.4303,2.2747,2.1325,2.1045,2.0751,2.0759,2.0686,2.0588,2.0426,2.0331,2.019,2.0117,2.0101,2.0052,2.0028,2.0052,2.0101,2.0128,2.0014,1.9906,1.9906,1.9882,1.9825,1.9865,1.9946,2.019,2.0483,2.0621,2.0759,2.0686,1.7105,1.7161,1.7032,1.6978,1.6978,1.6978,1.6978,1.6978,1.6978,1.6978,1.6978,1.6978,1.6978,1.6978,1.6978,1.6978,1.6978,1.6978,1.6978,1.6978,1.6978,1.6978,1.6978,1.6978,1.6978,1.7019,1.7148,1.7297,1.7399,1.7595,1.7724,1.7806,1.784,1.784,1.7895,1.7902,1.7697,1.7507,1.7704,1.8031,1.8578,1.9785,2.107,2.2785,2.5288,2.7114,2.8105,2.9695,3.0461,3.0636,3.0672,3.0681,3.061,3.0415,3.0276,3.0327,3.0175,3.0226,3.0548,3.0395,3.0467,3.073,3.0939,3.1072,3.1289,3.1819,3.2461,3.2788,3.3446,3.3835,3.4135,3.4255,3.4269,3.4295,3.4362,3.4456,3.4406,3.3862,3.3538,3.268,3.1534,3.0063,2.7706,2.559,2.3621,2.2266,2.1316,2.0881,2.0836,2.0869,2.0877,2.0844,2.071,2.0596,2.0442,2.0369,2.0312,2.0296,2.0255,2.019,2.019,2.0231,2.0182,2.0093,2.0052,2.0036,2.0117,2.0182,2.0247,2.0336,2.0637,2.0897,2.1027,2.1019,2.0872,1.7005,1.7046,1.6998,1.6978,1.6978,1.6978,1.6978,1.6978,1.6978,1.6978,1.6978,1.6978,1.6978,1.6978,1.6978,1.6978,1.6978,1.6978,1.6978,1.6985,1.6992,1.6978,1.6985,1.7012,1.6998,1.7053,1.7202,1.7358,1.7365,1.765,1.7785,1.7915,1.7915,1.7915,1.7915,1.7915,1.7785,1.7738,1.7854,1.8088,1.8513,1.936,2.0452,2.1824,2.4656,2.6608,2.7617,2.9434,3.0641,3.0853,3.089,3.0926,3.1022,3.0902,3.089,3.0877,3.0745,3.0865,3.0986,3.0914,3.0851,3.1086,3.1256,3.1566,3.2009,3.2323,3.2712,3.3118,3.3742,3.4015,3.3988,3.4215,3.4295,3.4309,3.4376,3.4509,3.4355,3.3486,3.2721,3.1429,3.0223,2.7547,2.5107,2.4208,2.2577,2.183,2.1148,2.0943,2.0893,2.0893,2.0893,2.0893,2.0844,2.071,2.0612,2.0539,2.045,2.0401,2.0353,2.0288,2.0252,2.0336,2.0296,2.0206,2.0182,2.0166,2.0296,2.0434,2.0649,2.0828,2.0889,2.0978,2.1027,2.0986,2.0934,1.7012,1.7046,1.6998,1.7012,1.7039,1.7005,1.6978,1.6978,1.6978,1.6978,1.6978,1.6978,1.6978,1.6978,1.6978,1.6978,1.6978,1.6978,1.7039,1.7039,1.7053,1.71,1.7134,1.7127,1.7168,1.7202,1.7344,1.7453,1.7473,1.7745,1.7902,1.7915,1.7915,1.7915,1.7915,1.7915,1.7908,1.7908,1.7942,1.8053,1.8307,1.8769,1.945,2.1181,2.3398,2.5686,2.7215,2.8944,3.0817,3.0938,3.1022,3.1083,3.1215,3.1264,3.1276,3.1276,3.1191,3.124,3.1252,3.1107,3.1188,3.1851,3.1814,3.2187,3.2798,3.3142,3.3382,3.3702,3.4002,3.4122,3.4215,3.4442,3.4589,3.4616,3.4502,3.4648,3.4057,3.3214,3.1537,3.0231,2.8381,2.5517,2.3269,2.2507,2.168,2.1409,2.1203,2.1089,2.0975,2.0975,2.0975,2.0958,2.095,2.0877,2.0759,2.071,2.0621,2.0523,2.0458,2.0393,2.0377,2.0409,2.0361,2.0344,2.0344,2.0393,2.0523,2.0714,2.082,2.0853,2.0807,2.0897,2.1048,2.104,2.0991,1.706,1.7154,1.7092,1.7053,1.7141,1.7032,1.6978,1.6978,1.6978,1.6978,1.6978,1.6978,1.6978,1.6978,1.6978,1.6978,1.6992,1.6992,1.7073,1.7154,1.7182,1.727,1.7338,1.7365,1.7331,1.7426,1.748,1.7548,1.7602,1.7785,1.7915,1.7915,1.7915,1.7915,1.7915,1.7915,1.7915,1.7942,1.799,1.8025,1.8109,1.8108,1.8844,2.0466,2.2865,2.5093,2.7079,2.9418,3.1029,3.1602,3.1674,3.1722,3.1771,3.1795,3.1807,3.1722,3.1505,3.1469,3.1409,3.1228,3.1782,3.2449,3.2735,3.3046,3.3407,3.379,3.3968,3.4164,3.4389,3.4563,3.4723,3.495,3.5177,3.4967,3.474,3.4388,3.3771,3.2441,3.0564,2.8801,2.6909,2.4716,2.3073,2.2004,2.1603,2.149,2.1431,2.13,2.1203,2.1146,2.1129,2.1064,2.1048,2.0999,2.095,2.0872,2.0791,2.0694,2.058,2.0523,2.0499,2.0466,2.0401,2.0409,2.0507,2.058,2.0621,2.0726,2.0864,2.088,2.0913,2.0913,2.1097,2.1154,2.117,1.7005,1.7085,1.6998,1.7005,1.7032,1.6998,1.6978,1.6978,1.6978,1.6978,1.6978,1.6978,1.6978,1.6978,1.6978,1.6978,1.7019,1.7126,1.7141,1.7222,1.7317,1.7378,1.7419,1.7446,1.7426,1.748,1.7514,1.7615,1.7629,1.7799,1.7915,1.7915,1.7915,1.7915,1.7915,1.7915,1.7915,1.7936,1.799,1.7928,1.7874,1.788,1.8549,2.0138,2.2791,2.4912,2.6778,2.9652,3.1205,3.1566,3.1541,3.1578,3.1807,3.1807,3.1807,3.1807,3.1722,3.1686,3.1727,3.1985,3.248,3.314,3.3521,3.3863,3.4121,3.4208,3.4389,3.4536,3.467,3.4803,3.4831,3.5031,3.5152,3.5058,3.4478,3.3484,3.2731,3.1038,2.9102,2.6942,2.504,2.4038,2.2469,2.2202,2.1847,2.1733,2.1667,2.149,2.1352,2.1349,2.1276,2.1211,2.1227,2.1203,2.1083,2.1051,2.0954,2.091,2.0759,2.0669,2.0629,2.0572,2.0466,2.0491,2.0629,2.0645,2.0621,2.0791,2.1035,2.11,2.1132,2.1092,2.1083,2.1227,2.1252,1.6978,1.6978,1.6978,1.6978,1.6978,1.6978,1.6978,1.6978,1.6978,1.6978,1.6978,1.6978,1.6978,1.6978,1.6985,1.7012,1.708,1.7148,1.7243,1.7372,1.7406,1.7548,1.7575,1.7582,1.7616,1.7636,1.7663,1.7751,1.7751,1.7792,1.7915,1.7915,1.7915,1.7915,1.7915,1.7915,1.7915,1.7942,1.7976,1.7997,1.7914,1.7907,1.8641,2.005,2.2861,2.4944,2.6612,2.9725,3.1408,3.1831,3.1855,3.1928,3.2121,3.2133,3.2349,3.239,3.2388,3.2512,3.2689,3.2832,3.3245,3.3723,3.4134,3.4386,3.4595,3.4698,3.4736,3.479,3.487,3.4963,3.4912,3.4913,3.4966,3.5014,3.3755,3.2495,3.096,2.9342,2.726,2.5028,2.3688,2.2789,2.2164,2.2139,2.2099,2.1993,2.1904,2.1814,2.1628,2.1457,2.1376,2.1303,2.1352,2.1384,2.1311,2.123,2.1165,2.1075,2.0978,2.0889,2.0807,2.0742,2.0686,2.071,2.0775,2.0807,2.0856,2.1035,2.1238,2.1287,2.1311,2.1278,2.127,2.1335,2.1382,1.6978,1.6978,1.6978,1.6978,1.6978,1.6978,1.6978,1.6978,1.6978,1.6978,1.6978,1.6978,1.6978,1.6978,1.6978,1.706,1.7141,1.7222,1.7378,1.7588,1.7595,1.7711,1.7779,1.7902,1.7834,1.7881,1.7902,1.7874,1.7902,1.7915,1.7915,1.7915,1.7915,1.7915,1.7915,1.7915,1.7922,1.7936,1.7997,1.7996,1.8057,1.8327,1.8902,2.0349,2.3031,2.574,2.7536,2.992,3.2422,3.2398,3.2471,3.2398,3.2386,3.2537,3.2821,3.2989,3.2928,3.3135,3.3327,3.348,3.3827,3.4133,3.4425,3.4808,3.5099,3.5057,3.499,3.499,3.507,3.5084,3.5071,3.457,3.4364,3.3676,3.2489,3.0863,2.908,2.7383,2.5486,2.3739,2.3168,2.2383,2.2326,2.2302,2.2221,2.218,2.2115,2.2042,2.1896,2.1668,2.1595,2.1514,2.1611,2.1644,2.1528,2.1408,2.1376,2.1303,2.1173,2.1083,2.0978,2.0937,2.0975,2.0929,2.0945,2.1092,2.1197,2.1319,2.1392,2.1433,2.1449,2.1449,2.1481,2.1546,2.1465,1.6978,1.6978,1.6978,1.6978,1.6978,1.6978,1.6978,1.6978,1.6978,1.6978,1.6978,1.6978,1.6978,1.6978,1.6998,1.708,1.7195,1.7338,1.748,1.7643,1.7745,1.7792,1.7908,1.7915,1.7915,1.7915,1.7915,1.7915,1.7915,1.7915,1.7915,1.7915,1.7915,1.7915,1.7915,1.7915,1.7922,1.7922,1.7956,1.7997,1.801,1.8108,1.8635,2.0084,2.2396,2.4449,2.641,2.8912,3.0535,3.1212,3.1773,3.1922,3.1988,3.2376,3.2644,3.2834,3.3249,3.3544,3.3798,3.4025,3.4383,3.4713,3.5005,3.5471,3.5591,3.5364,3.5231,3.5231,3.5178,3.5191,3.4914,3.4286,3.3446,3.2295,3.1061,2.9146,2.7249,2.5463,2.3607,2.3098,2.2637,2.2522,2.2522,2.2432,2.2359,2.2277,2.2204,2.2131,2.2034,2.1879,2.1896,2.1855,2.1953,2.1936,2.1717,2.1602,2.1506,2.1392,2.1254,2.1189,2.1086,2.1083,2.1089,2.1067,2.107,2.1254,2.1376,2.1473,2.1538,2.1555,2.1644,2.166,2.1749,2.1831,2.1676,1.6978,1.6978,1.6978,1.6978,1.6978,1.6978,1.6978,1.6978,1.6978,1.6978,1.6978,1.6978,1.6978,1.7005,1.7039,1.7154,1.7297,1.7399,1.7609,1.7745,1.7799,1.7895,1.7915,1.7915,1.7915,1.7915,1.7915,1.7915,1.7915,1.7915,1.7915,1.7915,1.7915,1.7915,1.7915,1.7915,1.7915,1.7915,1.7915,1.7915,1.7915,1.8033,1.8309,1.968,2.1148,2.3056,2.5007,2.739,2.9189,3.0393,3.1177,3.1938,3.2176,3.2484,3.2885,3.3311,3.3736,3.3988,3.4186,3.4436,3.4766,3.5043,3.5429,3.5818,3.5939,3.5698,3.5685,3.5631,3.5257,3.5216,3.4345,3.3651,3.2101,3.0785,2.913,2.7277,2.5627,2.4001,2.304,2.2752,2.2522,2.2522,2.2464,2.2464,2.2407,2.2399,2.2326,2.2302,2.2196,2.2099,2.2123,2.2131,2.218,2.2099,2.1863,2.1701,2.1659,2.1473,2.1343,2.1295,2.1262,2.1189,2.114,2.1254,2.1343,2.14,2.1569,2.1636,2.1691,2.1691,2.1766,2.1896,2.1993,2.2058,2.1904,1.6978,1.6978,1.6978,1.6978,1.6978,1.6978,1.6978,1.6978,1.6978,1.6978,1.6992,1.7005,1.7005,1.7053,1.7127,1.729,1.7385,1.7494,1.7711,1.7812,1.7908,1.7915,1.7915,1.7915,1.7915,1.7915,1.7915,1.7915,1.7915,1.7915,1.7915,1.7915,1.7915,1.7915,1.7915,1.7915,1.7915,1.7915,1.7915,1.7915,1.7915,1.797,1.8364,1.9184,2.0333,2.1869,2.3892,2.6078,2.8306,2.9592,3.0793,3.1462,3.2012,3.2185,3.2751,3.3192,3.3513,3.3874,3.4367,3.4469,3.4787,3.512,3.5574,3.5638,3.5597,3.5582,3.5556,3.538,3.5,3.4516,3.3646,3.2354,3.0786,2.8939,2.7114,2.5619,2.4151,2.2867,2.2695,2.2464,2.2464,2.2464,2.2464,2.2464,2.2464,2.2464,2.2464,2.2464,2.2432,2.2342,2.231,2.2277,2.2269,2.2147,2.1985,2.1888,2.1782,2.1659,2.149,2.1433,2.1447,2.1406,2.1447,2.1538,2.1611,2.1636,2.1717,2.1839,2.1806,2.1838,2.1969,2.2139,2.2139,2.2172,2.2099,1.6978,1.6978,1.6978,1.6978,1.6978,1.6978,1.6978,1.6978,1.6978,1.6978,1.7019,1.7107,1.7154,1.7154,1.7168,1.7317,1.7507,1.7595,1.7738,1.7902,1.7915,1.7915,1.7915,1.7915,1.7915,1.7915,1.7915,1.7915,1.7915,1.7915,1.7915,1.7915,1.7915,1.7915,1.7915,1.7915,1.7915,1.7915,1.7922,1.7922,1.7936,1.8095,1.8585,1.935,2.023,2.2346,2.4568,2.6818,2.842,2.9623,3.0368,3.0849,3.1099,3.1293,3.1717,3.2007,3.2398,3.2627,3.288,3.3021,3.3107,3.3291,3.3451,3.3629,3.3623,3.3721,3.3752,3.3758,3.3451,3.3279,3.239,3.0765,2.9058,2.6806,2.4843,2.4011,2.2909,2.2637,2.2522,2.2464,2.2464,2.2464,2.2464,2.2464,2.2464,2.2464,2.2464,2.2464,2.2464,2.2464,2.2464,2.2415,2.2359,2.2285,2.2172,2.2107,2.1993,2.1798,2.1636,2.1595,2.1563,2.1618,2.1691,2.1758,2.1831,2.1855,2.1953,2.2017,2.2074,2.2147,2.2318,2.2383,2.2359,2.2359,2.235]},{"header":{"parameterUnit":"m.s-1","parameterCategory":1,"la1":31.0,"la2":29.5877,"lo1":-88.7671,"lo2":-86.6584,"dy":0.0162,"dx":0.0185,"nx":115,"ny":88,"refTime":"2026-04-03T12:00:00:Z","depth":0,"parameterNumber":3,"parameterNumberName":"V-component_of_WINDS"},"data":[0.0,0.0,0.0,0.0,0.0,0.0,0.0,0.0,0.0,0.0,0.0,0.0,0.0,0.0,0.0,0.0,0.0,0.0,0.0,0.0,0.0,0.0,0.0,0.0,0.0,0.0,0.0,0.0,0.0,0.0,0.0,0.0,0.0,0.0,0.0,0.0,0.0,0.0,0.0,0.0,0.0,0.0,0.0,0.0,0.0,0.0,0.0,0.0,0.0,0.0,0.0,0.0,0.0,0.0,0.0,0.0,0.0,0.0,0.0,0.0,0.0,0.0,0.0,0.0,0.0,0.0,0.0,0.0,0.0,0.0,0.0,0.0,0.0,0.0,0.0,0.0,0.0,0.0,0.0,0.0,0.0,0.0,0.0,0.0,0.0,0.0,0.0,0.0,0.0,0.0,0.0,0.0,0.0,0.0,0.0,0.0,0.0,0.0,0.0,0.0,0.0,0.0,0.0,0.0,0.0,0.0,0.0,0.0,0.0,0.0,0.0,0.0,0.0,0.0,0.0,0.0,0.0,0.0,0.0,0.0,0.0,0.0,0.0,0.0,0.0,0.0,0.0,0.0,0.0,0.0,0.0,0.0,0.0,0.0,0.0,0.0,0.0,0.0,0.0,0.0,0.0,0.0,0.0,0.0,0.0,0.0,0.0,0.0,0.0,0.0,0.0,0.0,0.0,0.0,0.0,0.0,0.0,0.0,0.0,0.0,0.0,0.0,0.0,0.0,0.0,0.0,0.0,0.0,0.0,0.0,0.0,0.0,0.0,0.0,0.0,0.0,0.0,0.0,0.0,0.0,0.0,0.0,0.0,0.0,0.0,0.0,0.0,0.0,0.0,0.0,0.0,0.0,0.0,0.0,0.0,0.0,0.0,0.0,0.0,0.0,0.0,0.0,0.0,0.0,0.0,0.0,0.0,0.0,0.0,0.0,0.0,0.0,0.0,0.0,0.0,0.0,0.0,0.0,0.0,0.0,0.0,0.0,0.0,0.0,0.0,0.0,0.0,0.0,0.0,0.0,0.0,0.0,0.0,0.0,0.0,0.0,0.0,0.0,0.0,0.0,0.0,0.0,0.0,0.0,0.0,0.0,0.0,0.0,0.0,0.0,0.0,0.0,0.0,0.0,0.0,0.0,0.0,0.0,0.0,0.0,0.0,0.0,0.0,0.0,0.0,0.0,0.0,0.0,0.0,0.0,0.0,0.0,0.0,0.0,0.0,0.0,0.0,0.0,0.0,0.0,0.0,0.0,0.0,0.0,0.0,0.0,0.0,0.0,0.0,0.0,0.0,0.0,0.0,0.0,0.0,0.0,0.0,0.0,0.0,0.0,0.0,0.0,0.0,0.0,0.0,0.0,0.0,0.0,0.0,0.0,0.0,0.0,0.0,0.0,0.0,0.0,0.0,0.0,0.0,0.0,0.0,0.0,0.0,0.0,0.0,0.0,0.0,0.0,0.0,0.0,0.0,0.0,0.0,0.0,0.0,0.0,0.0,0.0,0.0,0.0,0.0,0.0,0.0,0.0,0.0,0.0,0.0,0.0,0.0,0.0,0.0,0.0,0.0,0.0,0.0,0.0,0.0,0.0,0.0,0.0,0.0,0.0,0.0,0.0,0.0,0.0,0.0,0.0,0.0,0.0,0.0,0.0,0.0,0.0,0.0,0.0,0.0,0.0,0.0,0.0,0.0,0.0,0.0,0.0,0.0,0.0,0.0,0.0,0.0,0.0,0.0,0.0,0.0,0.0,0.0,0.0,0.0,0.0,0.0,0.0,0.0,0.0,0.0,0.0,0.0,0.0,0.0,0.0,0.0,0.0,0.0,0.0,0.0,0.0,0.0,0.0,0.0,0.0,0.0,0.0,0.0,0.0,0.0,0.0,0.0,0.0,0.0,0.0,0.0,0.0,0.0,0.0,0.0,0.0,0.0,0.0,0.0,0.0,0.0,0.0,0.0,0.0,0.0,0.0,0.0,0.0,0.0,0.0,0.0,0.0,0.0,0.0,0.0,0.0,0.0,0.0,0.0,0.0,0.0,0.0,0.0,0.0,0.0,0.0,0.0,0.0,0.0,0.0,0.0,0.0,0.0,0.0,0.0,0.0,0.0,0.0,0.0,0.0,0.0,0.0,0.0,0.0,0.0,0.0,0.0,0.0,0.0,0.0,0.0,0.0,0.0,0.0,0.0,0.0,0.0,0.0,0.0,0.0,0.0,0.0,0.0,0.0,0.0,0.0,0.0,0.0,0.0,0.0,0.0,0.0,0.0,0.0,0.0,0.0,0.0,0.0,0.0,0.0,0.0,0.0,0.0,0.0,0.0,0.0,0.0,0.0,0.0,0.0,0.0,0.0,0.0,0.0,0.0,0.0,0.0,0.0,0.0,0.0,0.0,0.0,0.0,0.0,0.0,0.0,0.0,0.0,0.0,0.0,0.0,0.0,0.0,0.0,0.0,0.0,0.0,0.0,0.0,0.0,0.0,0.0,0.0,0.0,0.0,0.0,0.0,0.0,0.0,0.0,0.0,0.0,0.0,0.0,0.0,0.0,0.0,0.0,0.0,0.0,0.0,0.0,0.0,0.0,0.0,0.0,0.0,0.0,0.0,0.0,0.0,0.0,0.0,0.0,0.0,0.0,0.0,0.0,0.0,0.0,0.0,0.0,0.0,0.0,0.0,0.0,0.0,0.0,0.0,0.0,0.0,0.0,0.0,0.0,0.0,0.0,0.0,0.0,0.0,0.0,0.0,0.0,0.0,0.0,0.0,0.0,0.0,0.0,0.0,0.0,0.0,0.0,0.0,0.0,0.0,0.0,0.0,0.0,0.0,0.0,0.0,0.0,0.0,0.0,0.0,0.0,0.0,0.0,0.0,0.0,0.0,0.0,0.0,0.0,0.0,0.0,0.0,0.0,0.0,0.0,0.0,0.0,0.0,0.0,0.0,0.0,0.0,0.0,0.0,0.0,0.0,0.0,0.0,0.0,0.0,0.0,0.0,0.0,0.0,0.0,0.0,0.0,0.0,0.0,0.0,0.0,0.0,0.0,0.0,0.0,0.0,0.0,0.0,0.0,0.0,0.0,0.0,0.0,0.0,0.0,0.0,0.0,0.0,0.0,0.0,0.0,0.0,0.0,0.0,0.0,0.0,0.0,0.0,0.0,0.0,0.0,0.0,0.0,0.0,0.0,0.0,0.0,0.0,0.0,0.0,0.0,0.0,0.0,0.0,0.0,0.0,0.0,0.0,0.0,0.0,0.0,0.0,0.0,0.0,0.0,0.0,0.0,0.0,0.0,0.0,0.0,0.0,0.0,0.0,0.0,0.0,0.0,0.0,0.0,0.0,0.0,0.0,0.0,0.0,0.0,0.0,0.0,0.0,0.0,0.0,0.0,0.0,0.0,0.0,0.0,0.0,0.0,0.0,0.0,0.0,0.0,0.0,0.0,0.0,0.0,0.0,0.0,0.0,0.0,0.0,0.0,0.0,0.0,0.0,0.0,0.0,0.0,0.0,0.0,0.0,0.0,0.0,0.0,0.0,0.0,0.0,0.0,0.0,0.0,0.0,0.0,0.0,0.0,0.0,0.0,0.0,0.0,0.0,0.0,0.0,0.0,0.0,0.0,0.0,0.0,0.0,0.0,0.0,0.0,0.0,0.0,0.0,0.0,0.0,0.0,0.0,0.0,0.0,0.0,0.0,0.0,0.0,0.0,0.0,0.0,0.0,0.0,0.0,0.0,0.0,0.0,0.0,0.0,0.0,0.0,0.0,0.0,0.0,0.0,0.0,0.0,0.0,0.0,0.0,0.0,0.0,0.0,0.0,0.0,0.0,0.0,0.0,0.0,0.0,0.0,0.0,0.0,0.0,0.0,0.0,0.0,0.0,0.0,0.0,0.0,0.0,0.0,0.0,0.0,0.0,0.0,0.0,0.0,0.0,0.0,0.0,0.0,0.0,0.0,0.0,0.0,0.0,0.0,0.0,0.0,0.0,0.0,0.0,0.0,0.0,0.0,0.0,0.0,0.0,0.0,0.0,0.0,0.0,0.0,0.0,0.0,0.0,0.0,0.0,0.0,0.0,0.0,0.0,0.0,0.0,0.0,0.0,0.0,0.0,0.0,0.0,0.0,0.0,0.0,0.0,0.0,0.0,0.0,0.0,0.0,0.0,0.0,0.0,0.0,0.0,0.0,0.0,0.0,0.0,0.0,0.0,0.0,0.0,0.0,0.0,0.0,0.0,0.0,0.0,0.0,0.0,0.0,0.0,0.0,0.0,0.0,0.0,0.0,2.3442,0.0,0.0,0.0,0.0,0.0,0.0,0.0,0.0,0.0,0.0,0.0,0.0,0.0,0.0,0.0,0.0,0.0,0.0,0.0,0.0,0.0,0.0,0.0,0.0,0.0,0.0,0.0,0.0,0.0,0.0,0.0,0.0,0.0,0.0,0.0,0.0,0.0,0.0,0.0,0.0,0.0,0.0,0.0,0.0,0.0,0.0,0.0,0.0,0.0,0.0,0.0,0.0,0.0,0.0,0.0,0.0,0.0,0.0,0.0,0.0,0.0,0.0,0.0,0.0,0.0,0.0,0.0,0.0,0.0,0.0,0.0,0.0,0.0,0.0,0.0,0.0,0.0,0.0,0.0,0.0,0.0,0.0,0.0,0.0,0.0,0.0,0.0,0.0,0.0,0.0,0.0,0.0,0.0,0.0,0.0,0.0,0.0,0.0,0.0,0.0,0.0,0.0,0.0,0.0,0.0,0.0,0.0,0.0,0.0,0.0,2.6239,2.6248,2.6161,2.5414,2.3943,0.0,0.0,0.0,0.0,0.0,0.0,0.0,0.0,0.0,0.0,0.0,0.0,0.0,0.0,0.0,0.0,0.0,0.0,0.0,0.0,0.0,0.0,0.0,0.0,0.0,0.0,0.0,0.0,0.0,0.0,0.0,0.0,0.0,0.0,0.0,0.0,0.0,0.0,0.0,0.0,0.0,0.0,0.0,0.0,0.0,0.0,0.0,0.0,0.0,0.0,0.0,0.0,0.0,0.0,0.0,0.0,0.0,0.0,0.0,0.0,0.0,0.0,0.0,0.0,0.0,0.0,0.0,0.0,0.0,0.0,0.0,0.0,0.0,0.0,0.0,0.0,0.0,0.0,0.0,0.0,0.0,0.0,0.0,0.0,0.0,0.0,0.0,0.0,0.0,0.0,0.0,0.0,0.0,0.0,0.0,0.0,0.0,0.0,0.0,0.0,0.0,0.0,0.0,0.0,0.0,0.0,0.0,0.0,0.0,0.0,0.0,0.0,2.6737,2.6025,2.4559,0.0,0.0,0.0,0.0,0.0,0.0,0.0,0.0,0.0,0.0,0.0,0.0,0.0,0.0,0.0,0.0,0.0,0.0,0.0,0.0,0.0,0.0,0.0,0.0,0.0,0.0,0.0,0.0,0.0,0.0,0.0,0.0,0.0,0.0,0.0,0.0,0.0,0.0,0.0,0.0,0.0,0.0,0.0,0.0,0.0,0.0,0.0,0.0,0.0,0.0,0.0,0.0,0.0,0.0,0.0,0.0,0.0,0.0,0.0,0.0,0.0,0.0,0.0,0.0,0.0,0.0,0.0,0.0,0.0,0.0,0.0,0.0,0.0,0.0,0.0,0.0,0.0,0.0,0.0,0.0,0.0,0.0,0.0,0.0,0.0,0.0,0.0,0.0,0.0,0.0,0.0,0.0,0.0,0.0,0.0,0.0,0.0,0.0,0.0,0.0,0.0,0.0,0.0,0.0,0.0,0.0,0.0,0.0,0.0,0.0,2.7492,2.7492,2.7483,0.0,2.5437,0.0,0.0,0.0,0.0,0.0,0.0,0.0,0.0,0.0,0.0,0.0,0.0,0.0,0.0,0.0,0.0,0.0,0.0,0.0,0.0,0.0,0.0,0.0,0.0,0.0,0.0,0.0,0.0,0.0,0.0,0.0,0.0,0.0,0.0,0.0,0.0,0.0,0.0,0.0,0.0,0.0,0.0,0.0,0.0,0.0,0.0,0.0,0.0,0.0,0.0,0.0,0.0,0.0,0.0,0.0,0.0,0.0,0.0,0.0,0.0,0.0,0.0,0.0,0.0,0.0,0.0,0.0,0.0,0.0,0.0,0.0,0.0,0.0,0.0,0.0,0.0,0.0,0.0,0.0,0.0,0.0,0.0,0.0,0.0,0.0,0.0,0.0,0.0,0.0,0.0,0.0,0.0,0.0,0.0,0.0,0.0,0.0,0.0,0.0,0.0,0.0,0.0,0.0,0.0,0.0,0.0,0.0,0.0,0.0,0.0,2.7938,2.8428,2.7542,2.6607,0.0,0.0,0.0,0.0,0.0,0.0,0.0,0.0,0.0,0.0,0.0,0.0,0.0,0.0,0.0,0.0,0.0,0.0,0.0,0.0,0.0,0.0,0.0,0.0,0.0,0.0,0.0,0.0,0.0,0.0,0.0,0.0,0.0,0.0,0.0,0.0,0.0,0.0,0.0,0.0,0.0,0.0,0.0,0.0,0.0,0.0,0.0,0.0,0.0,0.0,0.0,0.0,0.0,0.0,0.0,0.0,0.0,0.0,0.0,0.0,0.0,0.0,0.0,0.0,0.0,0.0,0.0,0.0,0.0,0.0,0.0,0.0,0.0,0.0,0.0,0.0,0.0,0.0,0.0,0.0,0.0,0.0,0.0,0.0,0.0,0.0,0.0,0.0,0.0,0.0,0.0,0.0,0.0,0.0,0.0,0.0,0.0,0.0,0.0,0.0,0.0,0.0,0.0,0.0,0.0,0.0,0.0,0.0,0.0,0.0,2.7046,2.8094,2.8552,2.741,2.626,2.5338,0.0,0.0,0.0,0.0,0.0,0.0,0.0,0.0,0.0,0.0,0.0,0.0,0.0,0.0,0.0,0.0,0.0,0.0,0.0,0.0,0.0,0.0,0.0,0.0,0.0,0.0,0.0,0.0,0.0,0.0,0.0,0.0,0.0,0.0,0.0,0.0,0.0,0.0,0.0,0.0,0.0,0.0,0.0,0.0,0.0,0.0,0.0,0.0,0.0,0.0,0.0,0.0,0.0,0.0,0.0,0.0,0.0,0.0,0.0,0.0,0.0,0.0,0.0,0.0,0.0,0.0,0.0,0.0,0.0,0.0,0.0,0.0,0.0,0.0,0.0,0.0,0.0,0.0,0.0,0.0,0.0,0.0,0.0,0.0,0.0,0.0,0.0,0.0,0.0,0.0,0.0,0.0,0.0,0.0,0.0,0.0,0.0,0.0,0.0,0.0,0.0,0.0,0.0,0.0,0.0,0.0,0.0,0.0,0.0,2.7012,2.7824,2.7824,2.7089,2.6023,0.0,0.0,0.0,0.0,0.0,0.0,0.0,0.0,0.0,0.0,0.0,0.0,0.0,0.0,0.0,0.0,0.0,0.0,0.0,0.0,0.0,0.0,0.0,0.0,0.0,0.0,0.0,0.0,0.0,0.0,0.0,0.0,0.0,0.0,0.0,0.0,0.0,0.0,0.0,0.0,0.0,0.0,0.0,0.0,0.0,0.0,0.0,0.0,0.0,0.0,0.0,0.0,0.0,0.0,0.0,0.0,0.0,0.0,0.0,0.0,0.0,0.0,0.0,0.0,0.0,0.0,0.0,0.0,0.0,0.0,0.0,0.0,0.0,0.0,0.0,0.0,0.0,0.0,0.0,0.0,0.0,0.0,0.0,0.0,0.0,0.0,0.0,0.0,0.0,0.0,0.0,0.0,0.0,0.0,0.0,0.0,0.0,0.0,0.0,0.0,0.0,0.0,0.0,0.0,0.0,0.0,0.0,0.0,0.0,2.4323,2.6074,2.7089,2.7063,2.6378,2.5549,0.0,0.0,0.0,0.0,0.0,0.0,0.0,0.0,0.0,0.0,0.0,0.0,0.0,0.0,0.0,0.0,0.0,0.0,0.0,0.0,0.0,0.0,0.0,0.0,0.0,0.0,0.0,0.0,0.0,0.0,0.0,0.0,0.0,0.0,0.0,0.0,0.0,0.0,0.0,0.0,0.0,0.0,0.0,0.0,0.0,0.0,0.0,0.0,0.0,0.0,0.0,0.0,0.0,0.0,0.0,0.0,0.0,0.0,0.0,0.0,0.0,0.0,0.0,0.0,0.0,0.0,0.0,0.0,0.0,0.0,0.0,0.0,0.0,0.0,0.0,0.0,0.0,0.0,0.0,0.0,0.0,0.0,0.0,0.0,0.0,0.0,0.0,0.0,0.0,0.0,0.0,0.0,0.0,0.0,0.0,0.0,0.0,0.0,0.0,0.0,0.0,0.0,0.0,0.0,0.0,0.0,0.0,0.0,0.0,2.4898,0.0,2.7571,0.0,2.6353,2.5515,0.0,0.0,0.0,0.0,0.0,0.0,0.0,0.0,0.0,0.0,0.0,0.0,0.0,0.0,0.0,0.0,0.0,0.0,0.0,0.0,0.0,0.0,0.0,0.0,0.0,0.0,0.0,0.0,0.0,0.0,0.0,0.0,0.0,0.0,0.0,0.0,0.0,0.0,0.0,0.0,0.0,0.0,0.0,0.0,0.0,0.0,0.0,0.0,0.0,0.0,0.0,0.0,0.0,0.0,0.0,0.0,0.0,0.0,0.0,0.0,0.0,0.0,0.0,0.0,0.0,0.0,0.0,0.0,0.0,0.0,0.0,0.0,0.0,0.0,0.0,0.0,0.0,0.0,0.0,0.0,0.0,0.0,0.0,0.0,0.0,0.0,0.0,0.0,0.0,0.0,0.0,0.0,0.0,0.0,0.0,0.0,0.0,0.0,0.0,0.0,0.0,0.0,0.0,0.0,0.0,0.0,0.0,0.0,2.7063,2.7756,2.9219,2.9219,2.7858,2.7029,2.5955,0.0,0.0,0.0,0.0,0.0,0.0,0.0,0.0,0.0,0.0,0.0,0.0,0.0,0.0,0.0,0.0,0.0,0.0,0.0,0.0,0.0,0.0,0.0,0.0,0.0,0.0,0.0,0.0,0.0,0.0,0.0,0.0,0.0,0.0,0.0,0.0,0.0,0.0,0.0,0.0,0.0,0.0,0.0,0.0,0.0,0.0,0.0,0.0,0.0,0.0,0.0,0.0,0.0,0.0,0.0,0.0,0.0,0.0,0.0,0.0,0.0,0.0,0.0,0.0,0.0,0.0,0.0,0.0,0.0,0.0,0.0,0.0,0.0,0.0,0.0,0.0,0.0,0.0,0.0,0.0,0.0,0.0,0.0,0.0,0.0,0.0,0.0,0.0,0.0,0.0,0.0,0.0,0.0,0.0,0.0,0.0,0.0,0.0,0.0,0.0,0.0,0.0,0.0,0.0,0.0,0.0,0.0,0.0,0.0,2.7858,2.8822,2.8856,2.7824,2.6581,2.5473,0.0,0.0,0.0,0.0,0.0,0.0,0.0,0.0,0.0,0.0,0.0,0.0,0.0,0.0,0.0,0.0,0.0,0.0,0.0,0.0,0.0,0.0,0.0,0.0,0.0,0.0,0.0,0.0,0.0,0.0,0.0,0.0,0.0,0.0,0.0,0.0,0.0,0.0,0.0,0.0,0.0,0.0,0.0,0.0,0.0,0.0,0.0,0.0,0.0,0.0,0.0,0.0,0.0,0.0,0.0,0.0,0.0,0.0,0.0,0.0,0.0,0.0,0.0,0.0,0.0,0.0,0.0,0.0,0.0,0.0,0.0,0.0,0.0,0.0,0.0,0.0,0.0,0.0,0.0,0.0,0.0,0.0,0.0,0.0,0.0,0.0,0.0,0.0,0.0,0.0,0.0,0.0,0.0,0.0,0.0,0.0,0.0,0.0,0.0,0.0,0.0,0.0,0.0,0.0,0.0,0.0,0.0,0.0,0.0,3.2546,3.2452,3.1724,3.0345,2.861,2.7063,2.5744,0.0,0.0,0.0,0.0,0.0,0.0,0.0,0.0,0.0,0.0,0.0,0.0,0.0,0.0,0.0,0.0,0.0,0.0,0.0,0.0,0.0,0.0,0.0,0.0,0.0,0.0,0.0,0.0,0.0,0.0,0.0,0.0,0.0,0.0,0.0,0.0,0.0,0.0,0.0,0.0,0.0,0.0,0.0,0.0,0.0,0.0,0.0,0.0,0.0,0.0,0.0,0.0,0.0,0.0,0.0,0.0,0.0,0.0,0.0,0.0,0.0,0.0,0.0,0.0,0.0,0.0,0.0,0.0,0.0,0.0,0.0,0.0,0.0,0.0,0.0,0.0,0.0,0.0,0.0,0.0,0.0,0.0,0.0,0.0,0.0,0.0,0.0,0.0,0.0,0.0,0.0,0.0,0.0,0.0,0.0,0.0,0.0,0.0,0.0,0.0,0.0,0.0,0.0,0.0,0.0,0.0,0.0,0.0,4.0744,3.9561,3.7614,3.4877,3.2621,3.0345,0.0,0.0,0.0,0.0,0.0,0.0,0.0,0.0,0.0,0.0,0.0,0.0,0.0,0.0,0.0,0.0,0.0,0.0,0.0,0.0,0.0,0.0,0.0,0.0,0.0,0.0,0.0,0.0,0.0,0.0,0.0,0.0,0.0,0.0,0.0,0.0,0.0,0.0,0.0,0.0,0.0,0.0,0.0,0.0,0.0,0.0,0.0,0.0,0.0,0.0,0.0,0.0,0.0,0.0,0.0,0.0,0.0,0.0,0.0,0.0,0.0,0.0,0.0,0.0,0.0,0.0,0.0,0.0,0.0,0.0,0.0,0.0,0.0,0.0,0.0,0.0,0.0,0.0,0.0,0.0,0.0,0.0,0.0,0.0,0.0,0.0,0.0,0.0,0.0,0.0,0.0,0.0,0.0,0.0,0.0,0.0,0.0,0.0,0.0,0.0,0.0,0.0,0.0,0.0,0.0,0.0,0.0,0.0,0.0,4.3385,4.6776,4.5438,3.9088,3.5994,3.2895,0.0,0.0,0.0,0.0,0.0,0.0,0.0,0.0,0.0,0.0,0.0,0.0,0.0,0.0,0.0,0.0,0.0,0.0,0.0,0.0,0.0,0.0,0.0,0.0,0.0,0.0,0.0,0.0,0.0,0.0,0.0,0.0,0.0,0.0,0.0,0.0,0.0,0.0,0.0,0.0,0.0,0.0,0.0,0.0,0.0,0.0,0.0,0.0,0.0,0.0,0.0,0.0,0.0,0.0,0.0,0.0,0.0,0.0,0.0,0.0,0.0,0.0,0.0,0.0,0.0,0.0,0.0,0.0,0.0,0.0,0.0,0.0,0.0,0.0,0.0,0.0,0.0,0.0,0.0,0.0,0.0,0.0,0.0,0.0,0.0,0.0,0.0,0.0,0.0,0.0,0.0,0.0,0.0,0.0,0.0,0.0,0.0,0.0,0.0,0.0,0.0,0.0,0.0,0.0,0.0,0.0,0.0,0.0,4.2332,4.6624,5.1674,5.144,4.5562,4.0878,3.6524,0.0,0.0,0.0,0.0,0.0,0.0,0.0,0.0,0.0,0.0,0.0,0.0,0.0,0.0,0.0,0.0,0.0,0.0,0.0,0.0,0.0,0.0,0.0,0.0,0.0,0.0,0.0,0.0,0.0,0.0,0.0,0.0,0.0,0.0,0.0,0.0,0.0,0.0,0.0,0.0,0.0,0.0,0.0,0.0,0.0,0.0,0.0,0.0,0.0,0.0,0.0,0.0,0.0,0.0,0.0,0.0,0.0,0.0,0.0,0.0,0.0,0.0,0.0,0.0,0.0,0.0,0.0,0.0,0.0,0.0,0.0,0.0,0.0,0.0,0.0,0.0,0.0,0.0,0.0,0.0,0.0,0.0,0.0,0.0,0.0,0.0,0.0,0.0,0.0,0.0,0.0,0.0,0.0,0.0,0.0,0.0,0.0,0.0,0.0,0.0,0.0,0.0,0.0,0.0,0.0,0.0,0.0,0.0,4.4881,5.0066,5.4909,5.5893,5.2602,4.6293,4.0696,0.0,0.0,0.0,0.0,0.0,0.0,0.0,0.0,0.0,0.0,0.0,0.0,0.0,0.0,0.0,0.0,0.0,0.0,0.0,0.0,0.0,0.0,0.0,0.0,0.0,0.0,0.0,0.0,0.0,0.0,0.0,0.0,0.0,0.0,0.0,0.0,0.0,0.0,0.0,0.0,0.0,0.0,0.0,0.0,0.0,0.0,0.0,0.0,0.0,0.0,0.0,0.0,0.0,0.0,0.0,0.0,0.0,0.0,0.0,0.0,0.0,0.0,0.0,0.0,0.0,0.0,0.0,0.0,0.0,0.0,0.0,0.0,0.0,0.0,0.0,0.0,0.0,0.0,0.0,0.0,0.0,0.0,0.0,0.0,0.0,0.0,0.0,0.0,0.0,0.0,0.0,0.0,0.0,0.0,0.0,0.0,0.0,0.0,0.0,0.0,0.0,0.0,0.0,0.0,0.0,0.0,0.0,0.0,4.8317,5.2979,5.6877,5.755,5.4863,4.9561,4.4045,0.0,0.0,0.0,0.0,0.0,0.0,0.0,0.0,0.0,0.0,0.0,0.0,0.0,0.0,0.0,0.0,0.0,0.0,0.0,0.0,0.0,0.0,0.0,0.0,0.0,0.0,0.0,0.0,0.0,0.0,0.0,0.0,0.0,0.0,0.0,0.0,0.0,0.0,0.0,0.0,0.0,0.0,0.0,0.0,0.0,0.0,0.0,0.0,2.8536,0.0,0.0,0.0,0.0,0.0,0.0,0.0,0.0,0.0,0.0,0.0,0.0,0.0,0.0,0.0,0.0,0.0,0.0,0.0,0.0,0.0,0.0,0.0,0.0,0.0,0.0,0.0,0.0,0.0,0.0,0.0,0.0,0.0,0.0,0.0,0.0,0.0,0.0,0.0,0.0,0.0,0.0,0.0,0.0,0.0,0.0,0.0,0.0,0.0,0.0,0.0,0.0,0.0,0.0,0.0,0.0,0.0,0.0,0.0,5.0694,5.4919,5.8148,5.8945,5.7071,5.3143,4.7638,0.0,0.0,0.0,0.0,0.0,0.0,0.0,0.0,0.0,0.0,0.0,0.0,0.0,0.0,0.0,0.0,0.0,0.0,0.0,0.0,0.0,0.0,0.0,0.0,0.0,0.0,0.0,0.0,0.0,0.0,0.0,0.0,0.0,0.0,0.0,0.0,0.0,0.0,0.0,0.0,0.0,0.0,0.0,0.0,0.0,0.0,0.0,0.0,0.0,0.0,0.0,0.0,0.0,0.0,0.0,0.0,0.0,0.0,0.0,0.0,0.0,0.0,0.0,0.0,0.0,0.0,0.0,0.0,0.0,0.0,0.0,0.0,0.0,0.0,0.0,0.0,0.0,0.0,0.0,0.0,0.0,0.0,0.0,0.0,0.0,0.0,0.0,0.0,0.0,0.0,0.0,0.0,0.0,0.0,0.0,0.0,0.0,0.0,0.0,0.0,0.0,0.0,0.0,0.0,0.0,0.0,0.0,4.7741,5.2512,5.6212,5.8921,5.9732,5.8443,5.5632,5.033,4.2339,0.0,0.0,0.0,0.0,0.0,0.0,0.0,0.0,0.0,0.0,0.0,0.0,0.0,0.0,0.0,0.0,0.0,0.0,0.0,0.0,0.0,0.0,0.0,0.0,0.0,0.0,0.0,0.0,0.0,0.0,0.0,0.0,0.0,0.0,0.0,0.0,0.0,0.0,2.6843,2.8561,0.0,0.0,0.0,0.0,0.0,0.0,0.0,0.0,3.0746,0.0,0.0,0.0,0.0,0.0,0.0,0.0,0.0,0.0,0.0,0.0,0.0,0.0,0.0,0.0,0.0,0.0,0.0,0.0,0.0,0.0,0.0,0.0,0.0,0.0,0.0,0.0,0.0,0.0,0.0,0.0,0.0,0.0,0.0,0.0,0.0,0.0,0.0,0.0,0.0,0.0,0.0,0.0,0.0,0.0,0.0,0.0,0.0,0.0,0.0,0.0,0.0,0.0,0.0,0.0,0.0,4.3787,4.957,5.4043,5.7279,5.9,5.8823,5.6521,5.3828,4.9508,4.3404,0.0,0.0,0.0,0.0,0.0,0.0,0.0,0.0,0.0,0.0,0.0,0.0,0.0,0.0,0.0,0.0,0.0,0.0,0.0,0.0,0.0,0.0,0.0,0.0,0.0,0.0,0.0,0.0,0.0,0.0,0.0,0.0,0.0,0.0,0.0,0.0,0.0,0.0,0.0,3.0963,3.2171,0.0,0.0,0.0,0.0,0.0,0.0,0.0,0.0,3.2404,0.0,0.0,0.0,0.0,0.0,0.0,0.0,0.0,0.0,0.0,0.0,0.0,0.0,0.0,0.0,0.0,0.0,0.0,0.0,0.0,0.0,0.0,0.0,0.0,0.0,0.0,0.0,0.0,0.0,0.0,0.0,0.0,0.0,0.0,0.0,0.0,0.0,0.0,0.0,0.0,0.0,0.0,0.0,0.0,0.0,0.0,0.0,0.0,0.0,0.0,0.0,0.0,0.0,0.0,0.0,4.5625,5.1402,5.566,5.8322,5.9505,5.8945,5.6428,5.2731,4.8037,0.0,0.0,0.0,0.0,0.0,0.0,0.0,0.0,0.0,0.0,0.0,0.0,0.0,0.0,0.0,0.0,0.0,0.0,0.0,0.0,0.0,0.0,0.0,0.0,0.0,0.0,0.0,0.0,0.0,0.0,0.0,0.0,0.0,0.0,0.0,0.0,0.0,0.0,0.0,0.0,3.2936,3.4427,3.4144,0.0,0.0,0.0,0.0,0.0,0.0,3.4755,3.3859,0.0,0.0,0.0,0.0,0.0,0.0,0.0,0.0,0.0,0.0,0.0,0.0,0.0,0.0,0.0,0.0,0.0,0.0,0.0,0.0,0.0,0.0,0.0,0.0,0.0,0.0,0.0,0.0,0.0,0.0,0.0,0.0,0.0,0.0,0.0,0.0,0.0,0.0,0.0,0.0,0.0,0.0,0.0,0.0,0.0,0.0,0.0,0.0,0.0,0.0,0.0,0.0,0.0,0.0,0.0,4.7232,5.2968,5.6932,5.9123,5.9967,5.9171,5.659,5.2024,4.6855,0.0,0.0,0.0,0.0,0.0,0.0,0.0,0.0,0.0,0.0,0.0,0.0,0.0,0.0,0.0,0.0,0.0,0.0,0.0,0.0,0.0,0.0,0.0,0.0,0.0,0.0,0.0,0.0,0.0,0.0,0.0,0.0,0.0,0.0,0.0,0.0,0.0,0.0,0.0,0.0,0.0,3.6853,3.7453,3.6514,0.0,0.0,0.0,0.0,3.718,3.7226,0.0,0.0,0.0,0.0,0.0,0.0,0.0,0.0,0.0,0.0,0.0,0.0,0.0,0.0,0.0,0.0,0.0,0.0,0.0,0.0,0.0,0.0,0.0,0.0,0.0,0.0,0.0,0.0,0.0,0.0,0.0,0.0,0.0,0.0,0.0,0.0,0.0,0.0,0.0,0.0,0.0,0.0,0.0,0.0,0.0,0.0,0.0,0.0,0.0,0.0,0.0,0.0,0.0,0.0,0.0,0.0,4.8049,5.3765,5.7471,5.9123,5.9967,5.8914,5.5805,5.1693,4.6809,0.0,0.0,0.0,0.0,0.0,0.0,0.0,0.0,0.0,0.0,0.0,0.0,0.0,0.0,0.0,0.0,0.0,0.0,0.0,0.0,0.0,0.0,0.0,0.0,0.0,0.0,0.0,0.0,0.0,0.0,0.0,0.0,0.0,0.0,0.0,0.0,0.0,0.0,0.0,0.0,0.0,4.0175,4.0075,3.9965,3.992,0.0,0.0,3.9893,4.1183,4.1603,0.0,0.0,0.0,0.0,0.0,0.0,0.0,0.0,0.0,0.0,0.0,0.0,0.0,0.0,0.0,0.0,0.0,0.0,0.0,0.0,0.0,0.0,0.0,0.0,0.0,0.0,0.0,0.0,0.0,0.0,0.0,0.0,0.0,0.0,0.0,0.0,0.0,0.0,0.0,0.0,0.0,0.0,0.0,0.0,0.0,0.0,0.0,0.0,0.0,0.0,0.0,0.0,0.0,0.0,0.0,4.1295,4.7599,5.4106,5.8022,5.9184,6.0407,5.9318,5.5658,5.1657,4.658,0.0,0.0,0.0,0.0,0.0,0.0,0.0,0.0,0.0,0.0,0.0,0.0,0.0,0.0,0.0,0.0,0.0,0.0,0.0,0.0,0.0,0.0,0.0,0.0,0.0,0.0,0.0,0.0,0.0,0.0,0.0,0.0,0.0,0.0,0.0,0.0,0.0,0.0,0.0,0.0,0.0,0.0,4.3941,4.3425,0.0,0.0,0.0,4.3524,4.5604,0.0,0.0,0.0,0.0,0.0,0.0,0.0,0.0,0.0,0.0,0.0,0.0,0.0,0.0,0.0,0.0,0.0,0.0,0.0,0.0,0.0,0.0,0.0,0.0,0.0,0.0,0.0,0.0,0.0,0.0,0.0,0.0,0.0,0.0,0.0,0.0,0.0,0.0,0.0,0.0,0.0,0.0,0.0,0.0,0.0,0.0,0.0,0.0,0.0,0.0,0.0,0.0,0.0,0.0,0.0,0.0,0.0,4.7369,5.4399,5.8474,5.949,6.086,5.988,5.6282,5.2454,0.0,0.0,0.0,0.0,0.0,0.0,0.0,0.0,0.0,0.0,0.0,0.0,0.0,0.0,0.0,0.0,0.0,0.0,0.0,0.0,0.0,0.0,0.0,0.0,0.0,0.0,0.0,1.8752,0.0,0.0,0.0,0.0,0.0,0.0,0.0,0.0,0.0,0.0,0.0,0.0,0.0,0.0,4.4976,4.7611,4.7391,4.7544,0.0,0.0,4.7673,4.9831,5.0318,4.9243,0.0,0.0,0.0,0.0,0.0,0.0,0.0,0.0,0.0,0.0,0.0,0.0,0.0,0.0,0.0,0.0,0.0,0.0,0.0,0.0,0.0,0.0,0.0,0.0,0.0,0.0,0.0,0.0,0.0,0.0,0.0,0.0,0.0,0.0,0.0,0.0,0.0,0.0,0.0,0.0,0.0,0.0,0.0,0.0,0.0,0.0,0.0,0.0,0.0,0.0,0.0,0.0,0.0,0.0,0.0,4.8186,5.4656,5.8767,6.026,6.1153,6.0394,5.7886,5.4656,4.9881,0.0,0.0,0.0,0.0,0.0,0.0,0.0,0.0,0.0,0.0,0.0,0.0,0.0,0.0,0.0,0.0,0.0,0.0,0.0,0.0,0.0,0.0,0.0,0.0,0.0,0.0,0.0,0.0,0.0,0.0,0.0,0.0,0.0,0.0,0.0,0.0,0.0,0.0,0.0,0.0,0.0,4.8604,5.0715,5.2152,5.3087,0.0,0.0,5.2597,5.3759,5.3555,5.1812,4.7671,0.0,0.0,0.0,0.0,0.0,0.0,0.0,0.0,0.0,0.0,0.0,0.0,0.0,0.0,0.0,0.0,0.0,0.0,0.0,0.0,0.0,0.0,0.0,0.0,0.0,0.0,0.0,0.0,0.0,0.0,0.0,0.0,0.0,0.0,0.0,0.0,0.0,0.0,0.0,0.0,0.0,0.0,0.0,0.0,0.0,0.0,0.0,0.0,0.0,0.0,0.0,0.0,0.0,4.2865,4.8296,5.5673,5.9795,6.0407,6.1655,6.1178,5.8792,5.659,5.236,0.0,0.0,0.0,0.0,0.0,0.0,0.0,0.0,0.0,0.0,0.0,0.0,0.0,0.0,0.0,0.0,0.0,0.0,0.0,0.0,0.0,0.0,0.0,0.0,0.0,0.0,0.0,0.0,2.151,2.2093,2.3327,0.0,0.0,0.0,0.0,0.0,0.0,0.0,0.0,0.0,0.0,5.1207,5.3879,5.5582,0.0,0.0,5.7408,5.6987,5.6957,5.6152,5.413,4.9969,4.5321,0.0,0.0,0.0,0.0,0.0,0.0,0.0,0.0,0.0,0.0,0.0,0.0,0.0,0.0,0.0,0.0,0.0,0.0,0.0,0.0,0.0,0.0,0.0,0.0,0.0,0.0,0.0,0.0,0.0,0.0,0.0,0.0,0.0,0.0,0.0,0.0,0.0,0.0,0.0,0.0,0.0,0.0,0.0,0.0,0.0,0.0,0.0,0.0,0.0,0.0,0.0,0.0,4.306,4.8364,5.593,6.0037,6.0467,6.201,6.1802,5.9636,5.8242,5.4572,0.0,0.0,0.0,0.0,0.0,0.0,0.0,0.0,0.0,0.0,0.0,0.0,0.0,0.0,0.0,0.0,0.0,0.0,0.0,0.0,0.0,0.0,0.0,0.0,0.0,0.0,0.0,0.0,2.3305,2.3505,2.3763,0.0,0.0,0.0,0.0,0.0,0.0,0.0,0.0,0.0,0.0,5.3041,5.6128,5.8308,5.994,6.0972,6.0956,6.0321,5.8967,5.7652,5.5383,5.1255,0.0,0.0,0.0,0.0,0.0,0.0,0.0,0.0,0.0,0.0,0.0,0.0,0.0,0.0,0.0,0.0,0.0,0.0,0.0,0.0,0.0,0.0,0.0,0.0,0.0,0.0,0.0,0.0,0.0,0.0,2.965,0.0,0.0,0.0,0.0,0.0,0.0,0.0,0.0,0.0,0.0,0.0,0.0,0.0,0.0,0.0,0.0,0.0,0.0,0.0,0.0,0.0,0.0,4.2134,4.8532,5.5169,5.9164,6.056,6.2192,6.2156,6.0419,5.96,5.648,5.0755,0.0,0.0,0.0,0.0,0.0,0.0,0.0,0.0,0.0,0.0,0.0,0.0,0.0,0.0,0.0,0.0,0.0,0.0,0.0,0.0,0.0,0.0,0.0,0.0,0.0,0.0,2.566,2.5972,2.5511,0.0,0.0,0.0,0.0,0.0,0.0,0.0,0.0,0.0,0.0,4.8741,5.4015,5.7121,6.0143,6.2119,6.2321,6.2887,6.2281,5.9396,5.7721,5.5383,0.0,0.0,0.0,0.0,0.0,0.0,0.0,0.0,0.0,0.0,0.0,0.0,0.0,0.0,0.0,0.0,0.0,0.0,0.0,0.0,0.0,0.0,0.0,0.0,0.0,0.0,0.0,3.6659,3.6244,0.0,0.0,0.0,0.0,0.0,0.0,0.0,0.0,0.0,0.0,0.0,4.4906,4.5951,0.0,0.0,0.0,0.0,0.0,0.0,0.0,0.0,0.0,0.0,0.0,0.0,4.2622,4.8615,5.5596,5.9711,6.0736,6.224,6.2475,6.1347,6.0455,5.6334,4.859,0.0,0.0,0.0,0.0,0.0,0.0,0.0,0.0,0.0,0.0,0.0,0.0,0.0,0.0,0.0,0.0,0.0,0.0,0.0,0.0,0.0,0.0,0.0,0.0,0.0,2.6428,0.0,0.0,0.0,0.0,0.0,0.0,0.0,0.0,0.0,0.0,0.0,3.9991,4.5096,5.0481,5.4862,5.7478,6.1067,6.3288,0.0,0.0,0.0,0.0,0.0,0.0,0.0,0.0,0.0,0.0,0.0,0.0,0.0,0.0,4.8533,4.608,4.4975,4.4455,4.4409,0.0,0.0,0.0,0.0,0.0,0.0,0.0,0.0,0.0,0.0,0.0,0.0,0.0,0.0,4.1871,0.0,3.8385,0.0,0.0,0.0,0.0,0.0,0.0,0.0,0.0,4.8733,5.0876,5.169,5.2652,5.2819,0.0,5.2819,4.9364,0.0,0.0,0.0,0.0,0.0,0.0,0.0,0.0,4.3569,4.9565,5.6255,6.0204,6.1269,6.2518,6.2754,6.1858,6.0192,5.6147,4.9533,4.4152,3.9053,0.0,0.0,0.0,0.0,0.0,0.0,0.0,0.0,0.0,0.0,0.0,0.0,0.0,0.0,0.0,0.0,0.0,0.0,0.0,0.0,0.0,0.0,0.0,2.8013,0.0,0.0,0.0,0.0,0.0,0.0,0.0,0.0,0.0,3.5172,3.8623,4.2837,4.7342,5.1673,5.5354,5.8033,0.0,0.0,0.0,0.0,0.0,0.0,0.0,5.5941,5.4326,5.3885,5.3985,5.4829,5.539,5.6381,5.8228,0.0,0.0,5.4243,5.2698,5.1956,5.1966,5.0874,4.9872,4.981,4.9789,5.019,0.0,0.0,0.0,0.0,0.0,0.0,0.0,0.0,4.6657,4.6203,0.0,4.2748,0.0,0.0,0.0,0.0,0.0,4.1726,0.0,0.0,5.3993,5.6724,5.8791,5.8828,5.883,5.882,5.8766,5.7391,5.4519,4.6232,0.0,0.0,0.0,0.0,0.0,0.0,4.4886,5.1342,5.7016,6.0639,6.2134,6.2974,6.2954,6.2024,5.9006,5.6161,5.3632,4.8891,4.4096,3.929,3.5194,0.0,0.0,0.0,0.0,0.0,0.0,0.0,0.0,0.0,0.0,0.0,0.0,0.0,0.0,0.0,0.0,0.0,0.0,0.0,0.0,2.9947,0.0,0.0,0.0,0.0,0.0,0.0,0.0,0.0,0.0,0.0,3.83,4.1303,4.5121,4.905,0.0,0.0,0.0,0.0,6.2903,6.2903,6.4971,6.5118,6.1153,6.0529,6.0015,5.8474,0.0,0.0,6.2572,6.2976,6.3233,6.4127,6.3649,6.2793,6.2034,6.0248,5.9074,5.9074,5.8304,5.807,5.807,5.7595,5.7999,5.6133,0.0,0.0,0.0,0.0,5.1395,5.3563,5.5875,5.47,5.4056,5.3594,4.9955,0.0,0.0,0.0,0.0,0.0,0.0,5.0787,5.4546,5.8329,6.0454,6.113,6.2196,6.2371,6.1781,6.1781,6.0169,5.7099,5.3895,4.8679,4.1534,0.0,0.0,0.0,0.0,4.6252,5.2159,5.7313,6.0672,6.232,6.302,6.325,6.2862,6.0288,5.8293,5.7,5.2291,4.7718,4.343,3.9394,0.0,0.0,0.0,0.0,0.0,0.0,0.0,0.0,0.0,0.0,0.0,0.0,0.0,0.0,0.0,0.0,0.0,0.0,0.0,3.3807,3.4952,3.4988,0.0,0.0,0.0,0.0,0.0,0.0,0.0,0.0,0.0,4.6122,4.6553,4.8012,0.0,0.0,5.7079,5.9673,6.2646,6.4591,6.4591,0.0,0.0,0.0,6.3503,6.371,6.3282,6.4811,6.6549,6.7797,6.8017,6.8274,6.9082,6.8568,6.8091,6.8224,6.4774,6.2022,6.1728,6.1117,6.0798,6.1288,6.1398,6.1887,6.471,5.8069,5.6512,5.636,5.73,5.9081,6.1174,6.3267,6.1932,6.1174,6.0605,5.6815,5.3745,5.1244,4.9284,0.0,0.0,0.0,5.613,5.9064,6.2231,6.3848,6.4197,6.5124,6.5275,6.4793,6.4453,6.3029,6.0676,5.9365,5.5797,4.9915,0.0,0.0,4.2865,4.5331,4.9093,5.414,5.8683,6.164,6.2925,6.3297,6.3454,6.3299,6.1311,5.983,5.8968,5.4583,5.0556,4.7148,4.2846,3.8197,0.0,0.0,0.0,0.0,0.0,0.0,0.0,0.0,0.0,0.0,0.0,2.2258,2.3893,0.0,0.0,0.0,3.0251,3.3617,3.7808,3.921,0.0,0.0,0.0,0.0,0.0,0.0,0.0,4.4626,4.8636,5.1646,5.2758,5.3041,5.3408,5.4289,5.6859,5.9575,6.1985,0.0,6.6256,6.6256,6.7907,6.8274,6.5938,6.6439,6.721,6.721,6.8628,7.011,7.0917,7.1064,7.1211,7.1541,7.1123,7.0734,7.1197,6.8187,6.5692,6.5705,6.5338,6.5264,6.6022,6.5912,6.6109,7.0948,6.9438,6.6906,6.476,6.3352,6.6318,6.81,6.8858,6.8062,6.7266,6.6309,6.3133,6.0335,5.7908,5.5397,0.0,5.6914,5.9311,6.167,6.401,6.5804,6.6996,6.7677,6.777,6.7736,6.7507,6.6676,6.571,6.4643,6.2789,6.1036,5.915,5.0724,4.6759,4.7511,4.9791,5.2974,5.6902,6.0743,6.3072,6.3769,6.3658,6.359,6.359,6.203,6.0805,5.9839,5.6087,5.2828,5.0219,4.5732,4.1319,3.7194,0.0,0.0,0.0,0.0,0.0,0.0,0.0,0.0,0.0,0.0,0.0,0.0,0.0,0.0,0.0,3.4094,0.0,4.1287,4.313,0.0,0.0,0.0,4.0561,4.2837,4.4452,4.6865,5.0729,0.0,0.0,5.7997,0.0,6.0272,5.8841,6.0566,6.2879,6.5325,6.699,6.8031,6.8141,7.0073,7.0756,6.8765,6.9463,7.0293,7.033,7.094,7.16,7.2239,7.2422,7.2459,7.2459,7.1894,7.1417,7.138,7.066,7.0307,7.011,6.9963,7.0183,7.0683,7.0316,7.0073,7.6206,7.5863,7.4596,7.1859,6.8429,6.919,7.036,7.1615,7.0816,7.0322,6.9979,6.7934,6.566,6.3188,6.0685,6.0487,6.2161,6.3987,6.5591,6.6978,6.9284,7.0198,6.9865,7.0532,6.985,6.7966,6.7071,6.5856,6.4253,6.2925,6.1721,6.0452,5.753,5.5441,5.4287,5.496,5.6772,5.9702,6.1787,6.314,6.3621,6.3613,6.359,6.359,6.203,6.0815,5.9913,5.7212,5.4277,5.1231,4.8184,4.4395,3.9758,3.5597,0.0,0.0,0.0,0.0,0.0,0.0,0.0,0.0,0.0,2.8845,3.1073,0.0,3.4222,0.0,3.9452,4.2896,4.5434,4.8269,0.0,0.0,4.8159,4.8379,4.9564,5.0572,5.204,5.419,5.7262,5.9391,5.9795,6.2352,6.4237,6.442,6.4934,6.6219,6.8605,6.9779,7.0697,7.1321,7.2789,7.3582,7.251,7.2569,7.2804,7.2826,7.2496,7.2298,7.2496,7.2532,7.2532,7.2496,7.2386,7.2239,7.2202,7.2055,7.1945,7.1835,7.0954,7.033,7.1123,7.1123,7.1233,7.8538,7.8276,7.7815,7.5955,7.3278,7.2821,7.3123,7.3917,7.3497,7.3085,7.2665,7.1374,7.0007,6.8639,6.7225,6.7118,6.8027,6.8975,6.9696,7.0356,7.1842,7.2323,7.1975,7.2146,7.1056,6.8937,6.7692,6.6199,6.4455,6.4011,6.3513,6.2975,6.2623,6.1955,6.0963,5.9504,5.9656,6.1492,6.2871,6.361,6.3742,6.3747,6.3561,6.3188,6.2007,6.0778,5.9512,5.7451,5.4957,5.2048,4.9559,4.6327,4.2203,3.8785,3.5299,0.0,0.0,0.0,0.0,0.0,0.0,0.0,0.0,0.0,0.0,0.0,4.0206,4.2497,4.4915,4.7436,5.0184,5.366,5.5427,5.4609,5.4535,5.4866,5.5647,5.582,5.6627,5.8584,6.1043,6.2842,6.3576,6.5521,6.7357,6.8481,6.8311,6.8715,7.0293,7.1307,7.2004,7.2496,7.3891,7.4903,7.4735,7.4441,7.4111,7.3758,7.3303,7.2936,7.2569,7.2532,7.2532,7.2532,7.2532,7.2532,7.2532,7.2532,7.2532,7.2386,7.1798,7.1394,7.1747,7.1821,7.2004,7.9462,7.889,7.8751,7.8281,7.7528,7.6471,7.5879,7.5648,7.5648,7.5234,7.4543,7.3668,7.3215,7.3139,7.2901,7.2747,7.2632,7.2632,7.28,7.3041,7.336,7.3575,7.369,7.318,7.191,6.9982,6.8313,6.6631,6.5015,6.5339,6.553,6.5614,6.62,6.6558,6.659,6.3603,6.2281,6.2851,6.3932,6.4336,6.3942,6.3958,6.3584,6.2751,6.1875,6.0529,5.8772,5.7022,5.4922,5.2382,5.0116,4.7516,4.4469,4.2017,3.9349,0.0,3.6005,0.0,0.0,0.0,0.0,0.0,0.0,0.0,0.0,4.3392,4.6108,4.9166,5.011,5.1811,5.4944,5.8589,6.0455,5.977,5.9807,6.0137,6.075,6.026,6.0664,6.2866,6.4481,6.6035,6.7333,6.8495,6.9633,7.0756,7.066,7.0624,7.1307,7.1894,7.2275,7.2496,7.3854,7.516,7.5858,7.5579,7.4845,7.4184,7.378,7.345,7.2789,7.2569,7.2532,7.2532,7.2532,7.2532,7.2532,7.2532,7.2532,7.2496,7.2422,7.2386,7.2459,7.2422,7.2532,8.0958,8.0841,8.0151,7.9765,7.9565,7.8735,7.7399,7.5855,7.5855,7.574,7.5547,7.4755,7.4024,7.3248,7.1941,7.0934,7.0273,7.0266,7.0688,7.1583,7.2964,7.3696,7.3887,7.4375,7.2993,7.002,6.8274,6.6923,6.5848,6.514,6.5461,6.6762,6.7424,6.7808,6.7933,0.0,0.0,0.0,6.4916,6.4714,6.4179,6.4267,6.3844,6.2881,6.1496,0.0,5.7302,5.5535,5.3345,5.0719,4.9476,0.0,0.0,0.0,0.0,0.0,0.0,0.0,0.0,0.0,0.0,0.0,4.8853,4.8267,4.5695,4.7635,5.008,5.252,5.4054,5.5918,5.8404,6.1055,6.2583,6.2352,6.2904,6.3383,6.3381,6.3246,6.3649,6.4701,6.5705,6.6623,6.7664,6.8949,7.022,7.1197,7.1747,7.2092,7.2202,7.1857,7.1821,7.2445,7.3913,7.5417,7.6848,7.6335,7.5726,7.5542,7.4478,7.3707,7.3377,7.2863,7.2532,7.2532,7.2532,7.2532,7.2532,7.2532,7.2532,7.2532,7.2532,7.2532,7.2532,7.2532,7.2532,8.1433,0.0,8.1033,8.0608,0.0,7.9763,7.876,7.7433,7.7433,7.7202,7.6777,7.6359,7.5472,7.4154,7.2495,7.126,7.0411,6.9589,6.9702,7.0616,7.2316,7.3394,7.3922,7.4728,7.3767,7.1253,6.9125,6.7673,6.6796,6.6279,6.6659,6.7942,6.8659,6.9083,6.9099,6.8728,6.7943,6.6804,6.6613,6.6265,6.5776,6.5445,6.485,6.3861,0.0,0.0,0.0,0.0,0.0,0.0,0.0,0.0,0.0,0.0,0.0,4.4998,4.5185,4.5551,4.6011,4.7859,5.0403,5.3637,5.5799,5.5555,5.2169,5.346,5.5223,5.7215,5.8784,6.0359,6.1943,6.4215,6.5583,6.5545,6.6183,6.6782,6.6998,6.6381,6.6219,6.688,6.7063,6.7517,6.8715,6.9536,7.0587,7.1651,7.1857,7.2092,7.2386,7.2151,7.2312,7.345,7.428,7.5307,7.6371,7.6423,7.5726,7.5028,7.4236,7.3611,7.3156,7.2753,7.2532,7.2532,7.2532,7.2532,7.2532,7.2532,7.2532,7.2532,7.2532,7.2532,7.2532,7.2532,7.2532,8.1497,8.1497,8.1497,8.111,8.0414,8.0459,8.0072,7.9415,0.0,0.0,0.0,7.7751,7.6746,7.4999,7.3342,7.2026,7.0982,6.9319,6.9087,7.0059,7.164,7.2916,7.3922,7.4883,7.4463,7.2761,7.0556,6.9009,6.8197,6.8158,6.8545,6.9236,7.0059,7.0368,7.0208,6.9507,6.9064,6.8828,6.8353,6.7891,6.7474,6.6874,6.6016,6.4908,6.3491,6.1883,6.0029,5.8186,5.6382,5.4597,5.315,5.2142,5.1509,5.1563,5.1503,5.1209,5.2282,5.307,5.3262,5.4647,5.6574,5.9018,6.1187,6.13,5.8632,5.902,6.0109,6.1794,6.3078,6.4185,6.5264,6.7049,6.8308,6.8566,6.9065,6.9637,7.0072,6.9094,6.8388,6.8898,6.8385,6.8495,7.0036,7.0146,7.0697,7.2018,7.1967,7.1784,7.2496,7.2716,7.3266,7.472,7.4977,7.5197,7.5873,7.5946,7.5359,7.4331,7.3891,7.3465,7.2899,7.2569,7.2532,7.2532,7.2532,7.2532,7.2532,7.2532,7.2532,7.2532,7.2532,7.2532,7.2532,7.2532,7.2532,8.1497,8.1497,8.1497,8.142,8.1304,8.1304,8.1265,8.1033,7.9647,7.895,7.8757,7.8022,7.6746,7.4999,7.3342,7.1722,7.0098,6.8429,6.8506,0.0,7.1021,7.2336,7.396,7.5469,7.5314,7.3728,7.2568,7.1601,7.0866,7.0755,7.0827,7.1021,7.1794,7.1833,7.1181,7.0976,7.0921,7.0855,6.9256,6.8241,6.7829,6.7844,6.6995,6.5314,6.4466,6.2851,6.0408,5.8637,5.6749,5.495,5.4594,5.4404,5.4336,5.4995,5.5943,5.7187,5.7488,5.8035,5.9168,6.0285,6.1949,6.4358,6.5462,6.482,6.2272,6.2054,6.288,6.462,6.5164,6.6074,6.8051,6.8637,6.9293,7.0276,7.0459,7.0462,7.0421,7.0095,6.988,6.9917,6.9229,6.9325,7.0683,7.055,7.0807,7.2092,7.2422,7.2642,7.3303,7.3523,7.4221,7.5395,7.5322,7.5307,7.5763,7.5454,7.4955,7.4793,7.4037,7.3575,7.3377,7.2863,7.2532,7.2532,7.2532,7.2532,7.2532,7.2532,7.2532,7.2532,7.2532,7.2532,7.2532,7.2532,7.2532,8.1497,8.1497,8.1497,8.1497,8.1497,8.1497,8.1497,8.1459,8.0685,8.0072,7.9641,7.9221,7.8138,7.6436,7.4728,7.3032,7.1336,6.9628,6.9247,7.0059,7.1407,7.2684,7.3999,7.5624,7.6016,7.5237,7.4386,7.3761,7.3342,7.2916,7.2723,7.2684,7.2684,7.2181,7.1369,7.1291,7.1291,7.1253,7.0411,6.9836,6.9554,6.9163,6.8486,6.7604,6.6385,6.5183,6.3942,6.1767,6.0172,5.9288,5.8359,5.8092,5.8594,5.9357,6.0348,6.153,6.1932,6.2551,6.3471,6.5191,6.6654,6.7825,6.8983,6.9244,6.8083,6.6879,6.6769,6.8138,6.8774,6.9532,7.0604,7.0866,7.124,7.1799,7.1986,7.2011,7.1827,7.1259,7.0928,7.0786,7.0092,7.0,7.116,7.1358,7.1578,7.2422,7.2826,7.345,7.4221,7.4735,7.5212,7.5873,7.5417,7.5102,7.5344,7.4771,7.4147,7.3692,7.3303,7.3083,7.3046,7.2679,7.2569,7.2532,7.2532,7.2532,7.2532,7.2532,7.2532,7.2532,7.2532,7.2532,7.2532,7.2532,7.2532,8.2077,8.2084,8.2077,8.2077,8.2084,8.2077,8.2,8.1813,8.1807,8.1304,8.053,8.0298,7.9376,7.7906,7.6359,7.485,7.3342,7.164,7.0987,7.1253,7.2375,7.3342,7.4264,7.5701,7.6403,7.6326,7.5701,7.5386,7.5314,7.4773,7.4347,7.4115,7.3303,7.2529,7.191,7.1872,7.1877,7.1872,7.1827,7.1558,7.1056,7.0311,6.9861,6.9491,6.8252,6.7456,6.7166,6.5123,6.381,6.3525,6.2331,6.1955,6.2613,6.341,6.4214,6.5049,6.5612,6.6241,6.7058,6.8669,6.989,7.0355,7.1481,7.2353,7.2557,7.1262,7.042,7.107,7.1702,7.2253,7.2437,7.2687,7.2973,7.3088,7.328,7.3287,7.322,7.2664,7.2156,7.189,7.12,7.1029,7.151,7.1959,7.2312,7.2789,7.3487,7.4258,7.5065,7.5726,7.6093,7.6166,7.5564,7.4977,7.483,7.4037,7.3266,7.2569,7.2569,7.2569,7.2569,7.2532,7.2532,7.2532,7.2532,7.2532,7.2532,7.2532,7.2532,7.2532,7.2532,7.2532,7.2532,7.2532,7.2532,8.3824,8.3863,8.3786,8.3863,8.3786,8.3824,8.336,8.2709,8.2664,8.2161,8.1304,8.053,7.9763,7.8834,7.7906,7.6978,7.5978,7.4309,7.396,7.4458,7.4038,7.4226,7.5115,7.6011,7.6403,7.6442,7.6326,7.6249,7.6165,7.6127,7.574,7.4999,7.4187,7.3728,7.3651,7.3612,7.3651,7.3651,7.3645,7.2838,7.1311,7.1106,7.0661,6.9791,6.9663,6.9136,6.8448,6.7263,6.6372,6.5673,6.5513,6.5442,6.5628,6.6288,6.7134,6.7928,6.8053,6.8569,6.9805,6.982,7.0574,7.2167,7.2301,7.2785,7.3731,7.3706,7.3216,7.268,7.263,7.3058,7.3535,7.3535,7.3716,7.4249,7.4229,7.3946,7.3877,7.4275,7.4223,7.3074,7.2856,7.2706,7.2576,7.209,7.2165,7.345,7.4294,7.5028,7.5726,7.6093,7.646,7.6702,7.5931,7.505,7.483,7.3619,7.301,7.2679,7.2569,7.2679,7.2789,7.2716,7.2569,7.2973,7.2716,7.2753,7.2679,7.2532,7.2642,7.2863,7.2789,7.2606,7.2532,7.2642,7.2716,8.4095,8.4095,8.4095,8.4095,8.4095,8.4095,8.3592,8.2825,8.2786,8.2316,8.1536,8.111,8.0762,8.0453,8.0111,7.9453,7.8602,7.7945,7.7519,7.7403,7.7055,7.7094,7.7442,7.7751,7.7674,7.7216,7.7171,7.6906,7.6481,7.6403,7.5972,7.5154,7.4767,7.438,7.3916,7.3877,7.3877,7.3877,7.3877,7.3507,7.283,7.2711,7.2507,7.2142,7.2025,7.1849,7.136,7.0591,6.9943,6.9597,6.9129,6.909,6.9597,6.9937,7.0475,7.1308,7.1286,7.1406,7.1879,7.214,7.2668,7.3511,7.3857,7.4293,7.4851,7.5009,7.4801,7.4434,7.4293,7.4458,7.4749,7.4855,7.5119,7.5449,7.575,7.5846,7.5807,7.5961,7.5826,7.5172,7.4802,7.432,7.3702,7.308,7.3244,7.4258,7.5102,7.5763,7.6093,7.6481,7.6922,7.7069,7.6298,7.5711,7.5454,7.4683,7.3986,7.3891,7.3927,7.3927,7.3839,7.3927,7.3913,7.3876,7.3839,7.3839,7.3986,7.3927,7.3927,7.3839,7.3876,7.3913,7.3913,7.3913,7.3913,8.4792,8.4792,8.4792,8.4792,8.4792,8.4792,8.4289,8.3515,8.3476,8.3012,8.2232,8.2232,8.2193,8.2161,8.1729,8.111,8.0569,8.0298,7.9873,7.9337,7.9105,7.8989,7.9028,7.8989,7.868,7.8105,7.779,7.7254,7.6481,7.6403,7.6094,7.5546,7.5463,7.516,7.4657,7.4579,7.4579,7.4612,7.4568,7.4533,7.4485,7.4404,7.416,7.3729,7.3559,7.3528,7.3507,7.2899,7.2552,7.2514,7.1937,7.1898,7.2514,7.2552,7.286,7.3385,7.3375,7.3323,7.3448,7.384,7.4229,7.4514,7.503,7.5398,7.5608,7.5931,7.607,7.5981,7.6008,7.5997,7.5856,7.6037,7.6292,7.6664,7.7148,7.7392,7.7242,7.7263,7.7112,7.6575,7.609,7.5628,7.4713,7.4367,7.4625,7.5175,7.5909,7.6408,7.6497,7.6922,7.7289,7.7289,7.6775,7.6371,7.6093,7.5322,7.4977,7.4903,7.4757,7.4757,7.494,7.5014,7.4977,7.461,7.4977,7.4977,7.461,7.472,7.4903,7.4903,7.4903,7.4903,7.4683,7.483,7.4867,8.6487,8.6455,8.6487,8.6377,8.6494,8.641,8.5952,8.5024,8.5101,8.4675,8.3902,8.3902,8.394,8.3786,8.231,8.1497,8.1343,8.0685,8.0298,8.0105,7.9415,7.9067,7.9028,7.9028,7.9028,7.8873,7.8254,7.7442,7.6558,7.6481,7.6403,7.6365,7.6365,7.6326,7.621,7.6171,7.6249,7.6082,7.6035,7.6108,7.6089,7.5972,7.5141,7.3901,7.3663,7.3692,7.3598,7.3507,7.3469,7.3469,7.343,7.343,7.3469,7.3469,7.3546,7.3584,7.3577,7.3841,7.4397,7.4336,7.4533,7.5289,7.5353,7.5464,7.583,7.6594,7.7024,7.7039,7.7348,7.7361,7.6894,7.6939,7.7131,7.7804,7.8013,7.8008,7.7622,7.8152,7.7768,7.6928,7.6722,7.6236,7.511,7.5557,7.5763,7.6093,7.6702,7.7179,7.7142,7.7252,7.7289,7.7326,7.7179,7.6959,7.6225,7.5821,7.527,7.5234,7.5417,7.5087,7.5197,7.5344,7.538,7.5469,7.5946,7.5873,7.5197,7.4977,7.5124,7.5197,7.527,7.5234,7.5491,7.5087,7.5145,8.6603,8.6603,8.6603,8.6603,8.6603,8.6603,8.6107,8.5333,8.5294,8.4869,8.4211,8.4095,8.4095,8.4057,8.3438,8.2857,8.2316,8.2006,8.1581,8.1072,8.0724,8.0614,8.0608,8.0608,8.0298,7.9763,7.9453,7.8873,7.8138,7.8061,7.8061,7.7945,7.7486,7.721,7.7132,7.6674,7.6386,7.6338,7.6313,7.6263,7.6185,7.6125,7.5761,7.5173,7.5134,7.512,7.5091,7.5123,7.5091,7.5091,7.5091,7.513,7.5091,7.5091,7.5091,7.5084,7.5091,7.517,7.5357,7.5224,7.5266,7.5597,7.5581,7.5912,7.6493,7.7024,7.7485,7.7854,7.8001,7.8092,7.8564,7.8812,7.9014,7.9071,7.9953,8.0237,7.9657,7.9452,7.9091,7.8274,7.7455,7.6431,7.5985,7.5946,7.6093,7.6166,7.6775,7.7215,7.7326,7.7326,7.7326,7.7326,7.7289,7.7215,7.6995,7.6702,7.6481,7.6481,7.6481,7.6481,7.6555,7.7011,7.7157,7.6592,7.6922,7.7157,7.6592,7.6188,7.6188,7.6188,7.6225,7.6078,7.6445,7.6099,7.6127,8.6842,8.6603,8.6603,8.6603,8.6603,8.6603,8.6255,8.572,8.572,8.541,8.4985,8.4908,8.4908,8.4908,8.4908,8.4443,8.3599,8.3057,8.2471,8.1929,8.1652,8.1497,8.1497,8.1497,8.1188,8.0653,8.0304,7.9757,7.9105,7.9028,7.9028,7.895,7.837,7.8099,7.8022,7.7501,7.7156,7.7112,7.6836,7.661,7.6482,7.6223,7.6034,7.5984,7.5976,7.5861,7.563,7.5592,7.5592,7.563,7.5861,7.5976,7.5976,7.5976,7.613,7.6361,7.6399,7.6531,7.6709,7.6655,7.6586,7.6586,7.6624,7.6916,7.7508,7.7908,7.8331,7.8738,7.9121,7.9426,8.0024,8.0831,8.1026,8.0344,8.1047,8.1457,8.0702,8.0151,7.9587,7.8766,7.7774,7.6935,7.6572,7.6512,7.6518,7.6481,7.6995,7.7289,7.7326,7.7326,7.7326,7.7326,7.7326,7.7289,7.7179,7.7032,7.6995,7.6995,7.6995,7.7215,7.7509,7.8112,7.8295,7.7803,7.7803,7.8148,7.8075,7.7582,7.7362,7.7341,7.7105,7.6848,7.7038,7.7117,7.7013,8.7377,8.6642,8.6603,8.6603,8.6603,8.6603,8.6564,8.6526,8.6526,8.641,8.6293,8.6455,8.6332,8.6448,8.63,8.6023,8.5062,8.3747,8.298,8.2748,8.2077,8.1691,8.1613,8.1652,8.1536,8.1343,8.0614,7.9879,7.926,7.926,7.926,7.9138,7.9093,7.8971,7.8977,7.876,7.8728,7.8503,7.7785,7.74,7.7309,7.6597,7.6214,7.6092,7.6092,7.5784,7.4976,7.4892,7.4976,7.5053,7.5668,7.6015,7.6207,7.6207,7.6476,7.7176,7.7292,7.7676,7.8246,7.8277,7.8192,7.8192,7.8354,7.8269,7.8538,7.9123,7.9623,7.9885,8.0423,8.1,8.1269,8.2292,8.2567,8.1288,8.1319,8.1355,8.0791,8.0263,7.9551,7.8592,7.7949,7.7666,7.7396,7.7179,7.7142,7.7142,7.7252,7.7326,7.7326,7.7326,7.7326,7.7326,7.7326,7.7326,7.7326,7.7289,7.7289,7.7289,7.7252,7.7326,7.7509,7.7965,7.8075,7.7766,7.8332,7.8662,7.8498,7.8021,7.7662,7.7552,7.7454,7.761,7.7736,7.7809,7.7499,8.7377,8.6642,8.6603,8.6603,8.6603,8.6603,8.6603,8.6603,8.6603,8.6603,8.6603,8.6603,8.6603,8.6603,8.6603,8.6448,8.61,8.5024,8.425,8.3708,8.3399,8.2935,8.2471,8.2393,8.2084,8.1575,8.1265,8.0994,8.0724,8.0685,8.0705,8.0589,8.0036,7.9739,7.9661,7.9094,7.8752,7.8658,7.8385,7.7949,7.7444,7.7607,7.7445,7.6945,7.6907,7.6746,7.6476,7.5938,7.5899,7.6399,7.6753,7.713,7.7599,7.7707,7.7869,7.8061,7.8138,7.8176,7.8446,7.8561,7.86,7.8561,7.8561,7.883,7.9285,7.9708,8.0123,8.0592,8.0977,8.1285,8.19,8.2324,8.2508,8.1946,8.2842,8.3001,8.2148,8.1105,8.0015,7.9115,7.8319,7.7725,7.7433,7.7378,7.7518,7.7451,7.7414,7.7414,7.7362,7.7509,7.7326,7.7326,7.7326,7.7546,7.7693,7.7803,7.7803,7.7656,7.7509,7.7326,7.7509,7.7693,7.7766,7.8038,7.8589,7.8908,7.8744,7.8446,7.8042,7.8168,7.8432,7.8514,7.8589,7.8522,7.8432,8.8808,8.8041,8.8002,8.8234,8.8466,8.8505,8.8118,8.7615,8.7577,8.7228,8.6719,8.6603,8.6603,8.6603,8.6603,8.6603,8.6532,8.6029,8.5526,8.4946,8.4289,8.3786,8.3251,8.2902,8.2355,8.1652,8.1497,8.1497,8.1497,8.1472,8.144,8.1246,8.0833,8.0529,8.0474,7.9945,7.9594,7.955,7.9251,7.8791,7.8376,7.8407,7.8253,7.783,7.7753,7.79,7.813,7.7669,7.7361,7.7407,7.7561,7.8023,7.8446,7.8484,7.8638,7.8938,7.9054,7.9208,7.9792,8.0062,8.01,8.0292,8.0408,8.0639,8.1093,8.1208,8.1516,8.19,8.2054,8.2247,8.2708,8.3131,8.3247,8.3285,8.375,8.3857,8.2961,8.1897,8.0941,8.0258,7.954,7.8955,7.8655,7.8476,7.8467,7.8422,7.8345,7.8268,7.8237,7.8295,7.817,7.8222,7.8442,7.8479,7.8332,7.8332,7.8295,7.806,7.7803,7.7509,7.7399,7.7582,7.7693,7.7913,7.8369,7.8928,7.8872,7.8603,7.8319,7.8777,7.9474,7.9576,7.9734,7.9805,7.9728,9.1058,9.0362,9.0284,9.0555,9.1213,9.129,9.04,8.9363,8.9092,8.8157,8.699,8.6642,8.6603,8.6603,8.6603,8.6603,8.6603,8.6532,8.6448,8.6023,8.5127,8.4346,8.4063,8.3328,8.2587,8.193,8.182,8.1743,8.1884,8.1839,8.1542,8.1669,8.1498,8.1354,8.1287,8.1236,8.0976,8.0838,8.0246,7.9823,7.9669,7.9131,7.8677,7.8638,7.883,7.9246,7.9823,7.9931,7.9285,7.7984,7.8715,7.9215,7.8946,7.8792,7.9485,8.0208,8.0046,8.0862,8.1939,8.2101,8.2401,8.2986,8.3024,8.3601,8.3216,8.3101,8.3139,8.3293,8.3332,8.3478,8.3747,8.4247,8.4709,8.4931,8.4689,8.404,8.3247,8.2834,8.2362,8.1745,8.1352,8.0984,8.0521,8.0374,8.0237,8.0045,7.9857,7.9615,7.948,7.9376,7.9669,7.9596,7.9339,7.925,7.8993,7.8993,7.9008,7.8877,7.863,7.8428,7.8112,7.8238,7.8599,7.8679,7.8768,7.9133,7.9416,7.9543,7.9738,8.0344,8.0739,8.0805,8.0954,8.1083,8.1021,9.0246,8.9556,8.9518,8.9975,9.0671,9.0749,9.0555,9.0014,8.9511,8.8776,8.7647,8.6874,8.6796,8.6642,8.6719,8.6603,8.6796,8.6719,8.6603,8.6558,8.6162,8.5457,8.4797,8.3972,8.34,8.313,8.3059,8.32,8.3193,8.3063,8.3066,8.3046,8.2376,8.21,8.2009,8.1447,8.1162,8.1124,8.0954,8.0439,8.0054,8.0323,8.0092,7.9592,8.0631,8.1323,8.1708,8.2285,8.2131,8.1208,8.1793,8.2255,8.2062,8.2062,8.2062,8.2285,8.2477,8.267,8.3101,8.3255,8.3409,8.3524,8.3755,8.3601,8.3601,8.364,8.3601,8.3601,8.3601,8.3986,8.4478,8.4863,8.5478,8.6478,8.6406,8.615,8.5762,8.5167,8.4251,8.3153,8.2306,8.1809,8.1426,8.1197,8.0949,8.0679,8.0437,8.0254,8.0267,8.0168,8.031,7.9974,7.9722,7.9743,7.9706,7.9743,7.9722,7.9643,7.9688,7.9822,7.9727,7.9845,8.037,8.0822,8.0792,8.1028,8.1396,8.1663,8.1929,8.2034,8.2254,8.2461,8.2483,8.2573,8.2395,9.1213,9.0787,9.0787,9.1251,9.1986,9.2373,9.2141,9.1561,9.1374,9.0594,8.9581,8.8966,8.8689,8.8682,8.8685,8.8654,8.8682,8.8334,8.82,8.8066,8.7431,8.637,8.5277,8.4554,8.4199,8.3835,8.3845,8.376,8.3753,8.3762,8.3764,8.3572,8.3179,8.2717,8.2262,8.19,8.1593,8.1593,8.1593,8.1477,8.1477,8.1862,8.19,8.1593,8.2439,8.2978,8.3401,8.4209,8.4093,8.3216,8.3293,8.3601,8.3601,8.3601,8.3601,8.3601,8.3601,8.3717,8.4093,8.417,8.4324,8.4593,8.467,8.4863,8.5132,8.5217,8.5255,8.5794,8.5756,8.6025,8.6324,8.6517,8.7115,8.812,8.8389,8.8203,8.7704,8.6977,8.6039,8.4958,8.4108,8.337,8.2762,8.2418,8.2056,8.1781,8.16,8.1381,8.1218,8.107,8.1022,8.0957,8.101,8.1234,8.1301,8.1301,8.1272,8.1146,8.1295,8.138,8.1428,8.1531,8.1974,8.2454,8.264,8.291,8.3329,8.3551,8.3498,8.3645,8.391,8.3981,8.393,8.3857,8.37,9.2946,9.2869,9.2869,9.334,9.3966,9.481,9.3998,9.3224,9.3224,9.2637,9.1417,9.1243,9.0557,9.1314,9.025,9.0937,9.0967,8.99,9.0045,8.9511,8.8625,8.7222,8.6341,8.5519,8.4971,8.4452,8.4153,8.4387,8.4627,8.4458,8.4404,8.4527,8.4287,8.3524,8.3131,8.267,8.2439,8.2439,8.2439,8.2716,8.3016,8.3255,8.3178,8.3216,8.3478,8.4132,8.4863,8.5517,8.5324,8.3947,8.387,8.4016,8.3978,8.3901,8.3939,8.4016,8.4132,8.4401,8.4846,8.503,8.5253,8.5706,8.5906,8.6462,8.6846,8.697,8.7239,8.7953,8.8624,8.8243,8.8247,8.8487,8.8779,8.9331,8.9599,8.9419,8.8797,8.8345,8.7742,8.6741,8.632,8.5574,8.4832,8.4126,8.3573,8.2487,8.2379,8.2274,8.2199,8.2237,8.2423,8.2688,8.2799,8.2985,8.3,8.3,8.2946,8.292,8.3185,8.3309,8.326,8.3375,8.3601,8.3928,8.4366,8.4832,8.5361,8.5401,8.5129,8.5361,8.5681,8.5435,8.5154,8.5104,8.4985,9.2605,9.1986,9.1986,9.2489,9.3224,9.3456,9.3333,9.2985,9.2482,9.1905,9.074,8.9977,8.9786,8.9686,8.9887,8.944,8.9926,8.9701,8.9607,9.0041,8.9169,8.8977,8.8436,8.7271,8.6091,8.5868,8.6408,8.6592,8.6659,8.6959,8.755,8.7319,8.608,8.544,8.5055,8.3901,8.3332,8.3332,8.3332,8.3447,8.3678,8.3832,8.387,8.3947,8.4439,8.5093,8.5662,8.6017,8.5901,8.567,8.5593,8.5555,8.5478,8.5478,8.5517,8.5593,8.5593,8.5637,8.5732,8.583,8.5795,8.6011,8.62,8.6338,8.7145,8.7445,8.7821,8.8392,8.8558,8.8631,8.85,8.8854,8.9275,8.9658,8.996,9.0124,8.9863,8.9412,8.8683,8.7805,8.6927,8.6168,8.5664,8.4719,8.407,8.3304,8.318,8.3084,8.3276,8.3556,8.3849,8.4234,8.4288,8.4363,8.4349,8.44,8.4468,8.4397,8.4632,8.5053,8.5039,8.5113,8.5314,8.573,8.621,8.6621,8.6776,8.6818,8.6453,8.6985,8.7118,8.6407,8.5886,8.6034,8.5926,9.2714,9.2289,9.187,9.1986,9.2405,9.2756,9.2896,9.2927,9.2858,9.2512,9.201,9.147,9.126,9.122,9.1179,9.1256,9.112,9.0844,9.0721,9.0743,9.0201,9.0333,9.0449,8.9439,8.8429,8.7734,8.7809,8.802,8.8188,8.8449,8.8526,8.8679,8.7718,8.6786,8.6209,8.5247,8.4632,8.4247,8.4209,8.4362,8.4709,8.5209,8.5679,8.5948,8.644,8.694,8.7325,8.7363,8.7325,8.7325,8.7286,8.7094,8.6786,8.6748,8.6901,8.7248,8.7325,8.7282,8.7166,8.6984,8.693,8.6891,8.6901,8.7455,8.8084,8.8469,8.8927,8.9405,8.9497,8.9263,8.8858,8.9212,8.9653,9.0095,9.0143,9.0281,9.0411,9.0067,8.937,8.8477,8.7741,8.7111,8.6391,8.5648,8.562,8.5369,8.5553,8.5501,8.5522,8.5726,8.5544,8.57,8.565,8.565,8.5675,8.5751,8.5888,8.5835,8.5787,8.6286,8.6593,8.6763,8.7008,8.7268,8.7441,8.7465,8.7563,8.7665,8.7502,8.7128,8.6844,8.6553,8.625,8.5909,8.5833,9.3302,9.3108,9.2373,9.2057,9.2151,9.2743,9.2944,9.2883,9.3484,9.3345,9.3505,9.3538,9.2742,9.3239,9.2985,9.3311,9.3312,9.2891,9.2074,9.2173,9.1881,9.1958,9.1941,9.1611,9.0834,8.9539,8.9289,8.9175,8.8949,8.9064,8.941,8.9141,8.8902,8.8248,8.7055,8.6517,8.6247,8.5824,8.5747,8.594,8.644,8.7094,8.7718,8.8102,8.8256,8.8333,8.841,8.8449,8.8564,8.8679,8.8679,8.8363,8.7979,8.7671,8.7855,8.8577,8.8453,8.8268,8.8095,8.7983,8.7844,8.8134,8.7969,8.8382,8.9171,8.9504,8.9916,9.0196,9.0232,8.9707,8.9415,8.9629,9.0157,9.0609,9.0344,9.046,9.0663,9.0435,8.9704,8.8733,8.8066,8.7475,8.7322,8.6948,8.7243,8.7539,8.7712,8.7851,8.784,8.7636,8.7297,8.7047,8.6977,8.681,8.6772,8.6825,8.6996,8.7031,8.6959,8.7264,8.7714,8.7648,8.7697,8.8218,8.837,8.844,8.8506,8.8648,8.8239,8.7297,8.7315,8.7787,8.7044,8.585,8.6012,9.4655,9.4005,9.385,9.3768,9.3709,9.384,9.3408,9.2774,9.2943,9.2478,9.1873,9.1771,9.1835,9.1745,9.1642,9.207,9.27,9.2661,9.3183,9.3808,9.3624,9.3512,9.4018,9.3568,9.2815,9.2002,9.1313,9.0616,9.0103,9.0364,9.0748,9.0633,9.0171,8.9509,8.9171,8.8671,8.8132,8.7748,8.7679,8.7786,8.7979,8.8286,8.8594,8.8893,8.897,8.8932,8.8816,8.8748,8.8679,8.8679,8.8679,8.8979,8.9154,8.8846,8.8666,8.8691,8.8762,8.8757,8.8673,8.8285,8.8058,8.7951,8.8311,8.8631,8.9328,8.9706,9.0296,9.0171,8.9939,8.9333,8.9068,8.9573,9.0018,9.0429,9.0819,9.1038,9.1118,9.078,9.0108,8.8987,8.833,8.8101,8.8258,8.8497,8.8794,8.9019,8.9197,8.9397,8.9478,8.9132,8.8631,8.8417,8.8263,8.8044,8.7853,8.7888,8.8002,8.8036,8.7985,8.7936,8.8211,8.8079,8.8262,8.8912,8.937,8.9579,8.9655,8.9551,8.9513,8.9016,8.9148,8.9291,8.8411,8.7579,8.7405,9.5154,9.4721,9.4296,9.4088,9.4041,9.3993,9.3759,9.3293,9.2789,9.2353,9.1904,9.1463,9.1253,9.121,9.1201,9.1698,9.237,9.2544,9.3506,9.4563,9.4622,9.4844,9.5621,9.5152,9.4593,9.3927,9.3349,9.2455,9.1441,9.2095,9.2364,9.2402,9.2018,9.1672,9.1133,9.0402,8.9787,8.9479,8.8987,8.8756,8.8795,8.9056,8.9462,8.9764,8.9823,8.9882,8.9837,8.9828,8.9866,8.9866,8.9866,9.0058,9.0144,9.0133,8.9844,8.9742,8.9583,8.9677,8.985,8.9784,8.9825,9.0425,9.0532,9.0955,9.1343,9.1583,9.1163,9.0625,9.0395,8.9795,8.9436,8.9796,9.0323,9.0827,9.1013,9.1132,9.1205,9.0807,9.0111,8.9451,8.948,8.9526,8.9783,9.0042,9.0352,9.0559,9.071,9.0928,9.1197,9.0536,8.9926,8.9533,8.9322,8.9245,8.9027,8.8988,8.8988,8.8988,8.895,8.8912,8.895,8.8912,8.9256,8.9818,9.0201,9.0392,9.0009,8.9704,9.0201,9.0621,9.0305,8.9978,8.9778,8.9452,8.9173,9.5412,9.5489,9.4795,9.447,9.4483,9.4425,9.4305,9.3971,9.337,9.295,9.2633,9.1941,9.1595,9.171,9.1864,9.221,9.2979,9.3095,9.3989,9.5066,9.5297,9.5672,9.6095,9.6211,9.572,9.4806,9.5037,9.4373,9.2988,9.3172,9.3557,9.348,9.3595,9.3441,9.2595,9.1979,9.121,9.0479,8.9863,8.9449,8.944,8.9855,9.0388,9.0894,9.0924,9.0762,9.0588,9.0391,9.037,9.037,9.0457,9.0574,9.0749,9.0982,9.1126,9.1078,9.0822,9.1107,9.1299,9.138,9.1289,9.1893,9.286,9.3239,9.3201,9.2657,9.2353,9.1319,9.0735,9.0356,8.9797,9.01,9.0667,9.1165,9.114,9.1,9.1355,9.1226,9.0733,9.0466,9.0716,9.0658,9.0516,9.128,9.1546,9.2171,9.2367,9.2945,9.2981,9.1815,9.1108,9.0617,9.0353,9.0353,9.0211,9.0096,9.0058,8.9944,8.9829,8.9714,8.9818,8.9933,9.0239,9.0392,9.0593,9.0631,9.0211,8.9971,9.0353,9.0659,9.0746,9.0752,9.0672,9.0634,9.0481,9.5721,9.6338,9.6214,9.618,9.6073,9.6009,9.5579,9.4892,9.4652,9.4258,9.3518,9.2749,9.271,9.3095,9.3249,9.3826,9.4373,9.4566,9.4951,9.5865,9.6019,9.6057,9.6288,9.6288,9.5903,9.5365,9.5788,9.5095,9.4134,9.3864,9.3826,9.3903,9.398,9.371,9.3787,9.3403,9.3018,9.2326,9.2018,9.1556,9.097,9.0923,9.0947,9.0876,9.0693,9.044,9.0367,9.014,8.9979,8.9918,8.9856,8.9938,9.0284,9.1162,9.1552,9.1608,9.1501,9.1445,9.1728,9.1961,9.2253,9.272,9.3187,9.3299,9.3347,9.306,9.2419,9.1059,9.0663,9.0374,9.0227,9.0469,9.0903,9.1358,9.1629,9.1796,9.2075,9.1656,9.1174,9.1175,9.1326,9.097,9.0678,9.1762,9.2745,9.3473,9.4097,9.453,9.4639,9.3409,9.2373,9.1871,9.1538,9.1499,9.0937,9.0899,9.0735,9.0697,9.0506,9.0353,9.0392,9.043,9.0506,9.0659,9.0861,9.0899,9.0506,9.043,9.0583,9.0975,9.1434,9.1586,9.1614,9.1664,9.1778,9.5644,9.6367,9.6376,9.6349,9.6352,9.6352,9.6141,9.572,9.522,9.4797,9.4335,9.3566,9.3403,9.371,9.3672,9.4143,9.4835,9.5027,9.5489,9.6134,9.6288,9.6288,9.6288,9.6288,9.598,9.5903,9.6019,9.6019,9.5288,9.5134,9.5172,9.5134,9.5172,9.5249,9.5095,9.4672,9.4296,9.3719,9.3018,9.2299,9.1831,9.1381,9.0963,9.0651,9.047,9.0266,9.0113,9.0133,9.0095,9.0095,9.0133,9.0474,9.1127,9.1833,9.2348,9.2775,9.3046,9.3213,9.3327,9.3169,9.3272,9.3731,9.4081,9.4154,9.3822,9.3517,9.296,9.1845,9.1593,9.125,9.0916,9.1195,9.1378,9.167,9.1962,9.2072,9.2165,9.202,9.171,9.1803,9.1912,9.1699,9.1596,9.238,9.3228,9.3714,9.4238,9.4608,9.5036,9.4866,9.3972,9.3219,9.2913,9.2684,9.1892,9.1395,9.109,9.0926,9.0735,9.0621,9.0697,9.0774,9.0965,9.1052,9.1204,9.109,9.0812,9.1156,9.1586,9.193,9.2274,9.2465,9.2695,9.318,9.3153,9.5528,9.6288,9.6288,9.6288,9.6288,9.6288,9.6288,9.6211,9.5634,9.5335,9.5143,9.4634,9.4287,9.4134,9.4326,9.4864,9.5335,9.5335,9.5711,9.6134,9.6288,9.6288,9.6288,9.6288,9.6288,9.6288,9.6249,9.6365,9.6557,9.6519,9.648,9.6634,9.6826,9.6903,9.6711,9.6134,9.5489,9.472,9.4095,9.3511,9.2996,9.2536,9.2105,9.168,9.1195,9.089,9.072,9.0925,9.1165,9.1189,9.1235,9.1645,9.2258,9.2692,9.3125,9.3551,9.396,9.4534,9.4466,9.4316,9.4315,9.4557,9.4917,9.4485,9.4205,9.4143,9.3675,9.2382,9.2503,9.2255,9.2022,9.1932,9.195,9.1968,9.2078,9.2079,9.2134,9.2317,9.2629,9.2923,9.3015,9.2922,9.2959,9.3326,9.3761,9.402,9.4398,9.4776,9.528,9.5817,9.5293,9.4452,9.3868,9.3601,9.3038,9.2312,9.1816,9.1395,9.1156,9.1232,9.1499,9.1625,9.1778,9.1778,9.1663,9.151,9.1395,9.2007,9.2542,9.2427,9.2542,9.3382,9.3841,9.4338,9.4365,9.5518,9.6288,9.6288,9.6288,9.6288,9.6288,9.6288,9.6288,9.6211,9.6134,9.6057,9.6019,9.548,9.5211,9.5518,9.5903,9.6134,9.6172,9.6211,9.6249,9.6288,9.6288,9.6288,9.6288,9.6288,9.6326,9.6442,9.6865,9.7326,9.7596,9.748,9.748,9.798,9.8404,9.8211,9.7442,9.6566,9.5912,9.5518,9.5223,9.4801,9.4484,9.444,9.4144,9.3707,9.3378,9.3253,9.2611,9.2348,9.2327,9.2268,9.2527,9.2923,9.3322,9.3681,9.4067,9.4499,9.5036,9.5097,9.4557,9.3814,9.3847,9.4079,9.4345,9.3937,9.3934,9.3393,9.2557,9.2639,9.2534,9.2335,9.2317,9.2207,9.2097,9.2134,9.2464,9.2648,9.3051,9.3419,9.397,9.386,9.3343,9.3489,9.3663,9.4113,9.4411,9.5299,9.5708,9.6177,9.6554,9.621,9.5598,9.4834,9.4441,9.4174,9.3563,9.2809,9.2465,9.2236,9.2427,9.2695,9.2733,9.2733,9.2351,9.2198,9.2083,9.193,9.2007,9.2121,9.2312,9.2809,9.3879,9.4681,9.514,9.5064,9.598,9.6288,9.6288,9.6288,9.6288,9.6288,9.6288,9.6288,9.6288,9.6288,9.6288,9.6249,9.6134,9.598,9.6057,9.6288,9.6288,9.6288,9.6288,9.6288,9.6288,9.6288,9.6288,9.6288,9.6288,9.6403,9.6711,9.7096,9.748,9.8404,9.9029,9.9135,9.9019,9.875,9.8557,9.8596,9.7913,9.7442,9.7,9.652,9.5605,9.4885,9.4368,9.3352,9.2811,9.229,9.2001,9.2136,9.2161,9.2282,9.2356,9.2837,9.3312,9.3656,9.398,9.4294,9.4692,9.4899,9.5129,9.4756,9.4515,9.4035,9.4123,9.4024,9.3449,9.3236,9.29,9.2524,9.2495,9.2499,9.2115,9.2097,9.206,9.195,9.2244,9.2794,9.3253,9.3731,9.4025,9.4485,9.3747,9.2963,9.333,9.3743,9.4302,9.4867,9.5805,9.6629,9.6998,9.7241,9.6936,9.6592,9.5866,9.5129,9.4823,9.4288,9.3726,9.3497,9.3306,9.3421,9.3573,9.3792,9.3677,9.3229,9.2847,9.2847,9.2542,9.1854,9.2007,9.2847,9.3726,9.4681,9.5331,9.6057,9.5942,9.6442,9.6634,9.6394,9.6288,9.6288,9.6288,9.6288,9.6288,9.6288,9.6288,9.6288,9.6288,9.6288,9.6288,9.6288,9.6288,9.6288,9.6288,9.6288,9.6288,9.6288,9.6288,9.6288,9.6288,9.6288,9.648,9.7096,9.7557,9.8057,9.9413,9.999,10.0096,9.9904,9.9712,9.9635,9.9519,9.9327,9.875,9.8769,9.7866,9.6881,9.6329,9.5531,9.4351,9.379,9.3347,9.322,9.3322,9.319,9.3174,9.3153,9.3314,9.3626,9.3919,9.4126,9.435,9.4409,9.4318,9.4498,9.4388,9.4548,9.4173,9.3718,9.3374,9.2903,9.2599,9.2377,9.2273,9.2424,9.2573,9.2354,9.2831,9.3088,9.3235,9.3492,9.3932,9.419,9.4558,9.4724,9.4927,9.4496,9.4815,9.5267,9.5855,9.5536,9.5914,9.6134,9.694,9.7441,9.7623,9.7662,9.7318,9.6859,9.6095,9.5396,9.4987,9.4643,9.4567,9.4338,9.4223,9.4338,9.4567,9.4441,9.3906,9.365,9.365,9.3535,9.3268,9.3459,9.3841,9.4987,9.6363,9.7012,9.7662,9.7318,9.6702,9.7326,9.6596,9.6288,9.6288,9.6288,9.6288,9.6288,9.6288,9.6288,9.6288,9.6288,9.6288,9.6288,9.6288,9.6288,9.6288,9.6288,9.6288,9.6288,9.6288,9.6288,9.6288,9.6288,9.6288,9.6519,9.725,9.8096,9.8673,9.9788,10.0519,10.0981,10.0856,10.0856,10.1164,10.1202,10.0366,9.9288,10.0404,9.9711,9.8736,9.8342,9.7555,9.6527,9.5417,9.4751,9.4503,9.4179,9.4098,9.4288,9.44,9.4602,9.4912,9.4483,9.4404,9.4388,9.3739,9.3723,9.4193,9.3545,9.3768,9.4052,9.3654,9.3034,9.2673,9.2409,9.2145,9.2112,9.2996,9.3437,9.3786,9.4116,9.4153,9.4226,9.441,9.4666,9.4851,9.4964,9.5037,9.5418,9.6871,9.7951,9.8238,9.8286,9.7451,9.7169,9.6902,9.7196,9.7765,9.7918,9.7956,9.7803,9.7432,9.6898,9.6172,9.5828,9.556,9.5484,9.5293,9.4987,9.4987,9.5178,9.4949,9.4529,9.4338,9.4261,9.4643,9.4949,9.5255,9.5675,9.7089,9.8311,9.8923,9.8884,9.8197,9.6442,9.6673,9.6403,9.6288,9.6288,9.6288,9.6288,9.6288,9.6288,9.6288,9.6288,9.6288,9.6288,9.6288,9.6288,9.6288,9.6288,9.6288,9.6288,9.6326,9.6365,9.6288,9.6326,9.648,9.6403,9.6711,9.7557,9.8442,9.8798,10.0096,10.0866,10.1279,10.1279,10.1279,10.1279,10.1279,10.0866,10.0596,10.0933,10.0653,9.9583,9.9023,9.8325,9.7189,9.5985,9.5341,9.5135,9.4793,9.4656,9.4957,9.5068,9.518,9.5477,9.5105,9.5068,9.5031,9.4622,9.4994,9.5365,9.5143,9.4424,9.41,9.3755,9.3156,9.2468,9.2235,9.2056,9.2242,9.318,9.3455,9.3382,9.4006,9.4226,9.4263,9.4446,9.4813,9.5035,9.5055,9.5197,9.5837,9.6961,9.7877,9.841,9.9399,9.9021,9.8468,9.8178,9.7742,9.8032,9.8032,9.8032,9.8032,9.7803,9.7432,9.6974,9.663,9.621,9.5981,9.5751,9.5446,9.5533,9.5675,9.5484,9.5064,9.4949,9.4872,9.5484,9.6133,9.6886,9.7727,9.8273,9.8693,9.8923,9.8732,9.8223,9.648,9.6673,9.6403,9.648,9.6634,9.6442,9.6288,9.6288,9.6288,9.6288,9.6288,9.6288,9.6288,9.6288,9.6288,9.6288,9.6288,9.6288,9.6634,9.6634,9.6711,9.698,9.7173,9.7134,9.7365,9.7557,9.8365,9.9298,9.9413,10.0635,10.1202,10.1279,10.1279,10.1279,10.1279,10.1279,10.1241,10.1241,10.1433,10.1413,10.0613,10.0051,9.9483,9.833,9.7224,9.6281,9.5697,9.5229,9.4845,9.5217,9.5477,9.5663,9.6071,9.622,9.6257,9.6257,9.5997,9.6146,9.6183,9.5737,9.493,9.4338,9.4227,9.3811,9.3103,9.3105,9.2978,9.307,9.3418,9.3749,9.4006,9.463,9.5034,9.5107,9.5605,9.6009,9.6676,9.6804,9.724,9.7736,9.8167,9.8668,9.9061,9.9718,10.0381,9.9919,9.9484,9.8949,9.8414,9.8414,9.8414,9.8338,9.83,9.7956,9.7662,9.7432,9.7012,9.6554,9.6248,9.5942,9.5866,9.6019,9.5789,9.5713,9.5713,9.5942,9.6554,9.7192,9.7689,9.7841,9.7891,9.8311,9.8758,9.872,9.8491,9.6749,9.7288,9.6625,9.6711,9.7211,9.6596,9.6288,9.6288,9.6288,9.6288,9.6288,9.6288,9.6288,9.6288,9.6288,9.6288,9.6365,9.6365,9.6826,9.7288,9.7442,9.7942,9.8327,9.8481,9.8288,9.8827,9.9452,9.9837,10.0144,10.0866,10.1279,10.1279,10.1279,10.1279,10.1279,10.1279,10.1279,10.1433,10.1702,10.1577,10.1086,10.1403,10.0753,9.9758,9.8795,9.8131,9.7643,9.7168,9.7116,9.726,9.7483,9.7632,9.778,9.7855,9.7892,9.7632,9.6963,9.6852,9.6666,9.6108,9.568,9.5249,9.5069,9.4796,9.4338,9.3952,9.3805,9.4024,9.4483,9.496,9.5401,9.6025,9.6649,9.7057,9.7595,9.8299,9.9132,9.9657,10.0167,10.0648,10.1089,10.1487,10.1712,10.2149,10.1635,10.11,10.0554,9.9943,9.9484,9.9217,9.914,9.8835,9.8758,9.8529,9.83,9.8197,9.7815,9.7356,9.6821,9.6554,9.6439,9.6286,9.5981,9.6019,9.6477,9.6821,9.7012,9.7509,9.8158,9.8235,9.8388,9.8388,9.8988,9.9255,9.9331,9.6442,9.6586,9.6403,9.6442,9.6596,9.6403,9.6288,9.6288,9.6288,9.6288,9.6288,9.6288,9.6288,9.6288,9.6288,9.6288,9.6519,9.6817,9.7211,9.7673,9.8211,9.8557,9.8788,9.8942,9.8827,9.9135,9.9644,10.0221,10.0298,10.0943,10.1279,10.1279,10.1279,10.1279,10.1279,10.1279,10.1279,10.1394,10.1702,10.1673,10.1366,10.1404,10.1006,10.0383,9.9213,9.854,9.8009,9.7178,9.6937,9.7149,9.7074,9.7186,9.7892,9.7892,9.7892,9.7892,9.7632,9.752,9.7466,9.7176,9.6723,9.6416,9.6326,9.5461,9.4871,9.4466,9.4483,9.4887,9.5254,9.5621,9.586,9.6411,9.7239,9.7979,9.8557,9.9353,10.0179,10.1125,10.1699,10.2333,10.2815,10.3094,10.3487,10.3345,10.2782,10.2247,10.1662,10.11,10.0451,10.0172,9.9828,9.9522,9.9599,9.9484,9.919,9.9037,9.8579,9.8109,9.7662,9.7241,9.705,9.6783,9.6286,9.6401,9.705,9.7127,9.7012,9.7815,9.8961,9.9266,9.9419,9.9228,9.919,9.9599,9.9713,9.6288,9.6288,9.6288,9.6288,9.6288,9.6288,9.6288,9.6288,9.6288,9.6288,9.6288,9.6288,9.6288,9.6288,9.6326,9.648,9.6865,9.725,9.7788,9.8836,9.9029,9.9519,9.9673,9.9712,9.9904,10.0019,10.0173,10.0673,10.0673,10.0904,10.1279,10.1279,10.1279,10.1279,10.1279,10.1279,10.1279,10.1433,10.1625,10.1741,10.1597,10.1558,10.1505,10.0798,9.9517,9.8895,9.8459,9.7605,9.7569,9.7966,9.804,9.8263,9.8858,9.8895,9.8824,9.877,9.84,9.8236,9.8054,9.7594,9.7413,9.7248,9.7063,9.6435,9.5862,9.5493,9.5437,9.5584,9.5804,9.6061,9.6246,9.6578,9.7556,9.8534,9.9261,10.0009,10.1067,10.2118,10.2855,10.3501,10.3896,10.4137,10.4272,10.4157,10.3966,10.3469,10.3049,10.2629,10.175,10.0948,10.0566,10.0222,10.0451,10.0604,10.026,9.9878,9.9572,9.9152,9.8693,9.8273,9.7891,9.7585,9.7318,9.7432,9.7738,9.7891,9.812,9.8961,9.9916,10.0145,10.026,10.0107,10.0069,10.0375,10.0325,9.6288,9.6288,9.6288,9.6288,9.6288,9.6288,9.6288,9.6288,9.6288,9.6288,9.6288,9.6288,9.6288,9.6288,9.6288,9.6749,9.7211,9.7673,9.8557,10.0067,10.0106,10.0442,10.0827,10.1202,10.0817,10.1087,10.1202,10.1048,10.1202,10.1279,10.1279,10.1279,10.1279,10.1279,10.1279,10.1279,10.1317,10.1394,10.1741,10.2058,10.2404,10.2952,10.3562,10.289,10.2042,10.1353,10.1001,10.0606,10.0156,10.0082,9.9935,9.9712,9.9675,9.9585,9.9533,9.9313,9.8592,9.8316,9.8004,9.758,9.7378,9.7229,9.7044,9.7114,9.6926,9.6318,9.6135,9.6135,9.6355,9.6392,9.6521,9.7116,9.8059,9.9205,10.0176,10.1342,10.268,10.355,10.4153,10.4646,10.4774,10.5024,10.5036,10.4921,10.4539,10.4348,10.4043,10.3699,10.3011,10.1941,10.1597,10.1215,10.1674,10.1826,10.1012,10.0718,10.0566,10.0222,9.961,9.919,9.8693,9.8502,9.8414,9.8464,9.8541,9.9228,9.9725,10.0298,10.0642,10.0833,10.0909,10.0909,10.1062,10.1368,10.0986,9.6288,9.6288,9.6288,9.6288,9.6288,9.6288,9.6288,9.6288,9.6288,9.6288,9.6288,9.6288,9.6288,9.6288,9.6403,9.6865,9.7519,9.8327,9.9135,10.0058,10.0635,10.0904,10.1241,10.1279,10.1279,10.1279,10.1279,10.1279,10.1279,10.1279,10.1279,10.1279,10.1279,10.1279,10.1279,10.1279,10.1317,10.1317,10.151,10.1741,10.1818,10.1721,10.1784,10.1548,10.1024,10.0627,10.009,9.9396,9.8909,9.8616,9.8519,9.8429,9.8449,9.8363,9.8275,9.8129,9.7948,9.7765,9.7636,9.7433,9.7431,9.7687,9.7832,9.8121,9.7953,9.7163,9.6795,9.6795,9.6815,9.6851,9.7076,9.7838,9.8706,9.9951,10.12,10.2702,10.4191,10.4802,10.5396,10.5549,10.5649,10.5673,10.5673,10.5533,10.5189,10.4807,10.4463,10.4119,10.366,10.2935,10.3011,10.282,10.3278,10.3202,10.217,10.1356,10.1177,10.0642,9.9992,9.9687,9.9469,9.919,9.8949,9.9114,9.9393,9.9992,10.0566,10.1024,10.133,10.1406,10.1826,10.1903,10.2323,10.2705,10.1979,9.6288,9.6288,9.6288,9.6288,9.6288,9.6288,9.6288,9.6288,9.6288,9.6288,9.6288,9.6288,9.6288,9.6442,9.6634,9.7288,9.8096,9.899,9.9865,10.0635,10.0943,10.1164,10.1279,10.1279,10.1279,10.1279,10.1279,10.1279,10.1279,10.1279,10.1279,10.1279,10.1279,10.1279,10.1279,10.1279,10.1279,10.1279,10.1279,10.1279,10.1279,10.1298,10.1248,10.0951,10.0574,10.0114,9.9604,9.8975,9.8541,9.8258,9.8135,9.7931,9.7936,9.7793,9.7576,9.7432,9.7285,9.7156,9.7211,9.7413,9.7668,9.8109,9.851,9.8743,9.8741,9.808,9.8043,9.8063,9.8198,9.8254,9.8521,9.9132,10.0095,10.1284,10.2219,10.3376,10.4481,10.5267,10.5561,10.5624,10.5673,10.5673,10.5686,10.5686,10.5418,10.538,10.5036,10.4921,10.4425,10.3966,10.4081,10.4119,10.4348,10.3966,10.2858,10.2094,10.1624,10.1024,10.0413,10.0183,10.0031,9.9687,9.9458,9.9992,10.0413,10.068,10.1203,10.1788,10.1776,10.1776,10.24,10.3011,10.3469,10.3775,10.3049,9.6288,9.6288,9.6288,9.6288,9.6288,9.6288,9.6288,9.6288,9.6288,9.6288,9.6365,9.6442,9.6442,9.6711,9.7134,9.8057,9.8913,9.9529,10.0442,10.1019,10.1241,10.1279,10.1279,10.1279,10.1279,10.1279,10.1279,10.1279,10.1279,10.1279,10.1279,10.1279,10.1279,10.1279,10.1279,10.1279,10.1279,10.1279,10.1279,10.1279,10.1279,10.1269,10.1238,10.1046,10.0782,10.0459,9.9998,9.949,9.892,9.891,9.8788,9.8659,9.8523,9.8508,9.8239,9.8132,9.8023,9.7857,9.7727,9.8188,9.8407,9.8662,9.9081,9.9431,9.9487,9.9617,9.9543,9.9565,9.9699,9.9537,9.9834,10.0507,10.1488,10.2395,10.3216,10.396,10.4872,10.5599,10.5636,10.5686,10.5686,10.5686,10.5686,10.5686,10.5686,10.5686,10.5686,10.5686,10.5533,10.5112,10.496,10.4807,10.4769,10.4195,10.3431,10.2973,10.2476,10.1624,10.11,10.0833,10.063,10.0439,10.063,10.133,10.1674,10.1788,10.217,10.2743,10.2591,10.2464,10.3355,10.4157,10.4157,10.431,10.3966,9.6288,9.6288,9.6288,9.6288,9.6288,9.6288,9.6288,9.6288,9.6288,9.6288,9.6519,9.7019,9.7288,9.7288,9.7365,9.8211,9.9606,10.0106,10.0596,10.1202,10.1279,10.1279,10.1279,10.1279,10.1279,10.1279,10.1279,10.1279,10.1279,10.1279,10.1279,10.1279,10.1279,10.1279,10.1279,10.1279,10.1279,10.1279,10.1317,10.1317,10.1394,10.1326,10.1198,10.1015,10.0842,10.0795,10.0638,10.0305,10.035,10.0409,10.0308,10.0121,9.9961,9.9819,9.9644,9.9428,9.9342,9.9309,9.9348,9.959,9.985,10.0406,10.0888,10.124,10.1407,10.1703,10.1611,10.1444,10.1258,10.0369,10.0618,10.1617,10.2605,10.3418,10.4228,10.4784,10.551,10.5649,10.5673,10.5686,10.5686,10.5686,10.5686,10.5686,10.5686,10.5686,10.5686,10.5686,10.5686,10.5686,10.5686,10.5456,10.5189,10.4845,10.431,10.4004,10.3469,10.2552,10.1788,10.1597,10.1444,10.1433,10.1776,10.2361,10.2705,10.282,10.3278,10.3584,10.3852,10.3916,10.4718,10.5303,10.5189,10.5189,10.5151]}]]